[[{"header":{"parameterUnit":"m.s-1","parameterCategory":1,"la1":30.6,"la2":29.2853,"lo1":-89.7004,"lo2":-87.6739,"dy":0.0162,"dx":0.0183,"nx":112,"ny":82,"refTime":"2026-03-14T00:00:00:Z","depth":0,"parameterNumber":2,"parameterNumberName":"U-component_of_WINDS"},"data":[0.0,0.0,0.0,0.0,0.0,0.0,0.0,0.0,0.0,0.0,0.0,0.0,0.0,0.0,0.0,0.0,0.0,0.0,0.0,0.0,0.0,0.0,0.0,0.0,0.0,0.0,0.0,0.0,0.0,0.0,0.0,0.0,0.0,0.0,0.0,0.0,0.0,0.0,0.0,0.0,0.0,0.0,0.0,0.0,0.0,0.0,0.0,0.0,0.0,0.0,0.0,0.0,0.0,0.0,0.0,0.0,0.0,0.0,0.0,0.0,0.0,0.0,0.0,0.0,0.0,0.0,0.0,0.0,0.0,0.0,0.0,0.0,0.0,0.0,0.0,0.0,0.0,0.0,0.0,0.0,0.0,0.0,0.0,0.0,0.0,0.0,0.0,0.0,0.0,0.0,0.0,-0.563,-0.5284,-0.484,-0.434,-0.4276,-0.4391,-0.4686,0.0,0.0,0.0,0.0,0.0,0.0,0.0,0.0,0.0,0.0,0.0,0.0,0.0,0.0,0.0,0.0,0.0,0.0,0.0,0.0,0.0,0.0,0.0,0.0,0.0,0.0,0.0,0.0,0.0,0.0,0.0,0.0,0.0,0.0,0.0,0.0,0.0,0.0,0.0,0.0,0.0,0.0,0.0,0.0,0.0,0.0,0.0,0.0,0.0,0.0,0.0,0.0,0.0,0.0,0.0,0.0,0.0,0.0,0.0,0.0,0.0,0.0,0.0,0.0,0.0,0.0,0.0,0.0,0.0,0.0,0.0,0.0,0.0,0.0,0.0,0.0,0.0,0.0,0.0,0.0,0.0,0.0,0.0,0.0,0.0,0.0,0.0,0.0,0.0,0.0,0.0,0.0,0.0,0.0,0.0,0.0,0.0,0.0,0.0,0.0,0.0,0.0,0.0,0.0,-0.4189,-0.4148,-0.3968,-0.3872,-0.3883,-0.3781,-0.374,-0.3787,0.0,0.0,0.0,0.0,0.0,0.0,0.0,0.0,0.0,0.0,0.0,0.0,0.0,0.0,0.0,0.0,0.0,0.0,0.0,0.0,0.0,0.0,0.0,0.0,0.0,0.0,0.0,0.0,0.0,0.0,0.0,0.0,0.0,0.0,0.0,0.0,0.0,0.0,0.0,0.0,0.0,0.0,0.0,0.0,0.0,0.0,0.0,0.0,0.0,0.0,0.0,0.0,0.0,0.0,0.0,0.0,0.0,0.0,0.0,0.0,0.0,0.0,0.0,0.0,0.0,0.0,0.0,0.0,0.0,0.0,0.0,0.0,0.0,0.0,0.0,0.0,0.0,0.0,0.0,0.0,0.0,0.0,0.0,0.0,0.0,0.0,0.0,0.0,0.0,0.0,0.0,0.0,0.0,0.0,0.0,0.0,0.0,0.0,0.0,0.0,0.0,0.0,0.0,-0.42,-0.4058,-0.3931,-0.3782,-0.3754,-0.39,-0.3707,-0.3672,-0.3809,-0.392,0.0,0.0,0.0,0.0,0.0,0.0,0.0,0.0,0.0,0.0,0.0,0.0,0.0,0.0,0.0,0.0,0.0,0.0,0.0,0.0,0.0,0.0,0.0,0.0,0.0,0.0,0.0,0.0,0.0,0.0,0.0,0.0,0.0,0.0,0.0,0.0,0.0,0.0,0.0,0.0,0.0,0.0,0.0,0.0,0.0,0.0,0.0,0.0,0.0,0.0,0.0,0.0,0.0,0.0,0.0,0.0,0.0,0.0,0.0,0.0,0.0,0.0,0.0,0.0,0.0,0.0,0.0,0.0,0.0,0.0,0.0,0.0,0.0,0.0,0.0,0.0,0.0,0.0,0.0,0.0,0.0,0.0,0.0,0.0,0.0,0.0,0.0,0.0,0.0,0.0,0.0,0.0,0.0,0.0,0.0,0.0,0.0,0.0,0.0,0.0,0.0,0.0,-0.4197,-0.415,-0.4062,-0.3938,-0.3835,-0.378,-0.3571,-0.3518,-0.3729,-0.3598,0.0,0.0,0.0,0.0,0.0,0.0,0.0,0.0,0.0,0.0,0.0,0.0,0.0,0.0,0.0,0.0,0.0,0.0,0.0,0.0,0.0,0.0,0.0,0.0,0.0,0.0,0.0,0.0,0.0,0.0,0.0,0.0,0.0,0.0,0.0,0.0,0.0,0.0,0.0,0.0,0.0,0.0,0.0,0.0,0.0,0.0,0.0,0.0,0.0,0.0,0.0,0.0,0.0,0.0,0.0,0.0,0.0,0.0,0.0,0.0,0.0,0.0,0.0,0.0,0.0,0.0,0.0,0.0,0.0,0.0,0.0,0.0,0.0,0.0,0.0,0.0,0.0,0.0,0.0,0.0,0.0,0.0,0.0,0.0,0.0,0.0,0.0,0.0,0.0,0.0,0.0,0.0,0.0,0.0,0.0,0.0,0.0,0.0,0.0,0.0,0.0,0.0,-0.4197,-0.419,-0.418,-0.4068,-0.3761,-0.3216,-0.3034,-0.2948,-0.2988,-0.2439,0.0,0.0,0.0,0.0,0.0,0.0,0.0,0.0,0.0,0.0,0.0,0.0,0.0,0.0,0.0,0.0,0.0,0.0,0.0,0.0,0.0,0.0,0.0,0.0,0.0,0.0,0.0,0.0,0.0,0.0,0.0,0.0,0.0,0.0,0.0,0.0,0.0,0.0,0.0,0.0,0.0,0.0,0.0,0.0,0.0,0.0,0.0,0.0,0.0,0.0,0.0,0.0,0.0,0.0,0.0,0.0,0.0,0.0,0.0,0.0,0.0,0.0,0.0,0.0,0.0,0.0,0.0,0.0,0.0,0.0,0.0,0.0,0.0,0.0,0.0,0.0,0.0,0.0,0.0,0.0,0.0,0.0,0.0,0.0,0.0,0.0,0.0,0.0,0.0,0.0,0.0,0.0,0.0,0.0,0.0,0.0,0.0,0.0,0.0,0.0,0.0,0.0,-0.3941,-0.383,0.0,-0.3398,-0.2901,-0.3249,-0.2624,-0.2509,-0.3159,0.0,0.0,0.0,0.0,0.0,0.0,0.0,0.0,0.0,0.0,0.0,0.0,0.0,0.0,0.0,0.0,0.0,0.0,0.0,0.0,0.0,0.0,0.0,0.0,0.0,0.0,0.0,0.0,0.0,0.0,0.0,0.0,0.0,0.0,0.0,0.0,0.0,0.0,0.0,0.0,0.0,0.0,0.0,0.0,0.0,0.0,0.0,0.0,0.0,0.0,0.0,0.0,0.0,0.0,0.0,0.0,0.0,0.0,0.0,0.0,0.0,0.0,0.0,0.0,0.0,0.0,0.0,0.0,0.0,0.0,0.0,0.0,0.0,0.0,0.0,0.0,0.0,0.0,0.0,0.0,0.0,0.0,0.0,0.0,0.0,0.0,0.0,0.0,0.0,0.0,0.0,0.0,0.0,0.0,0.0,0.0,0.0,0.0,0.0,0.0,0.0,0.0,-0.4491,-0.3818,-0.3525,0.0,-0.2877,-0.2239,-0.2645,-0.1993,-0.1988,-0.295,0.0,0.0,0.0,0.0,0.0,0.0,0.0,0.0,0.0,0.0,0.0,0.0,0.0,0.0,0.0,0.0,0.0,0.0,0.0,0.0,0.0,0.0,0.0,0.0,0.0,0.0,0.0,0.0,0.0,0.0,0.0,0.0,0.0,0.0,0.0,0.0,0.0,0.0,0.0,0.0,0.0,0.0,0.0,0.0,0.0,0.0,0.0,0.0,0.0,0.0,0.0,0.0,0.0,0.0,0.0,0.0,0.0,0.0,0.0,0.0,0.0,0.0,0.0,0.0,0.0,0.0,0.0,0.0,0.0,0.0,0.0,0.0,0.0,0.0,0.0,0.0,0.0,0.0,0.0,0.0,0.0,0.0,0.0,0.0,0.0,0.0,0.0,0.0,0.0,0.0,0.0,0.0,0.0,0.0,0.0,0.0,0.0,0.0,0.0,0.0,0.0,0.0,-0.4487,-0.3843,-0.3351,-0.329,-0.2619,-0.188,-0.1163,-0.1084,-0.1406,0.0,0.0,0.0,0.0,0.0,0.0,0.0,0.0,0.0,0.0,0.0,0.0,0.0,0.0,0.0,0.0,0.0,0.0,0.0,0.0,0.0,0.0,0.0,0.0,0.0,0.0,0.0,0.0,0.0,0.0,0.0,0.0,0.0,0.0,0.0,0.0,0.0,0.0,0.0,0.0,0.0,0.0,0.0,0.0,0.0,0.0,0.0,0.0,0.0,0.0,0.0,0.0,0.0,0.0,0.0,0.0,0.0,0.0,0.0,0.0,0.0,0.0,0.0,0.0,0.0,0.0,0.0,0.0,0.0,0.0,0.0,0.0,0.0,0.0,0.0,0.0,0.0,0.0,0.0,0.0,0.0,0.0,0.0,0.0,0.0,0.0,0.0,0.0,0.0,0.0,0.0,0.0,0.0,0.0,0.0,0.0,0.0,0.0,0.0,0.0,0.0,0.0,0.0,-0.3655,-0.2556,-0.1967,-0.2481,-0.1408,-0.0766,-0.1085,-0.0631,-0.0641,-0.1375,0.0,0.0,0.0,0.0,0.0,0.0,0.0,0.0,0.0,0.0,0.0,0.0,0.0,0.0,0.0,0.0,0.0,0.0,0.0,0.0,0.0,0.0,0.0,0.0,0.0,0.0,0.0,0.0,0.0,0.0,0.0,0.0,0.0,0.0,0.0,0.0,0.0,0.0,0.0,0.0,0.0,0.0,0.0,0.0,0.0,0.0,0.0,0.0,0.0,0.0,0.0,0.0,0.0,0.0,0.0,0.0,0.0,0.0,0.0,0.0,0.0,0.0,0.0,0.0,0.0,0.0,0.0,0.0,0.0,0.0,0.0,0.0,0.0,0.0,0.0,0.0,0.0,0.0,0.0,0.0,0.0,0.0,0.0,0.0,0.0,0.0,0.0,0.0,0.0,0.0,0.0,0.0,0.0,0.0,0.0,0.0,0.0,0.0,0.0,0.0,0.0,0.0,-0.3305,-0.2005,-0.1278,-0.1725,-0.0716,-0.0172,-0.0628,-0.0266,-0.0319,-0.1041,0.0,0.0,0.0,0.0,0.0,0.0,0.0,0.0,0.0,0.0,0.0,0.0,0.0,0.0,0.0,0.0,0.0,0.0,0.0,0.0,0.0,0.0,0.0,0.0,0.0,0.0,0.0,0.0,0.0,0.0,0.0,0.0,0.0,0.0,0.0,0.0,0.0,0.0,0.0,0.0,0.0,0.0,0.0,0.0,0.0,0.0,0.0,0.0,0.0,0.0,0.0,0.0,0.0,0.0,0.0,0.0,0.0,0.0,0.0,0.0,0.0,0.0,0.0,0.0,0.0,0.0,0.0,0.0,0.0,0.0,0.0,0.0,0.0,0.0,0.0,0.0,0.0,0.0,0.0,0.0,0.0,0.0,0.0,0.0,0.0,0.0,0.0,0.0,0.0,0.0,0.0,0.0,0.0,0.0,0.0,0.0,0.0,0.0,0.0,0.0,0.0,0.0,-0.3095,-0.1872,-0.0991,-0.1004,-0.0404,0.0,0.0,0.0,-0.0274,-0.095,0.0,0.0,0.0,0.0,0.0,0.0,0.0,0.0,0.0,0.0,0.0,0.0,0.0,0.0,0.0,0.0,0.0,0.0,0.0,0.0,0.0,0.0,0.0,0.0,0.0,0.0,0.0,0.0,0.0,0.0,0.0,0.0,0.0,0.0,0.0,0.0,0.0,0.0,0.0,0.0,0.0,0.0,0.0,0.0,0.0,0.0,0.0,0.0,0.0,0.0,0.0,0.0,0.0,0.0,0.0,0.0,0.0,0.0,0.0,0.0,-1.1763,0.0,0.0,0.0,0.0,0.0,0.0,0.0,0.0,0.0,0.0,0.0,0.0,0.0,0.0,0.0,0.0,0.0,0.0,0.0,0.0,0.0,0.0,0.0,0.0,0.0,0.0,0.0,0.0,0.0,0.0,0.0,0.0,0.0,0.0,0.0,0.0,0.0,0.0,0.0,0.0,0.0,-0.1564,-0.0779,-0.0241,-0.0239,-0.0093,0.0,0.0,0.0,-0.0069,-0.0214,0.0,0.0,0.0,0.0,0.0,0.0,0.0,0.0,0.0,0.0,0.0,0.0,0.0,0.0,0.0,0.0,0.0,0.0,0.0,0.0,0.0,0.0,0.0,0.0,0.0,0.0,0.0,0.0,0.0,0.0,0.0,0.0,0.0,0.0,0.0,0.0,0.0,0.0,0.0,0.0,0.0,0.0,0.0,0.0,0.0,0.0,0.0,0.0,0.0,0.0,0.0,0.0,0.0,0.0,0.0,0.0,0.0,0.0,0.0,0.0,0.0,-1.1883,0.0,0.0,0.0,0.0,0.0,0.0,0.0,0.0,0.0,0.0,0.0,0.0,0.0,0.0,0.0,0.0,0.0,0.0,0.0,0.0,0.0,0.0,0.0,0.0,0.0,0.0,0.0,0.0,0.0,0.0,0.0,0.0,0.0,0.0,0.0,0.0,0.0,0.0,0.0,0.0,-0.1087,-0.045,0.0,0.0,0.0,0.0,0.0,0.0,0.0,0.0,0.0,0.0,0.0,0.0,0.0,0.0,0.0,0.0,0.0,0.0,0.0,0.0,0.0,0.0,0.0,0.0,0.0,0.0,0.0,0.0,0.0,0.0,0.0,0.0,0.0,0.0,0.0,0.0,0.0,0.0,0.0,0.0,0.0,0.0,0.0,0.0,0.0,0.0,0.0,0.0,0.0,0.0,0.0,0.0,0.0,0.0,0.0,0.0,0.0,0.0,0.0,0.0,0.0,0.0,-1.2069,-1.2026,-1.1647,-1.2049,-1.1698,-1.0843,-1.1231,-1.1162,-1.0876,0.0,0.0,0.0,0.0,0.0,0.0,0.0,0.0,0.0,0.0,0.0,0.0,0.0,0.0,0.0,0.0,0.0,0.0,0.0,0.0,0.0,0.0,0.0,0.0,0.0,-0.268,-0.2194,0.0,0.0,0.0,0.0,0.0,0.0,0.0,0.0,0.0,0.0,0.0,0.0,-0.091,-0.0381,0.0,0.0,0.0,0.0,0.0,0.0,0.0,0.0,0.0,0.0,0.0,0.0,0.0,0.0,0.0,0.0,0.0,0.0,0.0,0.0,0.0,0.0,0.0,0.0,0.0,0.0,0.0,0.0,0.0,0.0,0.0,0.0,0.0,0.0,0.0,0.0,0.0,0.0,0.0,0.0,0.0,0.0,-1.1602,-1.1881,0.0,0.0,0.0,0.0,0.0,0.0,0.0,0.0,0.0,0.0,0.0,0.0,0.0,-1.2629,-1.2753,-1.2051,-1.1793,-1.1968,-1.1659,-1.1491,-1.1457,-1.1498,-1.1458,-1.1256,-1.0491,0.0,-1.1227,-1.1175,0.0,0.0,0.0,0.0,0.0,0.0,0.0,0.0,0.0,0.0,0.0,0.0,0.0,0.0,0.0,0.0,0.0,0.0,0.0,0.0,0.0,0.0,-0.3371,-0.2561,-0.179,-0.1283,0.0,-0.1823,-0.2232,-0.2315,0.0,0.0,0.0,0.0,0.0,0.0,0.0,0.0,-0.0139,-0.0054,0.0,0.0,0.0,0.0,0.0,0.0,0.0,0.0,0.0,0.0,0.0,0.0,0.0,0.0,0.0,0.0,0.0,0.0,0.0,0.0,0.0,0.0,0.0,0.0,0.0,0.0,0.0,0.0,0.0,0.0,0.0,0.0,0.0,0.0,0.0,0.0,0.0,0.0,0.0,0.0,0.0,-1.1616,-1.1817,-1.1495,-1.2167,-1.2717,0.0,0.0,0.0,0.0,0.0,0.0,0.0,0.0,0.0,-1.2539,-1.2313,-1.2122,-1.2007,-1.1654,-1.156,-1.1652,-1.1492,-1.1108,-1.0544,-1.0544,-1.0262,-0.9707,-0.942,-0.942,-0.9667,-0.9575,-0.9666,-0.9838,0.0,0.0,0.0,0.0,-0.8286,-0.8054,-0.7165,-0.6791,0.0,0.0,0.0,0.0,0.0,0.0,0.0,0.0,0.0,0.0,0.0,0.0,0.0,-0.1759,-0.1079,-0.0483,-0.0483,-0.0736,-0.1086,0.0,-0.1257,-0.109,-0.1507,0.0,0.0,0.0,0.0,0.0,0.0,0.0,0.0,0.0,0.0,0.0,0.0,0.0,0.0,0.0,0.0,0.0,0.0,0.0,0.0,0.0,0.0,0.0,0.0,0.0,0.0,0.0,0.0,0.0,0.0,0.0,0.0,0.0,0.0,0.0,0.0,0.0,0.0,0.0,0.0,0.0,0.0,0.0,0.0,0.0,0.0,0.0,0.0,-1.1226,-1.1428,-1.1165,-1.1405,-1.1813,0.0,0.0,0.0,0.0,0.0,0.0,-1.1823,-1.1736,-1.1525,-1.1234,-1.1141,-1.0961,-1.0748,-1.0719,-1.0791,-1.0866,-1.0866,-1.0472,-0.9753,-0.9753,-0.9326,-0.8617,-0.8561,-0.8432,-0.8248,-0.8441,-0.8453,-0.8388,-0.8304,-0.8245,-0.8225,-0.7894,-0.7669,-0.7436,-0.6735,-0.6366,-0.6145,-0.55,0.0,-0.4813,-0.4715,0.0,0.0,0.0,0.0,-0.3189,-0.2391,-0.1663,-0.1108,-0.1004,-0.0478,0.0,0.0,0.0,-0.0148,0.0,-0.0368,-0.0168,-0.0736,0.0,0.0,0.0,0.0,0.0,0.0,0.0,0.0,0.0,0.0,0.0,0.0,0.0,0.0,0.0,0.0,0.0,0.0,0.0,0.0,0.0,0.0,0.0,0.0,0.0,0.0,0.0,0.0,0.0,0.0,0.0,0.0,0.0,0.0,0.0,0.0,0.0,0.0,0.0,0.0,0.0,0.0,0.0,0.0,0.0,0.0,0.0,0.0,0.0,0.0,-1.0534,-0.9999,0.0,0.0,0.0,0.0,-0.9583,-0.8985,-0.8643,-0.8643,-0.8608,-0.8613,-0.8594,-0.8594,-0.87,-0.8922,-0.8922,-0.9075,-0.9412,-0.9412,-0.9374,-0.9336,-0.9336,-0.9299,-0.919,-0.8257,-0.7838,-0.7888,-0.8503,-0.8622,-0.8403,-0.8393,-0.8388,-0.8283,-0.7438,-0.7124,-0.7018,-0.6133,-0.5851,-0.5812,-0.5769,-0.4982,-0.4038,-0.4033,-0.3372,0.0,0.0,-0.3398,-0.2533,-0.1604,-0.1336,-0.1069,-0.0269,-0.0033,0.0,0.0,0.0,0.0,0.0,-0.0029,0.0,-0.0058,0.0,0.0,0.0,0.0,0.0,0.0,0.0,0.0,0.0,0.0,0.0,0.0,0.0,0.0,0.0,0.0,0.0,0.0,0.0,0.0,0.0,0.0,0.0,0.0,0.0,0.0,0.0,0.0,0.0,0.0,0.0,0.0,0.0,0.0,0.0,0.0,0.0,0.0,0.0,0.0,0.0,0.0,0.0,0.0,0.0,0.0,0.0,0.0,0.0,0.0,-0.9008,-0.8865,0.0,-0.9118,-0.8911,-0.8753,-0.8753,-0.8528,-0.8403,-0.8403,-0.8567,-0.8641,-0.8641,-0.8863,-0.9085,-0.9258,-0.9258,-0.9297,-0.9426,-0.9527,-0.9173,-0.8459,-0.855,-0.8253,-0.7616,-0.7258,-0.7042,-0.6978,-0.7219,-0.721,-0.7049,-0.6898,-0.6851,-0.6803,-0.6406,-0.6331,-0.6335,-0.5942,-0.5425,-0.4851,-0.4046,-0.3509,-0.3176,-0.3176,-0.291,-0.2572,-0.2343,-0.2029,-0.1577,-0.0709,-0.0471,-0.037,-0.0067,0.0,0.0,0.0,0.0,0.0,0.0,0.0,0.0,0.0,0.0,0.0,0.0,0.0,0.0,0.0,0.0,0.0,0.0,0.0,0.0,0.0,0.0,0.0,0.0,0.0,0.0,0.0,0.0,0.0,0.0,0.0,0.0,0.0,0.0,0.0,0.0,0.0,0.0,0.0,0.0,0.0,0.0,0.0,0.0,0.0,0.0,0.0,0.0,0.0,0.0,0.0,0.0,0.0,0.0,0.0,0.0,0.0,0.0,-0.8003,-0.8245,-0.7861,-0.7668,-0.792,-0.7726,-0.7588,-0.7588,-0.7654,-0.7719,-0.7744,-0.7937,-0.8038,-0.8105,-0.8319,-0.8453,-0.8533,-0.8538,-0.8538,-0.8538,-0.863,-0.8301,-0.7548,-0.7665,-0.7312,-0.6702,-0.6702,-0.6644,-0.6546,-0.6535,-0.6457,-0.6358,-0.6166,-0.6108,-0.6095,-0.5993,-0.5793,-0.5478,-0.505,-0.451,-0.3833,-0.2706,-0.2318,-0.2314,-0.2257,-0.2034,-0.1738,-0.1387,-0.1097,-0.0741,-0.0139,0.0,0.0,0.0,0.0,0.0,0.0,0.0,0.0,0.0,0.0,0.0,0.0,0.0249,0.0339,0.0031,0.0524,0.0801,0.0493,0.0709,0.0924,0.0924,0.0924,0.0924,0.0924,0.0617,0.0588,0.0906,0.0626,0.0595,0.0906,0.0595,0.0432,0.0449,0.0148,0.0,0.0,0.0,0.0,0.0,0.0,0.0,0.0,0.0,0.0,0.0,0.0,0.0,0.0,0.0,0.0,0.0,0.0,0.0,0.0,0.0,0.0,0.0,0.0,0.0,-0.804,-0.7646,-0.7524,-0.8226,-0.6952,-0.6308,-0.7008,-0.6423,-0.6,-0.6,-0.6179,-0.6368,-0.6504,-0.6518,-0.6549,-0.6695,-0.6702,-0.6702,-0.6709,-0.6709,-0.6709,-0.6709,-0.6712,-0.6712,-0.6709,-0.6712,-0.6715,-0.6715,-0.6715,-0.6712,-0.6698,-0.6549,-0.6485,-0.6424,-0.6358,-0.63,-0.6261,-0.6261,-0.5589,-0.4491,-0.3435,-0.3046,-0.2879,-0.1866,-0.155,-0.1506,-0.1322,-0.0657,-0.0182,-0.1019,-0.0656,0.0,0.0,0.0,0.0,0.0,0.0,0.0,0.0,0.0,0.0,0.0,0.0032,0.0031,0.0,0.0694,0.0988,0.0155,0.1543,0.0,0.145,0.2128,0.2713,0.2713,0.2713,0.2713,0.2713,0.1851,0.1717,0.2628,0.1834,0.1739,0.2665,0.1835,0.1336,0.1359,0.051,0.009,0.0093,0.0,0.0,0.0,0.0,0.0,0.0,0.0,0.0,0.0,0.0,0.0,0.0,0.0,0.0,0.0,0.0,0.0,0.0,0.0,0.0,0.0,0.0,-0.7252,-0.7372,-0.6808,-0.6452,-0.6625,-0.64,-0.6294,-0.6515,-0.6325,-0.6235,-0.6235,-0.6371,-0.647,-0.6511,-0.6576,-0.6658,-0.6698,-0.6702,-0.6753,-0.6822,-0.6865,-0.6865,-0.6825,-0.6927,-0.6923,-0.6868,-0.693,-0.6974,-0.6974,-0.6974,-0.6916,-0.6861,-0.682,-0.6232,-0.5416,-0.6041,-0.5825,-0.5157,-0.5157,-0.445,-0.3398,-0.2386,-0.1996,-0.1838,-0.0778,-0.0427,-0.0427,-0.0385,-0.0192,-0.0038,-0.0301,-0.0187,0.0,0.0,0.0,0.0,0.0,0.0,0.0,0.0,0.0,0.0,0.0,0.0505,0.0757,0.01,0.0199,0.0493,0.0885,0.1376,0.0,0.2257,0.2551,0.2716,0.2716,0.2716,0.2716,0.2716,0.2455,0.243,0.0,0.2449,0.2416,0.2678,0.2449,0.2309,0.2324,0.2067,0.195,0.0,0.0,0.0,0.0,0.0,0.0,0.0,0.0,0.0,0.0,0.0,0.0,0.0,0.0,0.0,0.0,0.0,0.0,0.0,0.0,0.0,0.0,-0.6728,-0.6869,-0.6777,-0.6405,-0.6125,-0.6125,-0.6245,-0.6323,-0.6381,-0.6388,-0.6416,-0.648,-0.6522,-0.6597,-0.6661,-0.6749,-0.6824,-0.6885,-0.6885,-0.6883,-0.6974,-0.6974,-0.6974,-0.6974,-0.7058,-0.7055,-0.6977,-0.7058,-0.7095,0.0,-0.6605,-0.6342,-0.6225,-0.5645,-0.4939,0.0,0.0,0.0,0.0,0.0,-0.3017,-0.2334,-0.1292,-0.0929,-0.0807,-0.02,0.0,0.0,0.0,0.0,0.0,0.0,0.0,0.0,0.0,0.0,0.0,0.0,0.0,0.0,0.0,0.036,0.0677,0.0677,0.0,0.0,0.139,0.15,0.171,0.1876,0.2544,0.3078,0.0,0.358,0.3816,0.3816,0.3888,0.3917,0.3917,0.3646,0.0,0.0,0.0,0.3286,0.3247,0.3245,0.0,0.0,0.0,0.0,0.0,0.0,0.0,0.0,0.1287,0.1501,0.0,0.0,0.0,0.0,0.0,0.0,0.0,0.0,0.0,0.0,0.0,0.0,0.0,0.0,0.0,0.0,-0.62,-0.6351,-0.6351,-0.6351,-0.6344,-0.6327,-0.6337,-0.6399,-0.6525,-0.6538,-0.6556,-0.6692,-0.6715,-0.6783,-0.6879,0.0,0.0,0.0,0.0,-0.7095,-0.7095,-0.7095,-0.7095,-0.7095,-0.6962,-0.6918,-0.6918,-0.6782,-0.6691,-0.6647,-0.5625,-0.5179,-0.5082,-0.3853,-0.3303,-0.3296,-0.4187,-0.3895,-0.2805,-0.1802,-0.1425,-0.13,-0.0336,0.0,0.0,0.0,0.0,0.0,0.0,0.0,0.0,0.0,0.0,0.0,0.0,0.0,0.0038,0.0152,0.0187,0.022,0.033,0.1098,0.1753,0.1753,0.2584,0.3268,0.3268,0.363,0.3681,0.3004,0.4258,0.0,0.4288,0.4934,0.5443,0.5443,0.0,0.0,0.5613,0.5009,0.4917,0.5585,0.4836,0.4328,0.4175,0.4169,0.3837,0.3074,0.303,0.303,0.304,0.2939,0.3006,0.3204,0.2114,0.2089,0.0,0.0,0.0,0.0,0.0,0.0,0.0,0.0,0.0,0.0,0.0,0.0,0.0,0.0,0.0,-0.6245,-0.6441,-0.6617,-0.6617,-0.6617,-0.6569,-0.6484,-0.6539,-0.6627,-0.6654,-0.6658,-0.6668,-0.6698,-0.6814,-0.6856,-0.6883,-0.6994,0.0,-0.7095,-0.7095,-0.7095,-0.7095,-0.7095,-0.7095,-0.7095,0.0,0.0,-0.5714,-0.473,-0.4281,-0.4281,-0.4061,-0.3927,-0.3926,-0.3645,-0.2975,-0.2126,-0.2213,-0.2094,-0.176,-0.0715,-0.0294,-0.0295,-0.0084,0.0,0.0,0.0,0.0,0.0,0.0,0.0,0.0,0.0,0.0,0.0,0.0,0.0,0.02,0.1095,0.128,0.1507,0.2312,0.2658,0.2811,0.2811,0.3569,0.4239,0.4239,0.3705,0.3467,0.4067,0.446,0.4856,0.5393,0.5609,0.5718,0.5718,0.5742,0.5762,0.5762,0.5639,0.5607,0.5762,0.5581,0.5444,0.5305,0.5302,0.5246,0.521,0.5111,0.5108,0.5213,0.4496,0.4534,0.521,0.415,0.3827,0.0,0.0,0.0,0.0,0.0,0.0,0.0,0.0,0.0,0.0,0.0,-0.6449,-0.6128,0.0,-0.6429,-0.6508,-0.6668,-0.6576,-0.5913,-0.6444,-0.6837,-0.6614,-0.6654,-0.6729,-0.6807,-0.6256,-0.5941,-0.6052,-0.5548,-0.5228,-0.5228,-0.5323,-0.5351,-0.5351,-0.5351,-0.5351,-0.5351,-0.5351,-0.5351,-0.5351,-0.4774,-0.4508,-0.4463,-0.3881,-0.3614,-0.357,-0.2948,-0.2681,-0.2637,-0.2057,-0.1433,-0.0895,-0.0832,-0.0782,-0.0738,-0.0218,0.0,0.0,0.0,0.0,0.0,0.0,0.0,0.0,0.0,0.0,0.0,0.0,0.0,0.0126,0.0746,0.0908,0.1193,0.2317,0.2594,0.2705,0.311,0.3626,0.3975,0.3925,0.4712,0.5386,0.5386,0.5012,0.4821,0.5093,0.5147,0.529,0.5728,0.58,0.58,0.58,0.5871,0.5915,0.5915,0.5915,0.5915,0.5915,0.5844,0.5769,0.5698,0.5694,0.5728,0.58,0.5732,0.5732,0.58,0.5362,0.54,0.5878,0.5439,0.5219,0.0,0.0,0.0,0.0,0.0,0.0,0.0,0.0,-0.5861,-0.5918,-0.603,-0.6162,-0.6358,-0.6298,-0.6267,-0.6386,-0.6309,-0.5895,-0.4791,-0.5648,-0.632,-0.6117,-0.631,-0.6408,-0.626,-0.5394,-0.4862,-0.5038,-0.415,-0.3614,-0.3614,-0.3614,-0.3614,-0.3614,-0.3583,-0.3592,-0.3592,-0.3605,-0.3614,-0.3614,-0.3343,-0.3253,-0.3253,-0.3028,-0.2892,-0.2847,-0.1894,-0.1438,-0.1389,-0.0404,0.0,0.0,0.0,0.0,0.0,0.0,0.0,0.0,0.0,0.0,0.0,0.0,0.0,0.0,0.0,0.0,0.0043,0.0298,0.0341,0.0638,0.1817,0.2151,0.2444,0.3606,0.3895,0.3916,0.3967,0.4644,0.5229,0.5128,0.5786,0.6385,0.6385,0.6385,0.6282,0.5939,0.5891,0.5891,0.5891,0.5891,0.5891,0.5891,0.6,0.6074,0.6074,0.6074,0.6023,0.5993,0.5942,0.5878,0.5847,0.5844,0.5861,0.5891,0.5891,0.5905,0.5932,0.5962,0.604,0.6124,0.6288,0.6235,-0.7986,-0.7531,0.0,-0.6092,-0.5835,-0.586,0.0,0.0,-0.6078,-0.6342,-0.645,-0.6471,-0.6624,-0.588,-0.528,-0.5296,-0.4559,-0.3935,-0.3774,-0.3871,-0.3974,-0.3964,-0.4897,-0.5147,-0.409,-0.3868,-0.3783,-0.3792,-0.3659,-0.3614,-0.3614,-0.3614,-0.3614,-0.3614,-0.3589,-0.3579,-0.3579,-0.3597,-0.3582,-0.3582,-0.2502,-0.1985,-0.1985,-0.0899,-0.0426,-0.0378,-0.0279,-0.0183,-0.018,-0.0045,0.0,0.0,0.0,0.0,0.0,0.0,0.0,0.0,0.0,0.0,0.0,0.0,0.0,0.0,0.0,0.0,0.0223,0.129,0.16,0.1859,0.308,0.3409,0.3649,0.4708,0.4934,0.5183,0.6134,0.6423,0.6503,0.6486,0.6569,0.6651,0.6651,0.6651,0.6552,0.6293,0.6248,0.6248,0.6248,0.6248,0.6248,0.6248,0.6265,0.6272,0.6272,0.6272,0.6176,0.6,0.6142,0.6149,0.5973,0.5966,0.6067,0.6245,0.6248,0.631,0.6436,0.6532,0.661,0.6627,0.6641,0.6559,-0.6706,0.0,0.0,0.0,-0.602,-0.617,-0.6276,-0.5805,-0.5375,-0.5439,-0.507,-0.4695,-0.4718,-0.4472,-0.4244,0.0,-0.3886,-0.3343,-0.2668,-0.3166,-0.3061,-0.1681,-0.2556,-0.3381,-0.3564,-0.2963,-0.2548,-0.2548,-0.1901,-0.1484,-0.1484,-0.1484,-0.1484,-0.1484,-0.1496,-0.1502,-0.1502,-0.1515,-0.1521,-0.1522,-0.0999,-0.0762,-0.0715,-0.0238,0.0,0.0,0.0,0.0,0.0,0.0,0.0,0.0,0.0,0.0,0.0,0.0,0.0,0.0,0.0,0.0,0.0,0.0,0.0461,0.105,0.105,0.1538,0.2191,0.2726,0.2858,0.312,0.433,0.463,0.4925,0.601,0.6257,0.6365,0.672,0.6834,0.6807,0.6719,0.6702,0.6702,0.6702,0.6702,0.6658,0.6536,0.6515,0.6525,0.6433,0.6422,0.6392,0.631,0.63,0.6334,0.6416,0.6422,0.6395,0.6291,0.6388,0.6358,0.6169,0.6244,0.6318,0.6422,0.6511,0.6546,0.6607,0.6668,0.6702,0.6702,0.6793,0.68,-0.5356,0.0,0.0,-0.5144,-0.5327,-0.5476,-0.542,-0.4903,-0.4378,-0.4367,-0.3845,-0.3369,-0.3375,-0.321,0.0,-0.3102,-0.2834,-0.2295,-0.1435,-0.2051,-0.1946,-0.019,-0.0764,-0.1634,-0.2509,-0.1819,-0.1285,-0.1285,-0.0476,0.0,0.0,0.0,0.0,0.0,0.0,0.0,0.0,0.0,0.0,0.0,0.0,0.0,0.0,0.0,0.0,0.0,0.0,0.0,0.0,0.0,0.0,0.0,0.0,0.0,0.0048,0.0435,0.0337,0.0048,0.0429,0.0572,0.0619,0.0999,0.1695,0.2419,0.2419,0.3036,0.3768,0.4131,0.4221,0.4494,0.5679,0.5998,0.6223,0.704,0.7189,0.7177,0.7075,0.6974,0.691,0.6844,0.682,0.682,0.682,0.682,0.682,0.682,0.682,0.6753,0.6559,0.6536,0.6538,0.6433,0.6422,0.6463,0.6566,0.6536,0.6536,0.6536,0.6536,0.6528,0.6426,0.6521,0.6536,0.6536,0.6685,0.6763,0.6763,0.6803,0.6844,0.6888,0.7,0.7075,0.0,0.0,-0.2833,-0.2943,-0.2999,-0.3033,-0.3177,-0.3169,-0.3199,-0.3399,-0.3373,-0.3374,-0.3559,-0.2624,-0.1857,-0.1848,-0.0856,-0.0096,-0.0049,-0.0097,-0.0097,0.0,-0.005,-0.0049,0.0,-0.0097,-0.0048,-0.0048,0.0,0.0,0.0,0.0,0.0,0.0,0.0,0.0,0.0,0.0,0.0,0.0,0.0,0.0,0.0,0.0,0.0,0.0,0.0,0.0,0.0,0.0,0.0,0.0,0.0,0.0,0.0147,0.1448,0.113,0.0191,0.1476,0.1952,0.2141,0.3468,0.3892,0.3938,0.3938,0.3936,0.4216,0.5395,0.5727,0.6012,0.7201,0.754,0.754,0.7587,0.7472,0.7409,0.7405,0.7241,0.7088,0.7085,0.7082,0.7082,0.7082,0.7082,0.7082,0.7082,0.7082,0.6977,0.6729,0.6695,0.6692,0.6688,0.6685,0.6688,0.6695,0.6695,0.6695,0.6695,0.6695,0.6692,0.6688,0.6692,0.6695,0.6695,0.6844,0.6879,0.6879,0.7014,0.7204,0.7398,0.7402,0.7438,0.0,0.0,-0.2851,-0.2981,-0.3096,-0.3136,-0.3111,-0.2654,-0.2232,-0.2206,-0.1605,-0.1144,-0.1191,-0.0878,-0.0608,-0.0628,-0.0243,0.0,0.0,0.0,0.0,0.0,0.0,0.0,0.0,0.0,0.0,0.0,0.0,0.0,0.0,0.0,0.0,0.0,0.0,0.0,0.0,0.0,0.0,0.0,0.0,0.0,0.0,0.0,0.0,0.0,0.0,0.0,0.0,0.0,0.0,0.0099,0.0996,0.1347,0.1498,0.2808,0.304,0.2712,0.3155,0.3304,0.3403,0.3844,0.4543,0.5174,0.5174,0.5751,0.6455,0.6882,0.6976,0.7073,0.7503,0.76,0.76,0.76,0.756,0.7522,0.7522,0.7482,0.7444,0.7444,0.7444,0.7444,0.7444,0.7444,0.7411,0.7309,0.7126,0.692,0.6822,0.6763,0.6702,0.6702,0.6702,0.6742,0.6844,0.6851,0.6851,0.6851,0.6851,0.6807,0.6705,0.68,0.6851,0.6851,0.7095,0.7224,0.7224,0.7373,0.7472,0.7569,0.8386,0.8822,0.0,-0.2088,-0.189,-0.1974,-0.2056,-0.2116,-0.2001,-0.1555,-0.1142,-0.1054,-0.0484,0.0,0.0,0.0,0.0,0.0,0.0,0.0,0.0,0.0,0.0,0.0,0.0,0.0,0.0,0.0,0.0,0.0,0.0,0.0,0.0,0.0,0.0,0.0,0.0,0.0,0.0,0.0,0.0,0.0,0.0,0.0,0.0,0.0,0.0,0.0,0.0,0.0,0.0051,0.0504,0.0706,0.0857,0.2213,0.2715,0.2865,0.4218,0.4718,0.4718,0.4718,0.4718,0.477,0.527,0.5973,0.6608,0.6608,0.7143,0.7756,0.7756,0.7756,0.7756,0.7756,0.7756,0.7756,0.7756,0.7716,0.7675,0.7675,0.7634,0.76,0.76,0.76,0.76,0.76,0.76,0.7567,0.7468,0.7292,0.7149,0.7092,0.7,0.6963,0.7017,0.6973,0.7004,0.7156,0.717,0.717,0.717,0.717,0.7126,0.7027,0.7115,0.717,0.717,0.7356,0.7678,0.8173,0.8234,0.855,0.9079,0.9907,1.0314,-0.123,-0.0617,0.0,0.0,0.0,0.0,0.0,0.0,0.0,0.0,0.0,0.0,0.0,0.0,0.0,0.0,0.0,0.0,0.0,0.0,0.0,0.0,0.0,0.0,0.0,0.0,0.0,0.0,0.0,0.0,0.0,0.0,0.0,0.0,0.0,0.0,0.0,0.0,0.0,0.0,0.0,0.0,0.0,0.0,0.0051,0.0101,0.0101,0.0151,0.0303,0.1561,0.2113,0.2213,0.3566,0.4116,0.4268,0.5625,0.6079,0.6079,0.6079,0.6079,0.6331,0.7587,0.7988,0.7988,0.7988,0.7988,0.7988,0.7988,0.7988,0.7988,0.7988,0.7988,0.7988,0.7988,0.788,0.7824,0.7824,0.7719,0.7621,0.7621,0.7621,0.7621,0.7621,0.7614,0.7611,0.7611,0.7611,0.7556,0.745,0.7429,0.7438,0.7584,0.7468,0.7441,0.7587,0.76,0.76,0.76,0.76,0.76,0.76,0.7644,0.7691,0.7691,0.7792,0.8391,0.9625,0.9638,1.0342,1.1721,1.1769,1.1886,-0.049,-0.0158,0.0,0.0,0.0,0.0,0.0,0.0,0.0,0.0,0.0,0.0,0.0,0.0,0.0,0.0,0.0,0.0,0.0,0.0,0.0,0.0,0.0,0.0,0.0,0.0,0.0,0.0,0.0,0.0,0.0,0.0,0.0,0.0,0.0,0.0,0.0,0.0,0.0,0.0,0.0,0.0,0.0,0.0,0.0555,0.1511,0.1511,0.2063,0.3015,0.3366,0.3465,0.3615,0.4972,0.5475,0.5675,0.6983,0.7487,0.7487,0.7487,0.7487,0.7537,0.7889,0.7988,0.7988,0.7988,0.7988,0.7988,0.7988,0.7988,0.7988,0.7988,0.7988,0.7988,0.7988,0.7961,0.7931,0.7931,0.7904,0.7877,0.7877,0.7877,0.7877,0.7877,0.7831,0.7756,0.7756,0.7756,0.7706,0.756,0.7543,0.7556,0.7597,0.7563,0.7556,0.7597,0.76,0.76,0.76,0.76,0.76,0.76,0.8516,0.9017,0.9017,1.0088,1.082,1.1145,1.1263,1.1467,1.1859,1.2864,1.3377,-0.0118,0.0,0.0,0.0,0.0,0.0,0.0,0.0,0.0,0.0,0.0,0.0,0.0,0.0,0.0,0.0,0.0,0.0,0.0,0.0,0.0,0.0,0.0,0.0,0.0,0.0,0.0,0.0,0.0,0.0,0.0,0.0,0.0,0.0,0.0,0.0,0.0,0.0,0.0,0.0,0.0,0.0,0.0,0.0,0.0411,0.1136,0.0,0.2462,0.3207,0.4563,0.5067,0.5135,0.6562,0.71,0.7196,0.7857,0.818,0.8225,0.8163,0.818,0.8214,0.8032,0.7988,0.8002,0.8119,0.814,0.8153,0.8218,0.8235,0.8235,0.8235,0.8235,0.8235,0.8235,0.8235,0.8235,0.8235,0.8184,0.8123,0.8002,0.7988,0.7988,0.7988,0.7917,0.7913,0.7913,0.7913,0.7882,0.7804,0.7733,0.7719,0.7787,0.7733,0.7719,0.7787,0.7794,0.7794,0.7794,0.7794,0.7794,0.7794,0.902,0.9724,0.9724,1.1072,1.2088,1.2659,1.2748,1.306,1.3644,1.437,1.4752,0.0,0.0,0.0,0.0,0.0,0.0,0.0,0.0,0.0,0.0,0.0,0.0,0.0,0.0,0.0,0.0,0.0,0.0,0.0,0.0,0.0,0.0,0.0,0.0,0.0,0.0,0.0,0.0,0.0,0.0,0.0,0.0,0.0,0.0,0.0,0.0,0.0,0.0,0.0102,0.0311,0.0102,0.0103,0.026,0.0104,0.021,0.0639,0.0,0.0,0.3064,0.5689,0.6722,0.6741,0.8007,0.8482,0.8469,0.8343,0.8377,0.8465,0.8391,0.8381,0.8438,0.818,0.8049,0.8123,0.8258,0.835,0.8374,0.8445,0.8482,0.8482,0.8482,0.8482,0.8482,0.8482,0.8482,0.8482,0.8482,0.837,0.8225,0.8019,0.7988,0.7988,0.7988,0.7988,0.7988,0.7988,0.7988,0.8088,0.8237,0.8021,0.7892,0.7975,0.7919,0.7896,0.7978,0.8187,0.8283,0.8283,0.8432,0.8531,0.8531,0.9801,1.0534,1.0534,1.175,1.3011,1.4166,1.4166,1.4704,1.5784,1.5784,1.5784,0.0,0.0,0.0,0.0,0.0,0.0,0.0,0.0,0.0,0.0,0.0,0.0,0.0,0.0,0.0,0.0,0.0,0.0,0.0,0.0,0.0,0.0,0.0,0.0,0.0,0.0,0.0,0.0,0.0,0.0,0.0,0.0,0.0,0.0,0.0,0.0,0.0,0.0,0.062,0.1812,0.0577,0.0635,0.18,0.053,0.1274,0.3502,0.3767,0.0,0.7386,0.7941,0.8148,0.8128,0.8416,0.8482,0.8479,0.8455,0.8462,0.8479,0.8455,0.8462,0.8472,0.8421,0.8404,0.8408,0.8438,0.8445,0.8452,0.8476,0.8482,0.8482,0.8482,0.8482,0.8482,0.8482,0.8482,0.8482,0.8482,0.837,0.8225,0.8019,0.7988,0.7988,0.7988,0.7988,0.7988,0.7988,0.7988,0.8382,0.9509,0.8651,0.7961,0.7985,0.7965,0.7961,0.7988,0.9019,0.9657,0.9657,1.0632,1.1214,1.1214,1.2522,1.3199,1.3199,1.4465,1.5248,1.5486,1.5486,1.5588,1.5784,1.5784,1.5784,0.0,0.0,0.0,0.0,0.0,0.0,0.0,0.0,0.0,0.0,0.0,0.0,0.0,0.0,0.0,0.0,0.0,0.0,0.0,0.0,0.0,0.0,0.0,0.0,0.0,0.0,0.0,0.0,0.0,0.0,0.0,0.0,0.0,0.0,0.0,0.0,0.0,0.0,0.0367,0.1066,0.1118,0.1497,0.221,0.2317,0.3085,0.4416,0.5176,0.0,0.7529,0.836,0.8672,0.8608,0.8689,0.872,0.871,0.8628,0.8652,0.871,0.8628,0.8652,0.872,0.872,0.8611,0.8496,0.8577,0.8601,0.8618,0.8699,0.872,0.872,0.872,0.872,0.872,0.872,0.872,0.8676,0.8516,0.8428,0.8313,0.8032,0.8106,0.816,0.816,0.8221,0.8442,0.9056,0.9141,0.9606,1.0841,1.0573,1.0203,1.0055,1.0181,1.0198,1.0055,1.0775,1.1185,1.0979,1.1556,1.1896,1.1896,1.3199,1.3926,1.3926,1.5146,1.5784,1.5784,1.5784,1.5784,1.5784,1.5784,1.5784,0.0,0.0,0.0,0.0,0.0,0.0,0.0,0.0,0.0,0.0,0.0,0.0,0.0,0.0,0.0,0.0,0.0,0.0,0.0,0.0,0.0,0.0,0.0,0.0,0.0,0.0,0.0,0.0,0.0,0.0,0.0,0.0,0.0,0.0,0.0,0.0,0.0,0.0261,0.058,0.0924,0.2095,0.2798,0.3163,0.4102,0.4691,0.5027,0.62,0.0,0.0,0.8388,0.8814,0.8771,0.8838,0.8885,0.8868,0.8804,0.8835,0.8865,0.8801,0.8838,0.8885,0.8885,0.8774,0.8601,0.8723,0.876,0.8784,0.8851,0.8885,0.8885,0.8885,0.8885,0.8885,0.8885,0.8858,0.8815,0.854,0.8459,0.8357,0.8042,0.8338,0.8682,0.8718,0.9076,0.9685,1.059,1.0775,1.1176,1.2353,1.2736,1.2933,1.2943,1.2647,1.2358,1.2036,1.2524,1.2678,1.2349,1.2576,1.2721,1.2721,1.3734,1.4316,1.4316,1.5289,1.5784,1.5784,1.5784,1.5784,1.5784,1.5784,1.5784,0.0,0.0,0.0,0.0,0.0,0.0,0.0,0.0,0.0,0.0,0.0,0.0,0.0,0.0,0.0,0.0,0.0,0.0,0.0,0.0,0.0,0.0,0.0,0.0,0.0,0.0,0.0,0.0,0.0,0.0,0.0,0.0,0.0,0.0,0.0,0.0,0.0,0.1193,0.2506,0.3829,0.3938,0.4729,0.6044,0.4981,0.5244,0.6478,0.6647,0.0,0.0,0.8819,0.8875,0.8865,0.8878,0.8885,0.8881,0.8868,0.8871,0.8881,0.8868,0.8871,0.8885,0.8885,0.8865,0.8844,0.8858,0.8861,0.8865,0.8878,0.8885,0.8885,0.8885,0.8885,0.8885,0.8885,0.8832,0.8686,0.852,0.8381,0.8241,0.8022,0.8985,0.9929,1.0197,1.124,1.2168,1.2496,1.2577,1.3027,1.4375,1.4544,1.501,1.6114,1.4145,1.2638,1.2368,1.3452,1.4001,1.3746,1.4806,1.5439,1.5439,1.554,1.5635,1.5635,1.573,1.5784,1.5784,1.5784,1.5784,1.5784,1.5784,1.5784,0.0,0.0,0.0,0.0,0.0,0.0,0.0,0.0,0.0,0.0,0.0,0.0,0.0,0.0,0.0,0.0,0.0,0.0,0.0,0.0,0.0,0.0,0.0,0.0,0.0,0.0,0.0,0.0,0.0,0.0,0.0,0.0,0.0,0.0,0.0,0.0407,0.1191,0.1708,0.2727,0.4204,0.5154,0.5963,0.6633,0.7014,0.7482,0.8042,0.8042,0.0,0.0,0.8885,0.8885,0.8885,0.8885,0.8885,0.8885,0.8885,0.8885,0.8885,0.8885,0.8885,0.8885,0.8885,0.8885,0.8885,0.8885,0.8885,0.8885,0.8885,0.8885,0.8885,0.8885,0.8885,0.8885,0.8885,0.8821,0.8669,0.8516,0.8976,0.9415,0.9248,1.033,1.1373,1.1453,1.1981,1.2663,1.3473,1.3568,1.4119,1.5531,1.5826,1.62,1.6954,1.5885,1.5056,1.4746,1.5219,1.5344,1.5064,1.5534,1.5784,1.5784,1.5784,1.5784,1.5784,1.6005,1.6092,1.6092,1.6273,1.6353,1.6353,1.6353,1.6353,0.0,0.0,0.0,0.0,0.0,0.0,0.0,0.0,0.0,0.0,0.0,0.0,0.0,0.0,0.0,0.0,0.0,0.0,0.0,0.0,0.0,0.0,0.0,0.0,0.0,0.0,0.0,0.0,0.0,0.0,0.0,0.0605,0.0605,0.0605,0.0605,0.122,0.2584,0.3049,0.3776,0.4861,0.6406,0.7173,0.7318,0.8416,0.8885,0.8885,0.0,0.0,0.0,0.8885,0.8885,0.8885,0.8885,0.8885,0.8885,0.8885,0.8885,0.8885,0.8885,0.8885,0.8885,0.8885,0.8885,0.8885,0.8885,0.8885,0.8885,0.8885,0.8885,0.8885,0.8885,0.8885,0.8871,0.8828,0.9021,0.9178,0.9015,0.9912,1.069,1.056,1.1722,1.2733,1.2801,1.3206,1.3842,1.4749,1.4886,1.5239,1.6295,1.666,1.6914,1.7179,1.7012,1.672,1.6426,1.6375,1.6146,1.5798,1.5784,1.5784,1.5784,1.5912,1.5959,1.5959,1.6253,1.64,1.64,1.6607,1.6707,1.6707,1.6707,1.6754,0.0,0.0,0.0,0.0,0.0,0.0,0.0,0.0,0.0,0.0,0.0,0.0,0.0,0.0,0.0,0.0,0.0,0.0,0.0,0.0,0.0,0.0,0.0,0.0,0.0,0.0,0.0,0.0,0.0,0.0,0.0,0.1962,0.1962,0.1962,0.1962,0.2639,0.3974,0.5467,0.6248,0.6308,0.7933,0.8659,0.8662,0.8814,0.8885,0.0,0.0,0.0,0.0,0.8885,0.8885,0.8885,0.8885,0.8885,0.8885,0.8885,0.8885,0.8885,0.8885,0.8885,0.8885,0.8885,0.8885,0.8885,0.8885,0.8885,0.8885,0.8885,0.8885,0.8885,0.8885,0.8885,0.8844,0.875,0.9591,1.0341,1.0205,1.1064,1.1901,1.1901,1.2963,1.396,1.4213,1.5366,1.6373,1.661,1.665,1.67,1.67,1.7012,1.7199,1.7199,1.7199,1.7072,1.6727,1.644,1.6146,1.5798,1.5784,1.5784,1.5784,1.6112,1.6266,1.6266,1.6553,1.67,1.67,1.6707,1.6707,1.6707,1.6707,1.6867,0.0,0.0,0.0,0.0,0.0,0.0,0.0,0.0,0.0,0.0,0.0,0.0,0.0,0.0,0.0,0.0,0.0,0.0,0.0,0.0,0.0,0.0,0.0,0.0,0.0,0.0,0.0,0.0,0.0,0.0,0.0,0.3364,0.3364,0.3364,0.3364,0.4029,0.537,0.5999,0.6817,0.7793,0.8421,0.8764,0.8814,0.8861,0.0,0.0,0.0,0.0,0.0,0.8885,0.8885,0.8885,0.8885,0.8885,0.8885,0.8885,0.8885,0.8885,0.8885,0.8885,0.8885,0.8885,0.8885,0.8885,0.8885,0.8885,0.8885,0.8885,0.8885,0.8885,0.8885,0.9508,1.0108,1.0103,1.0845,1.1598,1.1582,1.2436,1.3247,1.3247,1.4316,1.522,1.531,1.5671,1.6005,1.6092,1.6057,1.6253,1.6653,1.6787,1.7001,1.7454,1.732,1.7079,1.6734,1.644,1.6146,1.5798,1.6019,1.6132,1.6132,1.6413,1.6567,1.6567,1.686,1.7058,1.7058,1.7208,1.7308,1.7308,1.7308,1.7355,0.0,0.0,0.0,0.0,0.0,0.0,0.0,0.0,0.0,0.0,0.0,0.0,0.0,0.0,0.0,0.0,0.0,0.0,0.0,0.0,0.0,0.0,0.0,0.0,0.0,0.0,0.0,0.0,0.0,0.0,0.0,0.4851,0.5122,0.5631,0.5039,0.5443,0.6855,0.7027,0.7626,0.857,0.8723,0.8845,0.8885,0.8885,0.0,0.0,0.0,0.0,0.0,0.8885,0.8885,0.8885,0.8885,0.8885,0.8885,0.8885,0.8885,0.8885,0.8885,0.8885,0.8885,0.8885,0.8885,0.8992,0.9537,0.9316,0.8871,0.8814,0.9177,0.9541,0.9479,1.0391,1.1335,1.1259,1.212,1.289,1.2849,1.3796,1.464,1.4793,1.5451,1.5999,1.5999,1.6086,1.6119,1.6012,1.6086,1.6293,1.666,1.68,1.7014,1.7434,1.7407,1.7246,1.6894,1.6607,1.6359,1.6172,1.6333,1.6433,1.6433,1.672,1.6874,1.6874,1.7213,1.7367,1.7367,1.7495,1.7582,1.7582,1.7582,1.7582,0.0,0.0,0.0,0.0,0.0,0.0,0.0,0.0,0.0,0.0,0.0,0.0,0.0,0.0,0.0,0.0,0.0,0.0,0.0,0.0,0.0,0.0,0.0,0.0,0.0,0.0,0.0,0.0,0.0,0.0,0.0,0.6353,0.7032,0.8286,0.6923,0.6867,0.8286,0.8428,0.857,0.8713,0.8811,0.8885,0.8885,0.8885,0.0,0.0,0.0,0.0,0.0,0.8885,0.8885,0.8885,0.8885,0.8885,0.8885,0.8885,0.8885,0.8885,0.8885,0.8885,0.894,0.9047,0.9047,0.9316,1.0836,1.0241,0.9071,0.9031,0.995,1.0858,1.0615,1.1535,1.2496,1.2369,1.3303,1.4172,1.4076,1.4962,1.5945,1.6219,1.6342,1.6355,1.6355,1.6526,1.6613,1.6346,1.6533,1.6714,1.6734,1.7032,1.7206,1.7233,1.7474,1.7475,1.7253,1.6907,1.6727,1.6707,1.6727,1.674,1.674,1.7072,1.7233,1.7233,1.7442,1.7582,1.7582,1.7582,1.7582,1.7582,1.7602,1.7615,0.0,0.0,0.0,0.0,0.0,0.0,0.0,0.0,0.0,0.0,0.0,0.0,0.0,0.0,0.0,0.0,0.0,0.0,0.0,0.0,0.0,0.0,0.0,0.0,0.0,0.0,0.0,0.0,0.0,0.0,0.0,0.7936,0.8112,0.8431,0.8082,0.8079,0.8431,0.8581,0.8676,0.8713,0.8811,0.8885,0.8885,0.8885,0.0,0.0,0.0,0.0,0.8885,0.8885,0.8885,0.8885,0.8885,0.8885,0.8885,0.8885,0.8885,0.8885,0.8885,0.8885,0.9103,1.0241,1.0566,1.0836,1.2349,1.1755,1.0828,1.1914,1.2435,1.2602,1.2332,1.3143,1.3971,1.3723,1.4558,1.5373,1.5356,1.5807,1.6186,1.6259,1.6453,1.6607,1.6607,1.666,1.6687,1.6613,1.666,1.6787,1.7065,1.7159,1.7286,1.7455,1.7542,1.7555,1.7482,1.7266,1.6947,1.672,1.6921,1.7099,1.7099,1.738,1.7534,1.7534,1.7549,1.7582,1.7582,1.7582,1.7582,1.7589,1.7822,1.7936,0.0,0.0,0.0,0.0,0.0,0.0,0.0,0.0,0.0,0.0,0.0,0.0,0.0,0.0,0.0,0.0,0.0,0.0,0.0,0.0,0.0,0.0,0.0,0.0,0.0,0.0,0.0,0.0,0.0,0.0,0.0,0.855,0.8587,0.8587,0.8655,0.8659,0.8587,0.8669,0.8747,0.8815,0.8844,0.8885,0.8885,0.8885,0.8885,0.0,0.0,0.0,0.8885,0.8885,0.8885,0.8885,0.8885,0.8885,0.8885,0.8885,0.8885,0.8885,0.8885,0.932,1.0131,1.1647,1.2132,1.2403,1.3804,1.3623,1.2953,1.3108,1.3514,1.3802,1.3559,1.4288,1.506,1.4917,1.5461,1.5999,1.5811,1.6166,1.6473,1.6473,1.6707,1.6907,1.6907,1.7021,1.7061,1.6934,1.7021,1.7168,1.738,1.74,1.746,1.7562,1.7582,1.7582,1.7582,1.7494,1.7333,1.7121,1.7261,1.74,1.74,1.7502,1.7582,1.7582,1.7582,1.7582,1.7582,1.7722,1.7796,1.7802,1.811,1.825,0.0,0.0,0.0,0.0,0.0,0.0,0.0,0.0,0.0,0.0,0.0,0.0,0.0,0.0,0.0,0.0,0.0,0.0,0.0,0.0,0.0,0.0,0.0,0.0,0.0,0.0,0.0,0.0,0.0,0.0,0.0,0.8676,0.8747,0.8747,0.8814,0.8821,0.8747,0.8747,0.8811,0.8885,0.8885,0.8885,0.8885,0.8885,0.8885,0.0,0.0,0.0,0.8885,0.8885,0.8885,0.8885,0.8885,0.8885,0.8885,0.8885,0.8885,0.8937,0.9154,1.0186,1.1701,1.3156,1.3642,1.3911,1.531,1.5563,1.5087,1.3975,1.4218,1.4791,1.4628,1.5238,1.5899,1.5899,1.6086,1.6219,1.6005,1.6386,1.6774,1.6774,1.7065,1.7266,1.7266,1.7474,1.7502,1.7306,1.7474,1.7582,1.7582,1.7582,1.7582,1.7582,1.7582,1.7582,1.7582,1.7582,1.7582,1.7582,1.7582,1.7582,1.7582,1.7582,1.7582,1.7582,1.7629,1.7655,1.7655,1.7963,1.8062,1.8069,1.8417,1.8557,0.0,0.0,0.0,0.0,0.0,0.0,0.0,0.0,0.0,0.0,0.0,0.0,0.0,0.0,0.0,0.0,0.0,0.0,0.0,0.0,0.0,0.0,0.0,0.0,0.0,0.0,0.0,0.0,0.0,0.0,0.0,0.8838,0.8848,0.8848,0.8871,0.8871,0.8848,0.8848,0.8861,0.8885,0.8885,0.8885,0.8885,0.8885,0.8885,0.0,0.0,0.8885,0.8885,0.8885,0.8885,0.8885,0.8885,0.8885,0.8885,0.8885,0.8885,0.9103,1.0351,1.1755,1.321,1.4609,1.5091,1.5364,1.6823,1.7055,1.6826,1.6613,1.6463,1.6327,1.6045,1.6087,1.6206,1.6206,1.6239,1.6326,1.6526,1.684,1.7132,1.7132,1.7373,1.7515,1.7515,1.7555,1.7569,1.7522,1.7555,1.7582,1.7582,1.7582,1.7582,1.7582,1.7582,1.7582,1.7582,1.7582,1.7582,1.7582,1.7582,1.7582,1.7582,1.7582,1.7582,1.7582,1.7842,1.7922,1.7922,1.8277,1.8424,1.843,1.8724,1.8858,0.0,0.0,0.0185,0.0914,0.0556,0.0188,0.0,0.0,0.0,0.0,0.0,0.0,0.0,0.0,0.0,0.0,0.0,0.0,0.0,0.0,0.0,0.0,0.0,0.0,0.0,0.0,0.0,0.0,0.0,0.0,0.0,0.0,0.8885,0.8885,0.8885,0.8885,0.8885,0.8885,0.8885,0.8885,0.8885,0.8885,0.8885,0.8885,0.8885,0.8885,0.0,0.8885,0.8885,0.8885,0.8885,0.8885,0.8885,0.8885,0.8992,0.9809,1.008,1.0402,1.267,1.3857,1.4663,1.6121,1.6605,1.6685,1.7232,1.7192,1.6907,1.6907,1.67,1.648,1.65,1.6393,1.6362,1.6473,1.6627,1.679,1.6707,1.7061,1.7387,1.7233,1.7434,1.7582,1.7582,1.7582,1.7582,1.7582,1.7582,1.7582,1.7582,1.7582,1.7649,1.7816,1.7836,1.7896,1.8056,1.8076,1.7929,1.7602,1.7582,1.7649,1.7809,1.7829,1.7909,1.807,1.821,1.829,1.829,1.8584,1.8724,1.8731,1.9025,1.9165,0.0,0.0,0.0231,0.0,0.0,0.0,0.0,0.0,0.0,0.0,0.0,0.0,0.0,0.0,0.0,0.0,0.0,0.0,0.0,0.0,0.0,0.0,0.0,0.0,0.0,0.0,0.0,0.0,0.0,0.0,0.0,0.0,0.8885,0.8885,0.8885,0.8885,0.8885,0.8885,0.8885,0.8885,0.8885,0.8885,0.8885,0.8885,0.8885,0.8885,0.8885,0.8885,0.8885,0.8885,0.8885,0.8885,0.8885,0.9099,0.9533,1.0672,1.1538,1.2398,1.4609,1.5636,1.6121,1.7252,1.7582,1.7528,1.7286,1.7038,1.6794,1.6727,1.6547,1.6426,1.6647,1.654,1.6446,1.674,1.7032,1.7159,1.6941,1.7261,1.7515,1.7347,1.7481,1.7582,1.7582,1.7582,1.7582,1.7582,1.7642,1.7689,1.7689,1.7749,1.7889,1.8123,1.8095,1.8243,1.847,1.849,1.829,1.7822,1.7796,1.7896,1.8116,1.8143,1.8257,1.8484,1.8557,1.8591,1.8591,1.8885,1.9025,1.9032,1.9259,1.9424,0.0,0.0,0.0,0.0142,0.0,0.0,0.0,0.0,0.0,0.0,0.0,0.0,0.0,0.0,0.0,0.0,0.0,0.0,0.0,0.0,0.0,0.0,0.0,0.0,0.0,0.0,0.0,0.0,0.0,0.0,0.0,0.0,0.0,0.8885,0.8885,0.8885,0.8885,0.8885,0.8885,0.8885,0.8885,0.8885,0.8885,0.8885,0.8885,0.8885,0.8885,0.8885,0.8885,0.8885,0.8885,0.8885,0.8885,0.9754,1.0945,1.1051,1.2778,1.5097,1.531,1.628,1.7477,1.7582,1.7582,1.7528,1.7286,1.7186,1.7112,1.678,1.6693,1.668,1.67,1.6693,1.6747,1.7099,1.7186,1.7266,1.7468,1.7555,1.7575,1.7555,1.7569,1.7582,1.7582,1.7582,1.7582,1.7582,1.7829,1.7962,1.7962,1.8257,1.843,1.8457,1.8457,1.847,1.849,1.849,1.847,1.843,1.8424,1.8437,1.8457,1.8457,1.847,1.849,1.8751,1.8891,1.8891,1.9192,1.9332,1.9339,1.9417,1.9424,0.0,0.0595,0.1434,0.0,0.0,0.0,0.0,0.0,0.0,0.0,0.0,0.0,0.0,0.0,0.0,0.0,0.0,0.0,0.0,0.0,0.0,0.0,0.0,0.0,0.0,0.0,0.0,0.0,0.0,0.0,0.0,0.0,0.0,0.8885,0.8885,0.8885,0.8885,0.8885,0.8885,0.8885,0.8885,0.8885,0.8885,0.8885,0.8885,0.8885,0.8885,0.8885,0.8885,0.8885,0.8885,0.8992,0.9915,1.0621,1.1324,1.3102,1.4449,1.5524,1.644,1.7147,1.7582,1.7582,1.7582,1.7528,1.7286,1.7199,1.7179,1.7065,1.7032,1.7032,1.7032,1.7032,1.7054,1.74,1.7474,1.7501,1.7555,1.7582,1.7582,1.7582,1.7582,1.7582,1.7582,1.7582,1.7642,1.7822,1.7963,1.8062,1.8297,1.8424,1.8557,1.8738,1.8925,1.9038,1.9038,1.9038,1.9038,1.9038,1.8691,1.8571,1.8751,1.8764,1.8844,1.9032,1.9145,1.9199,1.9199,1.9312,1.9424,1.9424,1.9424,1.9424,0.0579,0.1531,0.2694,0.0,0.0,0.0,0.0,0.0,0.0,0.0,0.0,0.0,0.0,0.0,0.0,0.0,0.0,0.0,0.0,0.0,0.0,0.0,0.0,0.0,0.0,0.0,0.0,0.0,0.0,0.0,0.0,0.0,0.0,0.0,0.8885,0.8885,0.8885,0.8885,0.8885,0.8885,0.8885,0.8885,0.8885,0.8885,0.8885,0.8885,0.8885,0.8885,0.8885,0.8885,0.9154,0.9754,1.1214,1.2077,1.2724,1.4663,1.5689,1.6227,1.7259,1.7522,1.7442,1.7442,1.7442,1.744,1.7152,1.7192,1.732,1.7226,1.7266,1.734,1.734,1.734,1.7387,1.7535,1.7582,1.7582,1.7582,1.7582,1.7609,1.7709,1.7722,1.7749,1.7849,1.7869,1.7936,1.8136,1.8257,1.8342,1.8604,1.8711,1.8844,1.9045,1.9245,1.9424,1.9424,1.9424,1.9424,1.9424,1.8991,1.8858,1.9058,1.9065,1.9158,1.9424,1.9424,1.9424,1.9424,1.9424,1.9424,1.9424,1.9424,1.9424,0.1831,0.2682,0.0,0.0,0.0,0.0,0.0,0.0,0.0,0.0,0.0,0.0,0.0,0.0,0.0,0.0,0.0,0.0,0.0,0.0,0.0,0.0,0.0,0.0,0.0,0.0,0.0,0.0,0.0,0.0,0.0,0.0,0.0,0.0,0.8881,0.8881,0.8885,0.8881,0.8881,0.8885,0.8885,0.8885,0.8885,0.8885,0.8885,0.8885,0.8885,0.8885,0.8937,0.8937,0.9805,1.1269,1.2724,1.418,1.5417,1.5417,1.6333,1.7582,1.7582,1.744,1.7199,1.7199,1.7199,1.7146,1.68,1.7121,1.7522,1.7286,1.7414,1.7582,1.7582,1.7582,1.7582,1.7582,1.7582,1.7582,1.7582,1.7582,1.7675,1.7935,1.7975,1.8116,1.8437,1.849,1.849,1.8497,1.8738,1.8925,1.8925,1.9185,1.9424,1.9424,1.9424,1.9424,1.9424,1.9424,1.9424,1.9424,1.9424,1.9424,1.9424,1.9424,1.9424,1.9424,1.9424,1.9424,1.9424,1.9424,1.9424,1.9424,1.9424,1.9424,0.2657,0.0,0.0,0.0,0.0,0.0,0.0,0.0,0.0,0.0,0.0,0.0,0.0,0.0,0.0,0.0,0.0,0.0,0.0,0.0,0.0,0.0,0.0,0.0,0.0,0.0,0.0,0.0,0.0,0.0,0.0,0.0,0.0,0.0,0.8835,0.8828,0.8881,0.8832,0.8832,0.8885,0.8885,0.8885,0.8885,0.8885,0.8885,0.8885,0.8885,0.9482,1.0511,1.1592,1.224,1.2783,1.4234,1.5043,1.5524,1.6552,1.7075,1.736,1.7508,1.7255,1.6874,1.7132,1.7199,1.7186,1.7099,1.7333,1.7562,1.7475,1.7515,1.7582,1.7582,1.7582,1.7582,1.7582,1.7582,1.7582,1.7582,1.7582,1.7675,1.7935,1.7989,1.8136,1.8437,1.849,1.8557,1.8764,1.8871,1.8998,1.9205,1.9312,1.9424,1.9424,1.9424,1.9424,1.9424,1.9424,1.9424,1.9424,1.9424,1.9424,1.9424,1.9424,1.9424,1.9424,1.9424,1.9424,1.9424,1.9424,1.9424,1.9424,1.9424,1.9424,0.396,0.0,0.0,0.0,0.0,0.0,0.0,0.0,0.0,0.0,0.0,0.0,0.0,0.0,0.0,0.0,0.0,0.0,0.0,0.0,0.0,0.0,0.0,0.0,0.0,0.0,0.0,0.0,0.0,0.0,0.0,0.0,0.0,0.0,0.8699,0.8693,0.8794,0.8757,0.8788,0.8885,0.8885,0.8885,0.8885,0.8885,0.8885,0.8937,0.9537,1.0621,1.2077,1.3534,1.4126,1.4288,1.5689,1.628,1.6374,1.7128,1.7353,1.7226,1.7407,1.7027,1.66,1.7065,1.7119,1.7045,1.7166,1.7407,1.7582,1.7582,1.7582,1.7582,1.7582,1.7582,1.7582,1.7582,1.7582,1.7582,1.7582,1.7582,1.7709,1.8143,1.8223,1.835,1.8771,1.8838,1.8898,1.9072,1.9098,1.9165,1.9345,1.9424,1.9424,1.9424,1.9424,1.9424,1.9424,1.9424,1.9424,1.9424,1.9424,1.9424,1.9424,1.9424,1.9424,1.9424,1.9424,1.9424,1.9424,1.9424,1.9424,1.9424,1.9424,1.9424,0.0,0.0,0.0,0.0,0.0,0.0,0.0,0.0,0.0,0.0,0.0,0.0,0.0,0.0,0.0,0.0,0.0,0.0,0.0,0.0,0.0,0.0,0.0,0.0,0.0,0.0,0.0,0.0,0.0,0.0,0.0,0.0,0.0,0.0,0.8554,0.8557,0.871,0.871,0.8788,0.0,0.8885,0.8885,0.8885,0.8885,0.8885,0.8992,1.0457,1.1864,1.321,1.4609,1.5257,1.5524,1.6876,1.7457,1.7508,1.73,1.7166,1.7125,1.7152,1.6797,1.6415,1.6978,1.6947,1.68,1.7119,1.7407,1.7582,1.7582,1.7582,1.7582,1.7582,1.7582,1.7582,1.7582,1.7582,1.7582,1.7582,1.7602,1.7796,1.8377,1.851,1.8711,1.9272,1.9424,1.9424,1.9424,1.9424,1.9424,1.9424,1.9424,1.9424,1.9424,1.9424,1.9424,1.9424,1.9424,1.9424,1.9424,1.9424,1.9424,1.9424,1.9424,1.9424,1.9424,1.9424,1.9424,1.9424,1.9424,1.9424,1.9424,1.9424,1.9424,0.0,0.0,0.0,0.0,0.0,0.0,0.0,0.0,0.0,0.0,0.0,0.0,0.0,0.0,0.0,0.0,0.0,0.0,0.0,0.0,0.0,0.0,0.0,0.0,0.0,0.0,0.0,0.0,0.0,0.0,0.0,0.0,0.0,0.8533,0.8499,0.8557,0.871,0.871,0.8788,0.0,0.8885,0.8885,0.8885,0.8885,0.8885,0.8992,1.0457,1.1269,1.1701,1.3156,1.4395,1.5417,1.5737,1.6472,1.7286,1.7226,1.6911,1.6543,1.672,1.6567,1.6382,1.6687,1.6914,1.7119,1.7186,1.7407,1.7582,1.7582,1.7582,1.7582,1.7582,1.7582,1.7582,1.7582,1.7582,1.7582,1.7582,1.7776,1.8056,1.8424,1.8677,1.8945,1.9305,1.9424,1.9424,1.9424,1.9424,1.9424,1.9424,1.9424,1.9424,1.9424,1.9424,1.9424,1.9424,1.9424,1.9424,1.9424,1.9424,1.9424,1.9424,1.9424,1.9424,1.9424,1.9424,1.9424,1.9424,1.9424,1.9424,1.9424,1.9424,1.9424,0.0,0.0,0.0,0.0,0.0,0.0,0.0,0.0,0.0,0.0,0.0,0.0,0.0,0.0,0.0,0.0,0.0,0.0,0.0,0.0,0.0,0.0,0.0,0.0,0.0,0.0,0.0,0.0,0.0,0.0,0.0,0.8679,0.8564,0.8482,0.8343,0.8377,0.8601,0.8601,0.8713,0.8885,0.8885,0.8885,0.8885,0.8885,0.9261,0.997,1.0781,1.186,1.321,1.3965,1.515,1.6427,1.6302,1.6639,1.7166,1.6884,1.667,1.65,1.6653,1.6607,1.6553,1.6981,1.7134,1.7226,1.7367,1.7514,1.7582,1.7582,1.7582,1.7582,1.7582,1.7582,1.7582,1.7582,1.7582,1.7582,1.7582,1.7822,1.8082,1.843,1.8724,1.9018,1.9319,1.9424,1.9424,1.9424,1.9424,1.9424,1.9424,1.9424,1.9424,1.9424,1.9424,1.9424,1.9424,1.9424,1.9424,1.9424,1.9424,1.9424,1.9424,1.9424,1.9424,1.9424,1.9424,1.9424,1.9424,1.9424,1.9424,1.9424,1.9424,1.9446,0.0,0.0,0.0,0.0,0.0,0.0,0.0,0.0,0.0,0.0,0.0,0.0,0.0,0.0,0.0,0.0,0.0,0.0,0.0,0.0,0.0,0.0,0.0,0.0,0.0,0.0,0.0,0.0,0.0,0.0,0.8807,0.8618,0.8459,0.8408,0.8218,0.8235,0.8479,0.8533,0.8686,0.8885,0.8885,0.8885,0.8885,0.9154,0.9805,1.0726,1.1,1.2453,1.4663,1.4931,1.5902,1.7173,1.6944,1.696,1.7058,1.6522,1.6426,1.6627,1.6627,1.6693,1.686,1.7348,1.7434,1.732,1.7508,1.7582,1.7582,1.7582,1.7582,1.7582,1.7582,1.7582,1.7582,1.7582,1.7622,1.7662,1.7662,1.7943,1.8215,1.8517,1.8804,1.9078,1.9325,1.9424,1.9424,1.9424,1.9424,1.9424,1.9424,1.9424,1.9424,1.9424,1.9424,1.9424,1.9424,1.9424,1.9424,1.9424,1.9424,1.9424,1.9424,1.9424,1.9424,1.9424,1.9424,1.9424,1.9424,1.9477,1.9446,1.9446,1.9492,1.9646,0.0,0.0,0.0,0.0,0.0,0.0,0.0,0.0,0.0,0.0,0.0,0.0,0.0,0.0,0.0,0.0,0.0,0.0,0.0,0.0,0.0,0.0,0.0,0.0,0.0,0.0,0.0,0.0,0.0,0.0,0.8557,0.8506,0.8364,0.8056,0.8309,0.8442,0.8482,0.8747,0.8844,0.8885,0.8885,0.8885,0.8937,1.0241,1.0241,0.9265,1.0566,1.1324,1.1751,1.3048,1.4395,1.566,1.5403,1.5889,1.6727,1.64,1.6299,1.6333,1.6333,1.6717,1.7159,1.7233,1.7407,1.7528,1.7569,1.7582,1.7582,1.7582,1.7582,1.7582,1.7582,1.7582,1.7582,1.7582,1.7789,1.7935,1.7935,1.8417,1.8818,1.8858,1.9105,1.9377,1.9417,1.9424,1.9424,1.9424,1.9424,1.9424,1.9424,1.9424,1.9424,1.9424,1.9424,1.9424,1.9424,1.9424,1.9424,1.9424,1.9424,1.9424,1.9424,1.9424,1.9424,1.9424,1.9424,1.9424,1.9424,1.9619,1.974,1.9746,2.0,2.014,0.0,0.0,0.0,0.0,0.0,0.0,0.0,0.0,0.0,0.0,0.0,0.0,0.0,0.0,0.0,0.0,0.0,0.0,0.0,0.0,0.0,0.0,0.0,0.0,0.0,0.0,0.0,0.0,0.0,0.8804,0.8499,0.8482,0.8387,0.8177,0.8296,0.8401,0.8482,0.8699,0.8801,0.8885,0.8885,0.8885,0.8937,1.0457,1.0731,1.0186,1.1701,1.2778,1.3583,1.4234,1.5229,1.6404,1.6074,1.6155,1.6446,1.6319,1.638,1.654,1.6757,1.7092,1.744,1.744,1.7475,1.7582,1.7582,1.7582,1.7582,1.7582,1.7582,1.7582,1.7582,1.7709,1.7842,1.7842,1.8142,1.8482,1.8482,1.8681,1.8971,1.9138,1.9279,1.9424,1.9424,1.9424,1.9424,1.9424,1.9424,1.9424,1.9424,1.9424,1.9424,1.9424,1.9424,1.9424,1.9424,1.9512,1.9606,1.9606,1.9766,1.9853,1.9853,1.9853,1.9853,1.9853,1.9533,1.9446,1.9606,1.974,1.9887,2.0047,2.0174,2.0794,0.0,0.0,0.0,0.0,0.0,0.0,0.0,0.0,0.0,0.0,0.0,0.0,0.0,0.0,0.0,0.0,0.0,0.0,0.0,0.0,0.0,0.0,0.0,0.0,0.0,0.0,0.0,0.0,0.0,0.8788,0.8445,0.8462,0.8418,0.8327,0.8357,0.8394,0.8537,0.8693,0.8825,0.8885,0.9265,0.9482,0.9533,1.1272,1.2107,1.2161,1.3232,1.4302,1.5317,1.5621,1.6276,1.7058,1.6714,1.6466,1.6321,1.6321,1.646,1.6747,1.7099,1.7393,1.7582,1.7582,1.7582,1.7582,1.7582,1.7582,1.7582,1.7582,1.7582,1.7602,1.7675,1.7869,1.8009,1.8089,1.8495,1.8945,1.9018,1.9038,1.9098,1.9325,1.9424,1.9424,1.9424,1.9424,1.9424,1.9424,1.9424,1.9424,1.9424,1.9424,1.9424,1.9424,1.9424,1.9457,1.9472,1.9679,1.9833,1.9907,2.0114,2.0173,2.0173,2.0173,2.0173,2.0173,1.9806,1.9693,1.9913,1.9987,2.0368,2.0935,2.1018,2.2072,0.0,0.0,0.0,0.0,0.0,0.0,0.0,0.0,0.0,0.0,0.0,0.0,0.0,0.0,0.0,0.0,0.0,0.0,0.0,0.0,0.0,0.0,0.0,0.0,0.0,0.0,0.0,0.0,0.0,0.8747,0.8357,0.8411,0.8418,0.8327,0.8401,0.8543,0.8696,0.8797,0.8875,0.894,1.0296,1.1,1.1046,1.363,1.4792,1.4792,1.4897,1.4949,1.5087,1.6189,1.669,1.67,1.6413,1.6286,1.6321,1.6321,1.646,1.6747,1.7099,1.7393,1.7582,1.7582,1.7582,1.7582,1.7582,1.7582,1.7582,1.7582,1.7582,1.7649,1.7896,1.7982,1.8062,1.8404,1.8698,1.8998,1.9285,1.9345,1.941,1.9424,1.9424,1.9424,1.9424,1.9424,1.9424,1.9424,1.9424,1.9424,1.9424,1.9424,1.9424,1.9424,1.9424,1.9479,1.9753,1.9793,1.992,2.0133,2.0167,2.0173,2.0173,2.0173,2.0173,2.0173,2.014,2.0194,2.0153,2.0494,2.1416,2.2937,2.3256,2.4317,0.0,0.0,0.0,0.0,0.0,0.0,0.0,0.0,0.0,0.0,0.0,0.0,0.0,0.0,0.0,0.0,0.0,0.0,0.0,0.0,0.0,0.0,0.0,0.0,0.0,0.0,0.0,0.0,0.0,0.0,0.834,0.8371,0.8374,0.8323,0.8408,0.8604,0.8801,0.8815,0.9272,1.0296,1.077,1.1522,1.2556,1.4253,1.4983,1.5018,1.5613,1.5922,1.6126,1.6546,1.66,1.642,1.6362,1.6321,1.6342,1.648,1.674,1.7085,1.738,1.7495,1.7582,1.7582,1.7582,1.7582,1.7582,1.7582,1.7582,1.7582,1.7716,1.7889,1.7962,1.8275,1.8684,1.8985,1.9132,1.9239,1.9345,1.9424,1.9424,1.9424,1.9424,1.9424,1.9424,1.9424,1.9424,1.9424,1.9424,1.9424,1.9424,1.9533,1.9646,1.9646,1.9813,1.9967,2.0067,2.0254,2.0408,2.0508,2.0688,2.0795,2.0795,2.0795,2.0795,2.0795,2.183,2.227,2.2061,2.2184,2.3178,2.4955,2.5082,2.5984,0.0,0.0,0.0,0.0,0.0,0.0,0.0,0.0,0.0,0.0,0.0,0.0,0.0,0.0,0.0,0.0,0.0,0.0,0.0,0.0,0.0,0.0,0.0,0.0,0.0,0.0,0.0,0.0,0.0,0.0,0.8337,0.8323,0.8344,0.8391,0.8533,0.8733,0.8881,0.9215,0.9962,1.1105,1.1924,1.2848,1.3896,1.5024,1.5538,1.5478,1.5934,1.6286,1.6553,1.6453,1.6299,1.6132,1.6281,1.6321,1.6368,1.6714,1.7032,1.7246,1.7534,1.7582,1.7582,1.7582,1.7582,1.7582,1.7582,1.7582,1.7602,1.7709,1.7876,1.8076,1.8229,1.8704,1.9125,1.9377,1.9424,1.9424,1.9424,1.9424,1.9424,1.9424,1.9424,1.9424,1.9424,1.9424,1.9424,1.9424,1.9424,1.9406,1.9499,1.9679,1.9833,1.9933,2.0114,2.0274,2.0374,2.0561,2.0722,2.0815,2.1002,2.1109,2.1109,2.1109,2.1109,2.1109,2.2223,2.2912,2.3245,2.384,2.5028,2.6832,2.6832,2.7692,0.0,0.0,0.0,0.0,0.0,0.0,0.0,0.0,0.0,0.0,0.0,0.0,0.0,0.0,0.0,0.0,0.0,0.0,0.0,0.0,0.0,0.0,0.0,0.0,0.0,0.0,0.0,0.0,0.0,0.863,0.8443,0.8378,0.844,0.8521,0.8774,0.893,0.8978,1.0112,1.0857,1.1248,1.3757,1.5018,1.507,1.6208,1.654,1.6259,1.5959,1.5992,1.6239,1.5945,1.5784,1.5811,1.6159,1.6279,1.6359,1.6991,1.7206,1.7253,1.7482,1.7582,1.7582,1.7582,1.7582,1.7582,1.7582,1.7589,1.7655,1.7909,1.8002,1.8155,1.8784,1.9152,1.9424,1.9424,1.9424,1.9424,1.9424,1.9424,1.9424,1.9424,1.9424,1.9424,1.9424,1.9424,1.943,1.9437,1.9379,1.9486,1.9773,1.982,1.9933,2.0214,2.0193,2.0374,2.0661,2.0688,2.0808,2.1089,2.1109,2.1109,2.1109,2.1109,2.1109,2.1109,2.1172,2.1971,2.369,2.5261,2.6832,2.8417,2.8417,2.9344,0.7028,0.0,0.0,0.0,0.0,0.0,0.0,0.0,0.0,0.0,0.0,0.0,0.0,0.0,0.0,0.0,0.0,0.0,0.0,0.0,0.0,0.0,0.0,0.0,0.0,0.0,0.0,0.0,1.0146,1.0373,1.1341,1.042,0.9769,0.9737,0.9087,0.9624,1.1387,1.072,1.1438,1.3615,1.4241,1.5081,1.6245,1.6371,1.6346,1.6259,1.5959,1.5831,1.5945,1.5865,1.5784,1.5811,1.6159,1.64,1.6633,1.7058,1.7333,1.7475,1.7555,1.7582,1.7582,1.7582,1.7582,1.7582,1.7582,1.7742,1.7882,1.7969,1.8295,1.8764,1.9145,1.9305,1.9424,1.9424,1.9424,1.9424,1.9424,1.9424,1.9424,1.9424,1.9424,1.9424,1.9424,1.9424,1.9497,1.9646,1.9679,1.9786,2.0074,2.0301,2.0468,2.0541,2.0742,2.0902,2.0982,2.0989,2.1022,2.1109,2.1109,2.1109,2.1109,2.1109,2.1109,2.1109,2.2285,2.3683,2.5314,2.5802,2.6832,2.8417,2.9648,3.046,0.0,0.0,0.0,0.0,0.0,0.0,0.0,0.8379,0.0,0.0,0.0,0.0,0.0,0.0,0.0,0.0,0.0,0.0,0.0,0.0,0.0,0.0,0.0,0.0,0.0,0.0,0.0,1.1973,1.1595,1.1396,1.1529,1.074,1.0272,1.0213,1.0244,1.0919,1.2402,1.2027,1.2727,1.4546,1.4942,1.5646,1.652,1.6346,1.6206,1.6079,1.5905,1.5784,1.5784,1.5784,1.5905,1.6046,1.6339,1.6633,1.6927,1.7273,1.7494,1.7582,1.7582,1.7582,1.7582,1.7582,1.7582,1.7582,1.7582,1.7802,1.8015,1.8142,1.8657,1.9152,1.9325,1.9424,1.9424,1.9424,1.9424,1.9424,1.9424,1.9424,1.9424,1.9424,1.9424,1.9424,1.9424,1.9466,1.9606,1.9773,1.9907,2.0087,2.0381,2.0568,2.0722,2.0842,2.1009,2.1109,2.1109,2.1109,2.1109,2.1109,2.1109,2.1109,2.1109,2.1109,2.1418,2.216,2.3084,2.4725,2.7013,2.7013,2.7871,2.9471,3.045,3.0889,0.0,0.0,0.0,0.0,0.0,0.0,0.825,0.909,0.0,0.0,0.0,0.0,0.0,0.0,0.0,0.0,0.0,0.0,0.0,0.0,0.0,0.0,0.0,0.0,0.0,1.3229,1.3293,1.3534,1.3111,1.2152,1.0507,1.0412,1.0503,1.0632,1.174,1.2506,1.2786,1.3635,1.4287,1.466,1.5744,1.6226,1.6226,1.6226,1.6079,1.5784,1.5784,1.5784,1.5784,1.5784,1.6005,1.6348,1.6593,1.6887,1.7239,1.7475,1.7582,1.7582,1.7582,1.7582,1.7582,1.7582,1.7582,1.7589,1.7622,1.7849,1.8109,1.8497,1.8965,1.9424,1.9424,1.9424,1.9424,1.9424,1.9424,1.9424,1.9424,1.9424,1.9424,1.9424,1.9424,1.9437,1.947,1.9633,1.982,1.9887,2.012,2.0388,2.0688,2.0722,2.0822,2.1082,2.1109,2.1109,2.1109,2.1109,2.1109,2.1109,2.1109,2.1109,2.1109,2.1292,2.2097,2.3574,2.3938,2.5513,2.8417,2.8417,2.9285,3.0889,3.0889,3.0889,0.6846,0.6991,0.7102,0.0,0.0,0.0,0.0,0.9987,0.0,0.0,0.0,0.0,0.0,0.0,0.0,0.0,0.0,0.0,0.0,0.0,0.0,0.0,0.0,0.0,0.0,1.2891,1.3498,1.486,1.4619,1.4013,1.3173,1.229,1.2232,1.3175,1.2561,1.3193,1.5114,1.4322,1.4467,1.5553,1.5795,1.5912,1.5912,1.5912,1.5838,1.5784,1.5784,1.5784,1.5784,1.5784,1.6005,1.6348,1.6593,1.6887,1.7239,1.7475,1.7582,1.7582,1.7582,1.7582,1.7582,1.7582,1.7582,1.7629,1.7883,1.817,1.8517,1.9045,1.9336,1.9424,1.9424,1.9424,1.9424,1.9424,1.9424,1.9424,1.9424,1.9424,1.9424,1.9424,1.9424,1.9446,1.9673,1.9766,1.996,2.0434,2.0555,2.0695,2.0989,2.1029,2.1049,2.1102,2.1109,2.1109,2.1109,2.1109,2.1109,2.1109,2.1109,2.1109,2.1109,2.2404,2.327,2.3574,2.6114,2.7751,2.8417,2.8417,2.9285,3.0889,3.0889,3.0889,0.6814,0.693,0.7228,0.7841,0.0,0.0,0.0,0.0,0.0,0.0,0.0,0.0,0.0,0.0,0.0,0.0,0.0,0.0,0.0,0.0,0.0,0.0,0.0,0.0,0.0,1.5171,1.5439,1.5994,1.526,1.4518,1.395,1.3359,1.3327,1.3878,1.3953,1.4661,1.6052,1.5406,1.5477,1.6266,1.6119,1.6052,1.6046,1.5899,1.5784,1.5784,1.5784,1.5784,1.5791,1.5985,1.6226,1.6506,1.6647,1.6974,1.7434,1.7528,1.7582,1.7582,1.7582,1.7582,1.7582,1.7582,1.7582,1.7642,1.7902,1.8357,1.8798,1.9245,1.9424,1.9424,1.9424,1.9424,1.9424,1.9424,1.9424,1.9424,1.9424,1.9424,1.9424,1.9424,1.9486,1.9633,1.9773,2.0047,2.0334,2.0635,2.0802,2.0942,2.1089,2.1109,2.1109,2.1109,2.1109,2.1109,2.1109,2.1109,2.1109,2.1109,2.1109,2.1481,2.2278,2.3146,2.4363,2.594,2.8367,2.9648,2.9648,2.9648,3.0089,3.0889,3.0889,3.0889,0.0,0.0,0.0,0.0,0.0,1.0704,0.0,0.0,0.0,0.0,0.0,0.0,0.0,0.0,0.0,0.0,0.0,0.0,0.0,0.0,0.0,0.0,0.0,0.0,0.0,1.7549,1.7361,1.6834,1.555,1.4692,1.437,1.4052,1.4022,1.4268,1.5242,1.5972,1.6321,1.6321,1.6393,1.662,1.6386,1.6295,1.6179,1.5939,1.5784,1.5784,1.5784,1.5865,1.5932,1.6172,1.648,1.6794,1.6794,1.7114,1.7582,1.7582,1.7582,1.7582,1.7582,1.7582,1.7582,1.7582,1.7662,1.7816,1.8069,1.8535,1.9058,1.9299,1.9424,1.9424,1.9424,1.9424,1.9424,1.9424,1.9424,1.9424,1.9424,1.9424,1.9424,1.9424,1.9646,1.9887,1.9887,2.0327,2.0695,2.0755,2.0955,2.1109,2.1109,2.1109,2.1109,2.1109,2.1109,2.1109,2.1109,2.1109,2.1235,2.1544,2.1601,2.2341,2.3993,2.4363,2.5879,2.8792,3.0206,3.0889,3.0889,3.0889,3.0889,3.0889,3.0889,3.0889,0.0,0.0,0.0,0.0,0.9753,0.0,0.0,0.0,0.0,0.0,0.0,0.0,0.0,0.0,0.0,0.0,0.0,0.0,0.0,0.0,0.0,0.0,0.0,0.0,0.0,0.0,1.7448,1.7172,1.5707,1.5182,1.5989,1.469,1.4411,1.554,1.573,1.5972,1.6321,1.6321,1.6342,1.6375,1.6286,1.6132,1.5879,1.5798,1.5784,1.5784,1.5784,1.5979,1.6274,1.6259,1.665,1.7146,1.7146,1.7347,1.7582,1.7582,1.7582,1.7582,1.7582,1.7582,1.7582,1.7582,1.7949,1.8444,1.8738,1.9052,1.9325,1.9417,1.9424,1.9424,1.9424,1.9424,1.9424,1.9424,1.9424,1.9424,1.9424,1.9424,1.9424,1.9424,1.9813,2.012,2.012,2.0461,2.0762,2.1022,2.1089,2.1109,2.1109,2.1109,2.1109,2.1109,2.1109,2.1109,2.1109,2.1109,2.1727,2.3208,2.3325,2.4054,2.568,2.7082,2.8733,3.0577,3.082,3.0889,3.0889,3.0889,3.0889,3.0889,3.0889,3.0889,0.0,0.0,0.0,0.0,0.0,0.0,0.0,0.0,1.4269,0.0,0.0,0.0,0.0,0.0,0.0,0.0,0.0,0.0,0.0,0.0,0.0,0.0,0.0,0.0,0.0,0.0,0.0,0.0,0.0,1.6309,1.654,1.5901,1.578,1.629,1.6339,1.648,1.6831,1.6831,1.6831,1.6831,1.6607,1.6366,1.6079,1.5905,1.5784,1.5784,1.5784,1.5999,1.6286,1.6453,1.6824,1.7219,1.7387,1.7475,1.7582,1.7582,1.7582,1.7582,1.7582,1.7582,1.7609,1.7796,1.8257,1.8764,1.8885,1.9132,1.9424,1.9424,1.9424,1.9424,1.9424,1.9424,1.9424,1.9424,1.9424,1.9424,1.9424,1.9499,1.9619,1.9619,2.0094,2.0494,2.0494,2.0735,2.0969,2.1089,2.1109,2.1109,2.1109,2.1109,2.1109,2.1109,2.1109,2.1109,2.1109,2.1971,2.2834,2.3574,2.533,2.672,2.7383,2.8979,3.0206,3.0889,3.0889,3.0889,3.0889,3.0889,3.0889,3.0889,3.0889,3.0889,0.697,0.0,0.0,0.0,0.0,0.0,0.0,0.0,0.0,0.0,0.0,0.0,0.0,0.0,0.0,0.0,0.0,0.0,0.0,0.0,0.0,0.0,0.0,0.0,0.0,0.0,0.0,0.0,0.0,0.0,1.6834,1.6747,1.6707,1.6707,1.6707,1.6847,1.7199,1.7119,1.7079,1.7072,1.6727,1.6433,1.6146,1.5925,1.5784,1.5832,1.5912,1.6119,1.6413,1.6707,1.7001,1.734,1.7502,1.7582,1.7582,1.7582,1.7582,1.7582,1.7582,1.7642,1.7769,1.8109,1.8522,1.8938,1.9018,1.9199,1.9424,1.9424,1.9424,1.9424,1.9424,1.9424,1.9424,1.9424,1.9491,1.9486,1.9486,1.9713,1.992,1.992,2.0327,2.0675,2.0675,2.0915,2.1109,2.1109,2.1109,2.1109,2.1109,2.1109,2.1109,2.1109,2.1481,2.179,2.179,2.3318,2.4479,2.4909,2.752,2.9098,2.9098,3.0265,3.0889,3.0889,3.0889,3.0889,3.0889,3.0889,3.0889,3.0889,3.0889,3.0889,0.0,0.0,0.0,1.0057,0.0,0.0,0.0,0.0,1.4502,0.0,0.0,0.0,0.0,0.0,0.0,0.0,0.0,0.0,0.0,0.0,0.0,0.0,0.0,0.0,0.0,0.0,0.0,0.0,0.0,0.0,1.7172,1.686,1.6707,1.6707,1.6707,1.6847,1.7199,1.6867,1.672,1.6714,1.6426,1.6132,1.5798,1.5784,1.5784,1.5798,1.6132,1.6426,1.6714,1.7065,1.736,1.7569,1.7582,1.7582,1.7582,1.7582,1.7582,1.7582,1.7582,1.7776,1.8075,1.8711,1.8911,1.8978,1.9265,1.9417,1.9424,1.9424,1.9424,1.9424,1.9424,1.9424,1.9424,1.9424,1.9579,1.9786,1.9786,2.0013,2.0221,2.0221,2.0468,2.0675,2.0675,2.0915,2.1109,2.1109,2.1109,2.1109,2.1109,2.1109,2.1109,2.1109,2.2529,2.3512,2.3512,2.5016,2.6591,2.8179,2.9844,3.083,3.083,3.0889,3.0889,3.0889,3.0889,3.0889,3.0889,3.0889,3.0889,3.0889,3.0889,3.0889,0.0,0.0,0.7801,1.0328,0.0,0.0,0.0,0.0,0.0,0.0,0.0,0.0,0.0,0.0,0.0,0.0,0.0,0.0,0.0,0.0,0.0,0.0,0.0,0.0,0.0,0.0,0.0,0.0,1.6653,0.0,0.0,1.7105,1.7088,1.7281,1.7288,1.7335,1.7435,1.7199,1.6901,1.67,1.6413,1.6119,1.5784,1.5784,1.5939,1.6126,1.6226,1.6603,1.7058,1.7159,1.7373,1.7582,1.7582,1.7582,1.7582,1.7582,1.7582,1.7609,1.7816,1.809,1.8404,1.8798,1.9058,1.9232,1.9397,1.9424,1.9424,1.9424,1.9424,1.9424,1.9424,1.9424,1.9412,1.9606,1.9726,1.9853,2.0047,2.0321,2.0528,2.0528,2.0762,2.0962,2.0962,2.1042,2.1109,2.1109,2.1109,2.1475,2.2584,2.2772,2.3131,2.4217,2.4832,2.52,2.52,2.6651,2.8298,2.9962,3.0587,3.0889,3.0889,3.0889,3.0889,3.0889,3.0889,3.0889,3.0889,3.0889,3.0889,3.0889,3.0889,3.0889,0.7095,0.7136,0.0,0.9797,1.0206,0.0,1.3311,0.0,0.0,0.0,0.0,0.0,0.0,0.0,0.0,0.0,0.0,0.0,0.0,0.0,0.0,0.0,0.0,0.0,0.0,0.0,1.6359,1.6279,1.6547,0.0,0.0,0.0,1.7393,1.7481,1.7528,1.7582,1.7582,1.7239,1.6894,1.67,1.6306,1.6012,1.5784,1.5939,1.6092,1.6335,1.6543,1.6851,1.7206,1.7313,1.7467,1.7582,1.7582,1.7582,1.7582,1.7582,1.7649,1.7796,1.8217,1.8484,1.8691,1.8985,1.9212,1.9424,1.9424,1.9424,1.9424,1.9424,1.9424,1.9424,1.9424,1.9446,1.9573,1.976,1.996,2.0167,2.0347,2.0621,2.0828,2.0828,2.0982,2.1109,2.1109,2.1109,2.1109,2.1109,2.1109,2.1481,2.2591,2.3201,2.3993,2.5016,2.6167,2.7073,2.7692,2.8673,2.9776,3.083,3.0889,3.0889,3.0889,3.0889,3.0889,3.0889,3.0889,3.0889,3.0889,3.0889,3.0889,3.0889,3.0889,3.0889]},{"header":{"parameterUnit":"m.s-1","parameterCategory":1,"la1":30.6,"la2":29.2853,"lo1":-89.7004,"lo2":-87.6739,"dy":0.0162,"dx":0.0183,"nx":112,"ny":82,"refTime":"2026-03-14T00:00:00:Z","depth":0,"parameterNumber":3,"parameterNumberName":"V-component_of_WINDS"},"data":[0.0,0.0,0.0,0.0,0.0,0.0,0.0,0.0,0.0,0.0,0.0,0.0,0.0,0.0,0.0,0.0,0.0,0.0,0.0,0.0,0.0,0.0,0.0,0.0,0.0,0.0,0.0,0.0,0.0,0.0,0.0,0.0,0.0,0.0,0.0,0.0,0.0,0.0,0.0,0.0,0.0,0.0,0.0,0.0,0.0,0.0,0.0,0.0,0.0,0.0,0.0,0.0,0.0,0.0,0.0,0.0,0.0,0.0,0.0,0.0,0.0,0.0,0.0,0.0,0.0,0.0,0.0,0.0,0.0,0.0,0.0,0.0,0.0,0.0,0.0,0.0,0.0,0.0,0.0,0.0,0.0,0.0,0.0,0.0,0.0,0.0,0.0,0.0,0.0,0.0,0.0,2.2268,2.0804,1.9969,2.0203,2.0117,2.0332,2.1027,0.0,0.0,0.0,0.0,0.0,0.0,0.0,0.0,0.0,0.0,0.0,0.0,0.0,0.0,0.0,0.0,0.0,0.0,0.0,0.0,0.0,0.0,0.0,0.0,0.0,0.0,0.0,0.0,0.0,0.0,0.0,0.0,0.0,0.0,0.0,0.0,0.0,0.0,0.0,0.0,0.0,0.0,0.0,0.0,0.0,0.0,0.0,0.0,0.0,0.0,0.0,0.0,0.0,0.0,0.0,0.0,0.0,0.0,0.0,0.0,0.0,0.0,0.0,0.0,0.0,0.0,0.0,0.0,0.0,0.0,0.0,0.0,0.0,0.0,0.0,0.0,0.0,0.0,0.0,0.0,0.0,0.0,0.0,0.0,0.0,0.0,0.0,0.0,0.0,0.0,0.0,0.0,0.0,0.0,0.0,0.0,0.0,0.0,0.0,0.0,0.0,0.0,0.0,0.0,2.2603,2.1717,2.0777,2.0517,2.121,2.0653,2.0303,2.0433,0.0,0.0,0.0,0.0,0.0,0.0,0.0,0.0,0.0,0.0,0.0,0.0,0.0,0.0,0.0,0.0,0.0,0.0,0.0,0.0,0.0,0.0,0.0,0.0,0.0,0.0,0.0,0.0,0.0,0.0,0.0,0.0,0.0,0.0,0.0,0.0,0.0,0.0,0.0,0.0,0.0,0.0,0.0,0.0,0.0,0.0,0.0,0.0,0.0,0.0,0.0,0.0,0.0,0.0,0.0,0.0,0.0,0.0,0.0,0.0,0.0,0.0,0.0,0.0,0.0,0.0,0.0,0.0,0.0,0.0,0.0,0.0,0.0,0.0,0.0,0.0,0.0,0.0,0.0,0.0,0.0,0.0,0.0,0.0,0.0,0.0,0.0,0.0,0.0,0.0,0.0,0.0,0.0,0.0,0.0,0.0,0.0,0.0,0.0,0.0,0.0,0.0,0.0,2.3971,2.3163,2.2293,2.1446,2.1293,2.212,2.1023,2.0692,2.16,2.2374,0.0,0.0,0.0,0.0,0.0,0.0,0.0,0.0,0.0,0.0,0.0,0.0,0.0,0.0,0.0,0.0,0.0,0.0,0.0,0.0,0.0,0.0,0.0,0.0,0.0,0.0,0.0,0.0,0.0,0.0,0.0,0.0,0.0,0.0,0.0,0.0,0.0,0.0,0.0,0.0,0.0,0.0,0.0,0.0,0.0,0.0,0.0,0.0,0.0,0.0,0.0,0.0,0.0,0.0,0.0,0.0,0.0,0.0,0.0,0.0,0.0,0.0,0.0,0.0,0.0,0.0,0.0,0.0,0.0,0.0,0.0,0.0,0.0,0.0,0.0,0.0,0.0,0.0,0.0,0.0,0.0,0.0,0.0,0.0,0.0,0.0,0.0,0.0,0.0,0.0,0.0,0.0,0.0,0.0,0.0,0.0,0.0,0.0,0.0,0.0,0.0,0.0,2.411,2.3841,2.3182,2.2331,2.2171,2.3051,2.1779,2.1452,2.2743,2.3041,0.0,0.0,0.0,0.0,0.0,0.0,0.0,0.0,0.0,0.0,0.0,0.0,0.0,0.0,0.0,0.0,0.0,0.0,0.0,0.0,0.0,0.0,0.0,0.0,0.0,0.0,0.0,0.0,0.0,0.0,0.0,0.0,0.0,0.0,0.0,0.0,0.0,0.0,0.0,0.0,0.0,0.0,0.0,0.0,0.0,0.0,0.0,0.0,0.0,0.0,0.0,0.0,0.0,0.0,0.0,0.0,0.0,0.0,0.0,0.0,0.0,0.0,0.0,0.0,0.0,0.0,0.0,0.0,0.0,0.0,0.0,0.0,0.0,0.0,0.0,0.0,0.0,0.0,0.0,0.0,0.0,0.0,0.0,0.0,0.0,0.0,0.0,0.0,0.0,0.0,0.0,0.0,0.0,0.0,0.0,0.0,0.0,0.0,0.0,0.0,0.0,0.0,2.411,2.4072,2.4014,2.322,2.3094,2.4024,2.324,2.2779,2.2892,2.3703,0.0,0.0,0.0,0.0,0.0,0.0,0.0,0.0,0.0,0.0,0.0,0.0,0.0,0.0,0.0,0.0,0.0,0.0,0.0,0.0,0.0,0.0,0.0,0.0,0.0,0.0,0.0,0.0,0.0,0.0,0.0,0.0,0.0,0.0,0.0,0.0,0.0,0.0,0.0,0.0,0.0,0.0,0.0,0.0,0.0,0.0,0.0,0.0,0.0,0.0,0.0,0.0,0.0,0.0,0.0,0.0,0.0,0.0,0.0,0.0,0.0,0.0,0.0,0.0,0.0,0.0,0.0,0.0,0.0,0.0,0.0,0.0,0.0,0.0,0.0,0.0,0.0,0.0,0.0,0.0,0.0,0.0,0.0,0.0,0.0,0.0,0.0,0.0,0.0,0.0,0.0,0.0,0.0,0.0,0.0,0.0,0.0,0.0,0.0,0.0,0.0,0.0,2.4885,2.4883,0.0,2.4176,2.4064,2.4886,2.3722,2.3381,2.4406,0.0,0.0,0.0,0.0,0.0,0.0,0.0,0.0,0.0,0.0,0.0,0.0,0.0,0.0,0.0,0.0,0.0,0.0,0.0,0.0,0.0,0.0,0.0,0.0,0.0,0.0,0.0,0.0,0.0,0.0,0.0,0.0,0.0,0.0,0.0,0.0,0.0,0.0,0.0,0.0,0.0,0.0,0.0,0.0,0.0,0.0,0.0,0.0,0.0,0.0,0.0,0.0,0.0,0.0,0.0,0.0,0.0,0.0,0.0,0.0,0.0,0.0,0.0,0.0,0.0,0.0,0.0,0.0,0.0,0.0,0.0,0.0,0.0,0.0,0.0,0.0,0.0,0.0,0.0,0.0,0.0,0.0,0.0,0.0,0.0,0.0,0.0,0.0,0.0,0.0,0.0,0.0,0.0,0.0,0.0,0.0,0.0,0.0,0.0,0.0,0.0,0.0,2.5308,2.5359,2.5283,0.0,2.4539,2.437,2.4644,2.3666,2.3608,2.4924,0.0,0.0,0.0,0.0,0.0,0.0,0.0,0.0,0.0,0.0,0.0,0.0,0.0,0.0,0.0,0.0,0.0,0.0,0.0,0.0,0.0,0.0,0.0,0.0,0.0,0.0,0.0,0.0,0.0,0.0,0.0,0.0,0.0,0.0,0.0,0.0,0.0,0.0,0.0,0.0,0.0,0.0,0.0,0.0,0.0,0.0,0.0,0.0,0.0,0.0,0.0,0.0,0.0,0.0,0.0,0.0,0.0,0.0,0.0,0.0,0.0,0.0,0.0,0.0,0.0,0.0,0.0,0.0,0.0,0.0,0.0,0.0,0.0,0.0,0.0,0.0,0.0,0.0,0.0,0.0,0.0,0.0,0.0,0.0,0.0,0.0,0.0,0.0,0.0,0.0,0.0,0.0,0.0,0.0,0.0,0.0,0.0,0.0,0.0,0.0,0.0,0.0,2.5288,2.5335,2.5031,2.4172,2.4155,2.3891,2.3154,2.31,2.3415,0.0,0.0,0.0,0.0,0.0,0.0,0.0,0.0,0.0,0.0,0.0,0.0,0.0,0.0,0.0,0.0,0.0,0.0,0.0,0.0,0.0,0.0,0.0,0.0,0.0,0.0,0.0,0.0,0.0,0.0,0.0,0.0,0.0,0.0,0.0,0.0,0.0,0.0,0.0,0.0,0.0,0.0,0.0,0.0,0.0,0.0,0.0,0.0,0.0,0.0,0.0,0.0,0.0,0.0,0.0,0.0,0.0,0.0,0.0,0.0,0.0,0.0,0.0,0.0,0.0,0.0,0.0,0.0,0.0,0.0,0.0,0.0,0.0,0.0,0.0,0.0,0.0,0.0,0.0,0.0,0.0,0.0,0.0,0.0,0.0,0.0,0.0,0.0,0.0,0.0,0.0,0.0,0.0,0.0,0.0,0.0,0.0,0.0,0.0,0.0,0.0,0.0,0.0,2.4455,2.4064,2.3668,2.3365,2.3434,2.3386,2.3119,2.3136,2.3487,2.4219,0.0,0.0,0.0,0.0,0.0,0.0,0.0,0.0,0.0,0.0,0.0,0.0,0.0,0.0,0.0,0.0,0.0,0.0,0.0,0.0,0.0,0.0,0.0,0.0,0.0,0.0,0.0,0.0,0.0,0.0,0.0,0.0,0.0,0.0,0.0,0.0,0.0,0.0,0.0,0.0,0.0,0.0,0.0,0.0,0.0,0.0,0.0,0.0,0.0,0.0,0.0,0.0,0.0,0.0,0.0,0.0,0.0,0.0,0.0,0.0,0.0,0.0,0.0,0.0,0.0,0.0,0.0,0.0,0.0,0.0,0.0,0.0,0.0,0.0,0.0,0.0,0.0,0.0,0.0,0.0,0.0,0.0,0.0,0.0,0.0,0.0,0.0,0.0,0.0,0.0,0.0,0.0,0.0,0.0,0.0,0.0,0.0,0.0,0.0,0.0,0.0,0.0,2.4091,2.3508,2.2953,2.2551,2.2625,2.2519,2.2139,2.2147,2.2498,2.3258,0.0,0.0,0.0,0.0,0.0,0.0,0.0,0.0,0.0,0.0,0.0,0.0,0.0,0.0,0.0,0.0,0.0,0.0,0.0,0.0,0.0,0.0,0.0,0.0,0.0,0.0,0.0,0.0,0.0,0.0,0.0,0.0,0.0,0.0,0.0,0.0,0.0,0.0,0.0,0.0,0.0,0.0,0.0,0.0,0.0,0.0,0.0,0.0,0.0,0.0,0.0,0.0,0.0,0.0,0.0,0.0,0.0,0.0,0.0,0.0,0.0,0.0,0.0,0.0,0.0,0.0,0.0,0.0,0.0,0.0,0.0,0.0,0.0,0.0,0.0,0.0,0.0,0.0,0.0,0.0,0.0,0.0,0.0,0.0,0.0,0.0,0.0,0.0,0.0,0.0,0.0,0.0,0.0,0.0,0.0,0.0,0.0,0.0,0.0,0.0,0.0,0.0,2.4119,2.3461,2.2693,2.1891,2.1793,2.1465,2.0664,2.0605,2.0955,2.1757,0.0,0.0,0.0,0.0,0.0,0.0,0.0,0.0,0.0,0.0,0.0,0.0,0.0,0.0,0.0,0.0,0.0,0.0,0.0,0.0,0.0,0.0,0.0,0.0,0.0,0.0,0.0,0.0,0.0,0.0,0.0,0.0,0.0,0.0,0.0,0.0,0.0,0.0,0.0,0.0,0.0,0.0,0.0,0.0,0.0,0.0,0.0,0.0,0.0,0.0,0.0,0.0,0.0,0.0,0.0,0.0,0.0,0.0,0.0,0.0,2.4251,0.0,0.0,0.0,0.0,0.0,0.0,0.0,0.0,0.0,0.0,0.0,0.0,0.0,0.0,0.0,0.0,0.0,0.0,0.0,0.0,0.0,0.0,0.0,0.0,0.0,0.0,0.0,0.0,0.0,0.0,0.0,0.0,0.0,0.0,0.0,0.0,0.0,0.0,0.0,0.0,0.0,2.4266,2.3034,2.2088,2.1893,2.1289,2.0801,2.0625,2.0605,2.0976,2.1815,0.0,0.0,0.0,0.0,0.0,0.0,0.0,0.0,0.0,0.0,0.0,0.0,0.0,0.0,0.0,0.0,0.0,0.0,0.0,0.0,0.0,0.0,0.0,0.0,0.0,0.0,0.0,0.0,0.0,0.0,0.0,0.0,0.0,0.0,0.0,0.0,0.0,0.0,0.0,0.0,0.0,0.0,0.0,0.0,0.0,0.0,0.0,0.0,0.0,0.0,0.0,0.0,0.0,0.0,0.0,0.0,0.0,0.0,0.0,0.0,0.0,2.4843,0.0,0.0,0.0,0.0,0.0,0.0,0.0,0.0,0.0,0.0,0.0,0.0,0.0,0.0,0.0,0.0,0.0,0.0,0.0,0.0,0.0,0.0,0.0,0.0,0.0,0.0,0.0,0.0,0.0,0.0,0.0,0.0,0.0,0.0,0.0,0.0,0.0,0.0,0.0,0.0,2.4292,2.2906,2.1894,2.1894,2.1113,2.0605,2.0605,2.0605,2.0781,2.125,2.168,0.0,0.0,0.0,0.0,0.0,0.0,0.0,0.0,0.0,0.0,0.0,0.0,0.0,0.0,0.0,0.0,0.0,0.0,0.0,0.0,0.0,0.0,0.0,0.0,0.0,0.0,0.0,0.0,0.0,0.0,0.0,0.0,0.0,0.0,0.0,0.0,0.0,0.0,0.0,0.0,0.0,0.0,0.0,0.0,0.0,0.0,0.0,0.0,0.0,0.0,0.0,0.0,0.0,2.7188,2.725,2.6627,2.7303,2.7392,2.7006,2.6783,2.6537,2.6339,0.0,0.0,0.0,0.0,0.0,0.0,0.0,0.0,0.0,0.0,0.0,0.0,0.0,0.0,0.0,0.0,0.0,0.0,0.0,0.0,0.0,0.0,0.0,0.0,0.0,2.6329,2.5727,0.0,0.0,0.0,0.0,0.0,0.0,0.0,0.0,0.0,0.0,0.0,0.0,2.4534,2.3259,2.2344,2.2344,2.1562,2.1055,2.1055,2.1035,2.1035,2.1055,2.1582,2.1953,0.0,0.0,0.0,0.0,0.0,0.0,0.0,0.0,0.0,0.0,0.0,0.0,0.0,0.0,0.0,0.0,0.0,0.0,0.0,0.0,0.0,0.0,0.0,0.0,0.0,0.0,0.0,0.0,0.0,0.0,0.0,0.0,2.4393,2.519,0.0,0.0,0.0,0.0,0.0,0.0,0.0,0.0,0.0,0.0,0.0,0.0,0.0,2.7083,2.7822,2.8133,2.8559,2.9163,3.0274,3.0734,3.0643,3.0753,3.0747,3.0717,3.0905,0.0,2.7187,2.9016,0.0,0.0,0.0,0.0,0.0,0.0,0.0,0.0,0.0,0.0,0.0,0.0,0.0,0.0,0.0,0.0,0.0,0.0,0.0,0.0,0.0,0.0,2.7706,2.7871,2.7305,2.6707,0.0,2.6069,2.5508,2.5501,0.0,0.0,0.0,0.0,0.0,0.0,0.0,0.0,2.5527,2.4668,2.4062,2.4062,2.334,2.2852,2.2852,2.2793,2.2793,2.2852,2.2246,2.2207,2.291,2.2266,0.0,0.0,0.0,0.0,0.0,0.0,0.0,0.0,0.0,0.0,0.0,0.0,0.0,0.0,0.0,0.0,0.0,0.0,0.0,0.0,0.0,0.0,0.0,0.0,0.0,0.0,0.0,0.0,0.0,2.527,2.593,2.6437,2.6242,2.6219,0.0,0.0,0.0,0.0,0.0,0.0,0.0,0.0,0.0,2.8837,2.8573,2.8909,2.9906,3.0066,3.0312,3.0653,3.1151,3.1476,3.1628,3.1628,3.1701,3.1875,3.2449,3.1676,3.0087,3.0955,3.1009,3.0504,0.0,0.0,0.0,0.0,2.9016,2.9041,2.887,2.884,0.0,0.0,0.0,0.0,0.0,0.0,0.0,0.0,0.0,0.0,0.0,0.0,0.0,2.8755,2.8261,2.7691,2.7691,2.6982,2.6188,0.0,2.5594,2.5602,2.5561,0.0,0.0,0.0,0.0,0.0,2.5703,2.4941,2.4394,2.4394,2.3652,2.3164,2.3203,2.3144,2.3105,2.3144,2.2793,2.2754,2.3144,2.3242,2.3418,0.0,0.0,0.0,0.0,0.0,0.0,0.0,0.0,0.0,0.0,0.0,0.0,0.0,0.0,0.0,0.0,0.0,0.0,0.0,0.0,0.0,0.0,0.0,0.0,0.0,0.0,0.0,0.0,2.7018,2.7505,2.7634,2.7705,2.7831,0.0,0.0,0.0,0.0,0.0,0.0,2.899,2.9047,2.9446,3.0247,3.0302,3.0845,3.189,3.192,3.2019,3.2242,3.2242,3.2351,3.2534,3.2534,3.2659,3.2874,3.3554,3.3506,3.2928,3.2637,3.2392,3.2146,3.1542,3.1316,3.124,3.066,3.0476,3.0533,3.0696,3.0774,3.0719,3.0226,0.0,2.9354,2.8756,0.0,0.0,0.0,0.0,2.8828,2.9552,2.9289,2.9002,2.969,2.9234,2.8633,2.8633,2.7949,2.7128,0.0,2.5974,2.5742,2.5927,0.0,0.0,0.0,0.0,2.5703,2.5703,2.5137,2.4727,2.4727,2.4141,2.3789,2.3848,2.3789,2.3867,2.4082,2.3887,2.3789,2.3848,2.4199,2.4082,2.3457,0.0,0.0,0.0,0.0,0.0,0.0,0.0,0.0,0.0,0.0,0.0,0.0,0.0,0.0,0.0,0.0,0.0,0.0,0.0,0.0,0.0,0.0,0.0,0.0,0.0,0.0,0.0,0.0,0.0,2.8943,2.9669,0.0,0.0,0.0,0.0,3.0277,3.1335,3.1977,3.1977,3.1987,3.2006,3.2072,3.2072,3.2468,3.3298,3.3298,3.3722,3.4521,3.4521,3.4531,3.4542,3.4542,3.4552,3.4601,3.4896,3.4992,3.4861,3.379,3.2893,3.2203,3.2165,3.2146,3.2173,3.2379,3.247,3.2493,3.2691,3.2763,3.275,3.2718,3.1681,3.0417,3.0378,2.9888,0.0,0.0,3.0416,3.0481,3.0602,3.0596,3.0626,3.08,3.0176,2.9531,2.9531,2.8848,2.8223,0.0,2.6836,2.5957,2.6797,0.0,2.5703,2.5703,2.5703,2.5703,2.5703,2.5664,2.5625,2.5625,2.5605,2.5566,2.5566,2.5566,2.5918,2.6758,2.6035,2.5566,2.5566,2.4824,2.4375,2.4336,2.4375,0.0,0.0,0.0,0.0,0.0,0.0,0.0,0.0,0.0,0.0,0.0,0.0,0.0,0.0,0.0,0.0,0.0,0.0,0.0,0.0,0.0,0.0,0.0,0.0,0.0,0.0,0.0,0.0,3.029,3.1044,0.0,3.1032,3.1336,3.1563,3.1563,3.1968,3.2203,3.2203,3.2685,3.2968,3.2968,3.3516,3.4205,3.5007,3.5007,3.5159,3.5488,3.6027,3.6119,3.5751,3.6312,3.666,3.6818,3.691,3.6654,3.6109,3.5683,3.5047,3.4263,3.3716,3.3486,3.3436,3.2957,3.3151,3.3568,3.3064,3.3311,3.3715,3.3251,3.2703,3.2246,3.2246,3.2056,3.1791,3.1534,3.1478,3.1406,3.0949,3.0836,3.0838,3.0898,3.0664,3.0449,3.0449,2.9746,2.9297,2.9863,2.8574,2.7461,2.7773,2.7578,2.7363,2.7363,2.7363,2.7363,2.7363,2.7363,2.7363,2.7363,2.7363,2.7363,2.7363,2.7363,2.7519,2.7812,2.7559,2.7363,2.7363,2.707,2.6641,2.6074,2.6074,2.5801,0.0,0.0,0.0,0.0,0.0,0.0,0.0,0.0,0.0,0.0,0.0,0.0,0.0,0.0,0.0,0.0,0.0,0.0,0.0,0.0,0.0,0.0,0.0,0.0,0.0,0.0,3.1801,3.1457,3.2279,3.2727,3.2365,3.2653,3.2866,3.2866,3.3151,3.3437,3.3712,3.4208,3.4646,3.4931,3.5503,3.6074,3.6596,3.6615,3.6615,3.6615,3.7195,3.725,3.6892,3.7466,3.7835,3.8007,3.8007,3.768,3.7123,3.6827,3.6385,3.5827,3.4968,3.4641,3.4564,3.3987,3.4161,3.4588,3.4042,3.4255,3.4652,3.3916,3.367,3.3612,3.3322,3.3258,3.3158,3.2588,3.2442,3.2355,3.1875,3.1543,3.1348,3.1348,3.1113,3.0898,3.0898,3.0449,3.0215,3.0781,2.9492,2.8398,2.8691,2.8475,2.8279,2.8301,2.8257,2.8231,2.8257,2.8253,2.8227,2.8227,2.8227,2.8227,2.8227,2.8255,2.8373,2.8618,2.8685,2.8685,2.8638,2.8685,2.8297,2.7418,2.7148,2.6855,2.6582,0.0,0.0,0.0,0.0,0.0,0.0,0.0,0.0,0.0,0.0,0.0,0.0,0.0,0.0,0.0,0.0,0.0,0.0,0.0,0.0,0.0,0.0,0.0,3.1087,3.2632,3.3421,3.239,3.3425,3.3831,3.2795,3.363,3.4244,3.4244,3.5045,3.5885,3.6654,3.6731,3.7142,3.7969,3.8007,3.8007,3.8046,3.8046,3.8046,3.8046,3.8065,3.8065,3.8046,3.8065,3.8084,3.8084,3.8084,3.8065,3.7988,3.7142,3.6776,3.6668,3.5827,3.55,3.5507,3.5507,3.554,3.5616,3.5675,3.571,3.5587,3.4872,3.4633,3.4498,3.3646,3.3431,3.3456,3.3363,3.3392,3.3437,3.3418,3.2812,3.2246,3.2246,3.1582,3.0976,3.0976,3.0957,3.0937,3.0937,2.9551,2.8633,2.9492,2.8898,2.8303,2.8378,2.8259,0.0,2.8264,2.8221,2.817,2.817,2.817,2.817,2.817,2.824,2.8581,2.9296,2.9455,2.948,2.9352,2.9474,2.9149,2.8288,2.7476,2.748,2.834,0.0,0.0,0.0,0.0,0.0,0.0,0.0,0.0,0.0,0.0,0.0,0.0,0.0,0.0,0.0,0.0,0.0,0.0,0.0,0.0,0.0,0.0,3.2882,3.2254,3.3276,3.3983,3.3691,3.4529,3.5025,3.4726,3.4979,3.5135,3.5135,3.5904,3.6462,3.6692,3.7296,3.7757,3.7988,3.8007,3.8296,3.8938,3.8931,3.8931,3.8957,3.9534,3.9515,3.895,3.9554,3.9804,3.9804,3.9804,3.9477,3.8911,3.8681,3.8265,3.764,3.61,3.5522,3.5566,3.5566,3.5602,3.5698,3.5799,3.5843,3.5812,3.5675,3.5622,3.5564,3.533,3.5273,3.5156,3.4491,3.4335,3.4199,3.3555,3.3242,3.3066,3.3066,3.2891,3.2715,3.2715,3.2246,3.1836,3.1836,3.0875,3.0147,3.0488,3.0331,3.0133,3.0045,3.0007,0.0,2.9934,2.9911,2.9916,2.9916,2.9916,2.9916,2.9916,2.9939,3.0039,0.0,3.0272,3.0275,3.0233,3.0272,3.0185,2.9949,2.9106,2.8782,0.0,0.0,0.0,0.0,0.0,0.0,0.0,0.0,0.0,0.0,0.0,0.0,0.0,0.0,0.0,0.0,0.0,0.0,0.0,0.0,0.0,0.0,3.363,3.4339,3.3879,3.4349,3.4737,3.4737,3.5192,3.5635,3.5962,3.6,3.6154,3.6519,3.6988,3.7411,3.7777,3.8277,3.87,3.9046,3.9046,3.9284,3.9804,3.9804,3.9804,3.9804,4.0285,4.0265,3.9823,4.0285,4.0496,0.0,4.0559,4.0325,3.9868,3.954,3.9162,0.0,0.0,0.0,0.0,0.0,3.6791,3.684,3.6989,3.7039,3.6983,3.666,3.6543,3.6484,3.6113,3.5996,3.5898,3.5391,3.5234,3.5137,3.4629,3.4219,3.3945,3.3945,3.3672,3.3398,3.3398,3.3006,3.2669,3.2669,0.0,0.0,3.1845,3.1233,3.0714,3.0665,3.0617,3.0568,0.0,3.0533,3.0524,3.0524,3.083,3.1062,3.1062,3.139,0.0,0.0,0.0,3.0939,3.057,3.0551,0.0,0.0,0.0,0.0,0.0,0.0,0.0,0.0,2.876,2.8633,0.0,0.0,0.0,0.0,0.0,0.0,0.0,0.0,0.0,0.0,0.0,0.0,0.0,0.0,0.0,0.0,3.5161,3.5788,3.5788,3.5788,3.575,3.5654,3.5712,3.6058,3.6769,3.6846,3.718,3.795,3.8084,3.8469,3.9265,0.0,0.0,0.0,0.0,4.0496,4.0496,4.0496,4.0496,4.0496,4.0519,4.0527,4.0527,4.053,4.0526,4.0533,4.0667,4.0707,4.066,4.001,3.9746,3.9668,3.8621,3.8259,3.8315,3.8395,3.8411,3.8435,3.8553,0.0,0.0,3.7695,3.7441,3.7305,3.6523,3.6289,3.6289,3.6289,3.6289,3.6269,3.6172,3.5566,3.4961,3.4863,3.4238,3.3671,3.3651,3.3537,3.345,3.345,3.3298,3.3179,3.3179,3.1864,3.0816,3.085,3.0781,0.0,3.0757,3.0719,3.0673,3.0673,0.0,0.0,3.1833,3.2546,3.2659,3.1878,3.1881,3.154,3.0674,3.0635,3.0699,3.0863,3.0769,3.0769,3.0866,3.0876,3.087,3.081,2.9318,2.8968,0.0,0.0,0.0,0.0,0.0,0.0,0.0,0.0,0.0,0.0,0.0,0.0,0.0,0.0,0.0,3.5192,3.6526,3.7526,3.7526,3.7526,3.7257,3.6538,3.7084,3.7584,3.7738,3.7757,3.7815,3.7988,3.8642,3.913,3.9284,3.9919,0.0,4.0496,4.0496,4.0496,4.0496,4.0496,4.0496,4.0496,0.0,0.0,4.0655,4.0722,4.0733,4.0733,4.0775,4.0788,4.0768,4.0638,4.0633,4.0569,3.898,3.8361,3.8397,3.8528,3.8553,3.8573,3.8594,3.8594,3.8574,3.8398,3.8359,3.832,3.8144,3.8105,0.0,3.8105,3.8105,3.7949,3.7226,3.6914,3.6601,3.5843,3.5543,3.5398,3.5276,3.4742,3.4279,3.4279,3.36,3.303,3.303,3.2838,3.2648,3.254,3.2508,3.2491,3.2445,3.2429,3.2429,3.2429,3.2564,3.2679,3.2679,3.282,3.2845,3.2679,3.2691,3.2318,3.149,3.1471,3.1777,3.2436,3.1819,3.1799,3.2455,3.2503,3.2517,3.2436,3.1525,3.1172,0.0,0.0,0.0,0.0,0.0,0.0,0.0,0.0,0.0,0.0,0.0,3.3566,3.4102,0.0,3.6231,3.6673,3.7815,3.8525,3.8138,3.8765,3.8777,3.7507,3.7738,3.8161,3.8604,3.8677,3.8885,3.9322,3.9791,4.0051,4.0051,4.0432,4.0645,4.0645,4.0645,4.0645,4.0645,4.0645,4.0645,4.0645,4.0717,4.0747,4.0752,4.0773,4.0797,4.0801,4.087,4.0908,4.0911,4.0964,4.1049,4.1006,4.0148,3.9797,3.9817,3.9882,3.9902,3.9902,3.9902,3.9902,3.9824,3.9394,3.9258,3.918,3.873,3.8594,3.8594,3.8594,3.8594,3.8476,3.7981,3.7841,3.7715,3.7213,3.7097,3.6952,3.6469,3.6009,3.5579,3.5133,3.4622,3.4247,3.4247,3.4304,3.4035,3.3087,3.296,3.2937,3.2904,3.2891,3.2891,3.2891,3.3295,3.3545,3.3545,3.3545,3.3545,3.3545,3.3141,3.2718,3.2314,3.2295,3.2487,3.2891,3.2506,3.2506,3.2891,3.2926,3.3157,3.3551,3.3625,3.3186,0.0,0.0,0.0,0.0,0.0,0.0,0.0,0.0,3.3237,3.3564,3.4199,3.4949,3.5827,3.665,3.7448,3.8161,3.9005,3.9445,3.9023,3.9875,4.019,3.9174,3.8747,3.881,3.9527,3.9635,3.9959,4.0666,4.0766,4.0797,4.0797,4.0797,4.0797,4.0797,4.0957,4.1054,4.1054,4.121,4.1307,4.1307,4.133,4.1337,4.1337,4.1354,4.1364,4.1367,4.1304,4.1186,4.1051,4.115,4.1191,4.1211,4.1367,4.1426,4.1406,4.1269,4.1191,4.1191,4.1191,4.1191,4.1074,4.0371,4.0156,4.0019,3.9316,3.9101,3.9101,3.9061,3.9061,3.8999,3.8707,3.8631,3.8575,3.8327,3.8259,3.8061,3.7348,3.7152,3.6917,3.6201,3.6023,3.5981,3.5981,3.5981,3.5404,3.368,3.341,3.341,3.341,3.341,3.341,3.341,3.4026,3.4449,3.4449,3.4449,3.4379,3.4205,3.3699,3.3333,3.316,3.3141,3.3237,3.341,3.341,3.3487,3.3641,3.3814,3.4257,3.4956,3.5661,3.5135,3.1161,3.049,0.0,3.2282,3.227,3.2404,0.0,0.0,3.4468,3.5968,3.6346,3.6699,3.7565,3.8479,3.9118,3.9234,4.0014,4.0866,4.1567,4.1146,4.1274,4.2629,4.1371,4.0455,4.0615,4.0637,4.0684,4.0781,4.0793,4.0797,4.0797,4.0797,4.0797,4.0797,4.1544,4.1957,4.1957,4.272,4.3113,4.3113,4.3228,4.3294,4.3294,4.335,4.3377,4.3338,4.2577,4.1835,4.1171,4.1191,4.1191,4.1269,4.1992,4.2266,4.2187,4.1465,4.1191,4.1191,4.1191,4.1191,4.1172,4.1094,4.1055,4.1035,4.0937,4.0918,4.0878,4.0761,4.073,4.0543,3.9685,3.9462,3.9245,3.8345,3.8119,3.8086,3.7925,3.7877,3.7844,3.7747,3.7733,3.7719,3.7719,3.7719,3.7161,3.5462,3.5212,3.5212,3.5212,3.5212,3.5212,3.5212,3.5308,3.5346,3.5346,3.5346,3.5026,3.4244,3.4834,3.4872,3.409,3.4052,3.441,3.5192,3.5212,3.5558,3.6269,3.7046,3.7488,3.7584,3.7661,3.7199,3.224,0.0,0.0,0.0,3.4141,3.4769,3.5365,3.5644,3.5968,3.6669,3.7254,3.7894,3.8776,3.9631,4.0383,0.0,4.1302,4.1898,4.2847,4.2597,4.2448,4.2779,4.256,4.2365,4.2331,4.2377,4.2423,4.2423,4.2477,4.2494,4.2494,4.2494,4.2494,4.2494,4.2845,4.3021,4.3021,4.3391,4.3567,4.3587,4.3621,4.3665,4.3666,4.3691,4.3691,4.3672,4.3301,4.2969,4.2656,4.2656,4.2656,4.2695,4.3027,4.3164,4.3125,4.2773,4.2656,4.2656,4.2656,4.2656,4.2656,4.2656,4.2283,4.1842,4.1842,4.1436,4.0957,4.0905,4.0877,4.0779,4.0354,4.0242,4.0109,3.9625,3.9507,3.9352,3.8857,3.8757,3.8604,3.8104,3.8007,3.8007,3.8007,3.8007,3.7757,3.7065,3.6949,3.6769,3.625,3.6192,3.6019,3.5558,3.55,3.5692,3.6154,3.6192,3.6038,3.568,3.6,3.5827,3.4988,3.5411,3.5834,3.6192,3.6692,3.7123,3.7469,3.7815,3.8007,3.8007,3.8527,3.8565,3.2887,0.0,0.0,3.4166,3.5382,3.6367,3.6,3.6626,3.7342,3.7599,3.8186,3.8995,4.0092,4.0792,0.0,4.2367,4.2523,4.2888,4.3844,4.3702,4.3472,4.3476,4.3782,4.4032,4.4187,4.3849,4.3633,4.3633,4.3669,4.3691,4.3691,4.3691,4.3691,4.3691,4.3926,4.4062,4.4062,4.4297,4.4414,4.4414,4.4414,4.4414,4.4414,4.4414,4.4297,4.4062,4.4062,4.3926,4.3691,4.3691,4.3691,4.3711,4.3965,4.4062,4.4082,4.4295,4.4081,4.3691,4.3689,4.3668,4.3667,4.3621,4.315,4.2607,4.2607,4.2098,4.1509,4.1474,4.1465,4.1456,4.1389,4.1364,4.1331,4.1239,4.1035,4.07,4.0123,3.9804,3.9438,3.8815,3.8681,3.8681,3.8681,3.8681,3.8681,3.8681,3.8681,3.8296,3.7199,3.7065,3.6846,3.625,3.6192,3.6423,3.7,3.7065,3.7065,3.7065,3.7065,3.6788,3.6212,3.675,3.7065,3.7065,3.7911,3.8354,3.8354,3.8584,3.8815,3.9065,3.97,4.0123,0.0,0.0,3.2376,3.4072,3.5165,3.6025,3.6777,3.764,3.85,3.9346,3.9544,4.0073,4.1723,4.2145,4.2538,4.3418,4.3605,4.3965,4.4824,4.4238,4.4316,4.5976,4.5469,4.5293,0.0,4.4687,4.3691,4.3691,4.3691,4.3691,4.3691,4.3691,4.3691,4.3691,4.4512,4.4961,4.4961,4.5801,4.6211,4.6211,4.6211,4.6211,4.6211,4.6211,4.5762,4.4961,4.4961,4.4473,4.3691,4.3691,4.3691,4.3789,4.4629,4.4961,4.5058,4.5758,4.5044,4.3691,4.3627,4.3609,4.358,4.3456,4.34,4.3376,4.3376,4.3357,4.3291,4.316,4.3137,4.3118,4.3034,4.3036,4.3036,4.3028,4.2374,4.175,4.1731,4.1066,4.0458,4.0439,4.0419,4.0419,4.0419,4.0419,4.0419,4.0419,4.0419,3.9823,3.8161,3.7969,3.795,3.793,3.7911,3.793,3.7969,3.7969,3.7969,3.7969,3.7969,3.795,3.793,3.795,3.7969,3.7969,3.8815,3.9265,3.9265,4.0035,4.0854,4.1692,4.1712,4.2181,0.0,0.0,3.4766,3.5872,3.7254,3.825,3.7939,3.8561,3.9312,3.9607,3.9733,4.0316,4.1995,4.2335,4.2847,4.4292,4.455,4.4863,4.5742,4.5605,4.543,4.5449,4.5683,0.0,0.0,0.0,0.0,4.543,4.543,4.543,4.543,4.543,4.543,4.543,4.5703,4.5859,4.5859,4.6152,4.6308,4.6308,4.6308,4.6308,4.6308,4.6308,4.6133,4.5859,4.5859,4.5703,4.543,4.543,4.543,4.5449,4.5653,4.5722,4.5757,4.591,4.5621,4.5153,4.5124,4.5133,4.5126,4.5071,4.4633,4.4131,4.4131,4.3685,4.3192,4.3146,4.3131,4.3135,4.3102,4.3104,4.3104,4.3104,4.2874,4.2662,4.2662,4.2431,4.222,4.222,4.222,4.222,4.222,4.222,4.2027,4.145,4.0412,3.9496,3.8938,3.8354,3.8007,3.8007,3.8007,3.8238,3.8815,3.8854,3.8854,3.8854,3.8854,3.8604,3.8027,3.8565,3.8854,3.8854,4.0239,4.0969,4.0969,4.1816,4.2374,4.2654,4.2401,4.2412,0.0,3.4761,3.6064,3.69,3.8422,3.9553,3.8992,3.9579,4.0238,4.024,4.031,4.0879,4.2558,4.2851,4.3437,4.5176,4.5469,4.5664,4.6211,4.6308,4.6094,4.5527,4.5957,0.0,0.0,0.0,0.0,4.6308,4.6308,4.6308,4.6308,4.6308,4.6308,4.6308,4.6308,4.6308,4.6308,4.6308,4.6308,4.6308,4.6308,4.6308,4.6308,4.6308,4.6308,4.6308,4.6308,4.6308,4.6308,4.6247,4.6225,4.6222,4.608,4.6033,4.6024,4.59,4.5852,4.5852,4.5852,4.5852,4.5866,4.5811,4.537,4.4887,4.4887,4.4469,4.3989,4.3989,4.3989,4.3989,4.3989,4.3989,4.3989,4.3989,4.3758,4.3528,4.3528,4.3297,4.3104,4.3104,4.3104,4.3104,4.3104,4.3104,4.2912,4.2354,4.1354,4.0546,4.0219,3.97,3.9488,3.9796,3.9546,3.9719,4.0585,4.0662,4.0662,4.0662,4.0662,4.0412,3.9854,4.0354,4.0662,4.0662,4.172,4.2198,4.2045,4.261,4.2986,4.3177,4.2914,4.2959,3.4157,3.5346,3.6328,3.7168,3.8672,3.9961,3.9961,4.0605,4.1211,4.125,4.1269,4.1777,0.0,0.0,4.4336,4.6074,4.6328,4.6328,4.6367,4.6328,4.6308,0.0,0.0,0.0,0.0,0.0,0.0,4.6308,0.0,4.6308,4.6308,4.6308,4.6308,4.6308,4.6308,4.6308,4.6308,4.6308,4.6308,4.6308,4.6308,4.6308,4.6308,4.6308,4.6308,4.6289,4.6289,4.6289,4.6268,4.6145,4.6084,4.608,4.5955,4.589,4.5896,4.5808,4.579,4.579,4.579,4.579,4.5775,4.5643,4.5594,4.5594,4.5594,4.5594,4.5594,4.5594,4.5594,4.5594,4.5594,4.5594,4.5594,4.5594,4.4979,4.4374,4.4374,4.3778,4.322,4.322,4.322,4.322,4.322,4.3181,4.3162,4.3162,4.3162,4.2854,4.1981,4.1865,4.2181,4.3008,4.2354,4.22,4.3028,4.3104,4.3104,4.3104,4.3104,4.3104,4.3104,4.3077,4.3069,4.3069,4.309,4.2918,4.2538,4.2595,4.2872,4.3366,4.3353,4.3786,3.4547,3.6269,3.7988,3.8203,3.957,4.0879,4.0879,4.1035,4.1367,4.1973,4.209,4.2617,0.0,0.0,0.0,4.6992,4.6719,0.0,4.7187,4.6719,0.0,0.0,0.0,4.6308,4.6308,4.6308,0.0,0.0,4.6308,4.6308,4.6308,4.6308,4.6308,4.6308,4.6308,4.6308,4.6308,4.6308,4.6308,4.6308,4.6308,4.6308,4.6308,4.6308,4.6247,4.6147,4.6147,4.6087,4.5995,4.5971,4.5944,4.5932,4.5864,4.5826,4.5802,4.57,4.566,4.566,4.566,4.566,4.5651,4.5612,4.5594,4.5594,4.5594,4.5594,4.5594,4.5594,4.5594,4.5594,4.5594,4.5594,4.5594,4.5594,4.5441,4.5267,4.5267,4.5114,4.496,4.496,4.496,4.496,4.496,4.4412,4.3989,4.3989,4.3989,4.3701,4.2874,4.2777,4.2854,4.3085,4.2893,4.2854,4.3085,4.3104,4.3104,4.3104,4.3104,4.3104,4.3104,4.2813,4.2651,4.2651,4.3053,4.3197,4.3094,4.3749,4.414,4.4259,4.3957,4.3926,3.6093,3.748,3.8691,3.9062,4.0195,4.1191,4.1191,4.1191,4.1426,4.2226,4.2402,0.0,0.0,0.0,0.0,0.0,0.0,0.0,4.7598,4.7519,4.7305,0.0,4.7207,0.0,4.6914,4.6875,4.6719,0.0,4.6308,4.6308,4.6308,4.6308,4.6308,4.6308,4.6308,4.6484,4.6875,4.6484,4.6484,4.6875,4.6484,4.6504,4.6875,4.6875,4.7049,4.733,0.0,4.6986,4.6589,4.6849,4.6738,4.6416,4.6689,4.6808,4.6754,4.6331,4.6394,4.6644,4.6297,4.6394,4.6586,4.5845,4.5594,4.5671,4.6047,4.6163,4.624,4.6605,4.6701,4.6701,4.6701,4.6701,4.6701,4.6701,4.6701,4.6701,4.6701,4.6413,4.6067,4.5671,4.5594,4.5594,4.5594,4.519,4.4874,4.4874,4.4874,4.4701,4.4259,4.3855,4.3778,4.4162,4.3855,4.3778,4.4162,4.4201,4.4201,4.4201,4.4201,4.4201,4.4201,4.3847,4.3637,4.3637,4.3798,4.3772,4.361,4.4093,4.4266,4.411,4.3899,4.3772,3.7988,3.8672,3.8945,3.9707,4.0566,4.1191,4.1191,4.1191,4.1465,4.2383,0.0,0.0,4.4844,0.0,4.6621,4.7617,0.0,4.8418,4.8008,4.8398,4.8496,4.7851,4.8437,4.8555,4.7676,4.7598,4.7246,4.6367,4.6308,4.6308,4.6308,4.6308,4.6308,4.6308,4.6308,4.666,4.7422,4.6797,4.6836,4.7577,4.6933,4.7031,4.7753,4.7754,4.8163,4.8843,0.0,0.0,4.7538,4.8063,4.7831,4.7216,4.785,4.8105,4.8029,4.7317,4.7509,4.8009,4.7288,4.7528,4.7855,4.6394,4.5941,4.6067,4.6836,4.7058,4.7192,4.7894,4.8105,4.8105,4.8105,4.8105,4.8105,4.8105,4.8105,4.8105,4.8105,4.7471,4.6644,4.5768,4.5594,4.5594,4.5594,4.5594,4.5594,4.5594,4.5594,4.5577,4.555,4.4914,4.4759,4.5518,4.4913,4.4778,4.5537,4.5559,4.5522,4.5522,4.5495,4.5476,4.5476,4.514,4.4954,4.4954,4.4631,4.428,4.3924,4.3924,4.3788,4.3515,4.3515,4.3515,3.8476,3.9121,3.9707,3.9863,4.0566,4.1191,4.1191,4.1191,0.0,0.0,0.0,4.4004,4.5742,4.6191,0.0,4.8418,0.0,0.0,0.0,0.0,4.8047,0.0,0.0,0.0,0.0,0.0,0.0,0.0,0.0,4.6308,4.6308,4.6308,4.6308,4.6308,4.6308,4.6367,4.6523,4.709,4.7398,4.7446,4.8121,4.8472,4.8502,4.863,4.8636,4.8565,4.8545,0.0,4.7989,4.8099,4.8044,4.7929,4.8038,4.8105,4.8086,4.7952,4.799,4.8086,4.7952,4.799,4.8048,4.7759,4.7663,4.7682,4.7855,4.7894,4.7932,4.8067,4.8105,4.8105,4.8105,4.8105,4.8105,4.8105,4.8105,4.8105,4.8105,4.7471,4.6644,4.5768,4.5594,4.5594,4.5594,4.5594,4.5594,4.5594,4.5594,4.5504,4.5222,4.5294,4.5441,4.5575,4.546,4.5441,4.5594,4.5342,4.5191,4.5191,4.4931,4.4769,4.4769,4.4401,4.4204,4.4204,4.3868,4.3664,4.358,4.358,4.3565,4.3515,4.3515,4.3515,3.9707,3.9922,4.0019,4.0469,4.0898,4.1191,4.1191,0.0,0.0,0.0,0.0,4.3418,4.4707,0.0,0.0,0.0,0.0,0.0,0.0,0.0,0.0,0.0,0.0,0.0,0.0,0.0,0.0,0.0,0.0,4.6308,4.6308,4.6308,4.6308,4.6308,4.6308,4.6738,4.7637,4.7617,4.8026,4.8855,4.8815,4.9,4.9384,4.936,4.9552,4.9844,4.9771,0.0,4.8916,4.9296,4.9183,4.8817,4.9279,4.9452,4.9394,4.8933,4.9067,4.9394,4.8933,4.9067,4.9452,4.9452,4.8836,4.8182,4.8644,4.8779,4.8875,4.9336,4.9452,4.9452,4.9452,4.9452,4.9452,4.9452,4.9452,4.9202,4.8298,4.7798,4.7144,4.5845,4.597,4.6278,4.6278,4.6624,4.6684,4.6052,4.5955,4.5681,4.4941,4.5346,4.5551,4.5124,4.5456,4.5532,4.5124,4.5318,4.528,4.4868,4.4682,4.4593,4.4593,4.4204,4.4001,4.4001,4.3679,4.3515,4.3515,4.3515,4.3515,4.3515,4.3515,4.3515,4.082,4.0703,4.0332,4.1035,4.1191,4.1191,4.1191,4.1191,0.0,0.0,0.0,0.0,0.0,0.0,0.0,0.0,0.0,0.0,0.0,0.0,0.0,0.0,0.0,0.0,0.0,0.0,0.0,0.0,0.0,0.0,4.6308,4.6308,4.6308,4.6308,4.6308,4.7051,4.8613,4.7909,4.8317,4.9835,4.9213,4.9276,4.9919,5.0027,5.0446,5.1042,5.0952,0.0,0.0,5.046,5.0308,4.974,5.0442,5.0712,5.0616,4.9933,5.0106,5.0596,4.9913,5.0125,5.0712,5.0712,4.976,4.8779,4.9471,4.9683,4.9817,5.0519,5.0712,5.0712,5.0712,5.0712,5.0712,5.0712,5.0558,4.999,4.8432,4.7971,4.7394,4.5902,4.6108,4.6561,4.6753,4.7241,4.734,4.6565,4.6442,4.6106,4.5117,4.5538,4.5665,4.4951,4.5603,4.5722,4.4919,4.5353,4.5331,4.453,4.4406,4.4364,4.4364,4.4061,4.3896,4.3896,4.3629,4.3515,4.3515,4.3515,4.3515,4.3515,4.3515,4.3515,4.1152,4.1133,4.1094,4.1172,4.1191,4.1191,4.1191,0.0,0.0,0.0,4.2402,4.2676,4.3535,0.0,0.0,0.0,0.0,0.0,0.0,0.0,0.0,0.0,0.0,0.0,0.0,0.0,0.0,0.0,0.0,0.0,4.6308,4.6308,4.6308,4.6308,4.6308,4.6758,4.7715,4.7524,4.7825,4.8658,4.9355,4.9678,4.9673,5.0575,5.0961,5.0918,5.0916,0.0,0.0,5.0664,5.0654,5.0596,5.0673,5.0712,5.0693,5.0616,5.0635,5.0693,5.0616,5.0635,5.0712,5.0712,5.0596,5.0481,5.0558,5.0577,5.0596,5.0673,5.0712,5.0712,5.0712,5.0712,5.0712,5.0712,5.0087,4.926,4.8317,4.7528,4.674,4.5787,4.5429,4.5491,4.6233,4.6151,4.6218,4.6838,4.6938,4.6774,4.6296,4.6305,4.6197,4.5823,4.6448,4.6557,4.576,4.5413,4.4919,4.4099,4.3775,4.3597,4.3597,4.3582,4.3548,4.3548,4.3513,4.3515,4.3515,4.3515,4.3515,4.3515,4.3515,4.3515,4.2558,4.2695,4.2695,4.2695,4.2305,4.1914,4.1914,0.0,0.0,4.2226,4.2402,4.2676,4.3535,4.4414,0.0,0.0,0.0,0.0,0.0,0.0,0.0,0.0,0.0,0.0,0.0,0.0,0.0,0.0,0.0,0.0,4.6308,4.6308,4.6308,4.6308,4.6308,4.6678,4.7465,4.743,4.8028,4.9294,4.9557,4.9918,5.0385,5.0709,5.0819,5.0773,5.0773,0.0,0.0,5.0712,5.0712,5.0712,5.0712,5.0712,5.0712,5.0712,5.0712,5.0712,5.0712,5.0712,5.0712,5.0712,5.0712,5.0712,5.0712,5.0712,5.0712,5.0712,5.0712,5.0712,5.0712,5.0712,5.0712,5.0712,5.0029,4.9163,4.8298,4.728,4.6278,4.5455,4.5422,4.5615,4.5937,4.6327,4.6449,4.6038,4.5989,4.5823,4.5426,4.58,4.6228,4.6581,4.6461,4.5997,4.5215,4.4996,4.4561,4.3749,4.3563,4.3515,4.3515,4.3515,4.3515,4.3515,4.3975,4.4213,4.4213,4.4709,4.4929,4.4929,4.4929,4.4929,4.3144,4.3496,4.3691,4.3691,4.3047,4.2402,0.0,0.0,4.1426,4.2226,4.2402,4.2676,4.3535,4.4414,4.5,0.0,0.0,0.0,0.0,0.0,0.0,0.0,0.0,0.0,0.0,0.0,0.0,0.0,0.0,0.0,0.0,4.6246,4.6246,4.6246,4.6246,4.6585,4.7332,4.7304,4.7977,4.9351,4.9489,4.9858,5.0468,5.0633,5.0712,5.0712,0.0,0.0,0.0,5.0712,5.0712,5.0712,5.0712,5.0712,5.0712,5.0712,5.0712,5.0712,5.0712,5.0712,5.0712,5.0712,5.0712,5.0712,5.0712,5.0712,5.0712,5.0712,5.0712,5.0712,5.0712,5.0712,5.0635,5.0385,4.9577,4.8634,4.777,4.6634,4.562,4.5068,4.5123,4.5336,4.558,4.6054,4.6173,4.5563,4.5477,4.5381,4.5075,4.5773,4.6471,4.7039,4.6581,4.5938,4.5131,4.4838,4.436,4.3551,4.3515,4.3515,4.3515,4.3718,4.3846,4.3846,4.4654,4.5057,4.5057,4.5626,4.5902,4.5902,4.5902,4.603,4.2402,4.3047,4.3691,4.3691,4.3047,4.2402,0.0,4.1777,4.1426,4.2226,4.2402,4.2676,4.3535,4.4414,4.5,0.0,0.0,0.0,0.0,0.0,0.0,0.0,0.0,0.0,0.0,0.0,0.0,0.0,0.0,0.0,0.0,4.6091,4.6091,4.6091,4.6091,4.6468,4.7196,4.7066,4.7461,4.832,4.905,4.9423,4.9442,5.0308,5.0712,0.0,0.0,0.0,0.0,5.0712,5.0712,5.0712,5.0712,5.0712,5.0712,5.0712,5.0712,5.0712,5.0712,5.0712,5.0712,5.0712,5.0712,5.0712,5.0712,5.0712,5.0712,5.0712,5.0712,5.0712,5.0712,5.0712,5.0481,4.9625,4.8494,4.7381,4.6511,4.543,4.4612,4.4612,4.4294,4.4277,4.5078,4.4946,4.4984,4.5791,4.5902,4.5883,4.5883,4.6581,4.7094,4.7094,4.7094,4.6746,4.5957,4.5168,4.436,4.3551,4.3515,4.3515,4.3515,4.4268,4.469,4.469,4.548,4.5883,4.5883,4.5902,4.5902,4.5902,4.5902,4.6342,4.3125,4.3496,4.3691,4.3691,4.3047,4.2402,4.2402,4.2207,4.2266,4.3105,4.3769,4.4433,4.5312,4.5703,4.6074,4.668,0.0,0.0,0.0,0.0,0.0,0.0,0.0,0.0,0.0,0.0,0.0,0.0,0.0,0.0,0.0,4.5951,4.5951,4.5951,4.5951,4.6054,4.6232,4.6745,4.7383,4.8182,4.9008,4.9702,5.0308,5.0577,0.0,0.0,0.0,0.0,0.0,5.0712,5.0712,5.0712,5.0712,5.0712,5.0712,5.0712,5.0712,5.0712,5.0712,5.0712,5.0712,5.0712,5.0712,5.0712,5.0712,5.0712,5.0712,5.0712,5.0712,5.0712,5.0712,5.0082,4.9406,4.9108,4.7688,4.6304,4.6026,4.5033,4.419,4.419,4.3896,4.3736,4.3994,4.395,4.3975,4.4213,4.4267,4.4654,4.5755,4.6122,4.6709,4.7791,4.7424,4.6764,4.5975,4.5168,4.436,4.3551,4.4011,4.4323,4.4323,4.5094,4.5516,4.5516,4.6324,4.6709,4.6709,4.7278,4.7553,4.7553,4.7553,4.7682,0.0,4.3457,4.3691,4.3691,4.3047,4.2402,4.2402,4.2402,4.2656,4.3516,4.4394,4.5273,4.6133,4.6308,4.6484,4.7012,0.0,0.0,0.0,0.0,0.0,0.0,0.0,0.0,0.0,0.0,0.0,0.0,0.0,0.0,0.0,4.6152,4.6299,4.628,4.6014,4.5987,4.6213,4.7017,4.7813,4.8606,4.9471,5.0164,5.0712,5.0712,0.0,0.0,0.0,0.0,0.0,5.0712,5.0712,5.0712,5.0712,5.0712,5.0712,5.0712,5.0712,5.0712,5.0712,5.0712,5.0712,5.0712,5.0712,5.0673,5.0534,5.0575,5.0635,5.0308,5.0124,4.9956,4.963,4.8888,4.8137,4.7813,4.6654,4.5515,4.5181,4.4431,4.3913,4.4212,4.409,4.3956,4.3956,4.4195,4.4287,4.3993,4.4195,4.4764,4.5773,4.6159,4.6746,4.7736,4.7663,4.7223,4.6416,4.5626,4.4947,4.4433,4.4874,4.5149,4.5149,4.5938,4.6361,4.6361,4.7131,4.7553,4.7553,4.8067,4.8306,4.8306,4.8306,4.8306,0.0,4.291,4.3516,4.3516,4.291,4.2305,4.2305,4.2363,0.0,4.3516,4.4394,4.5273,4.6133,4.6308,4.6328,4.6387,0.0,0.0,0.0,0.0,0.0,0.0,0.0,0.0,0.0,0.0,0.0,0.0,0.0,0.0,0.0,4.6679,4.7055,4.699,4.6321,4.629,4.699,4.7798,4.8606,4.9413,5.0289,5.0712,5.0712,5.0712,0.0,0.0,0.0,0.0,0.0,5.0712,5.0712,5.0712,5.0712,5.0712,5.0712,5.0712,5.0712,5.0712,5.0712,5.0712,5.0702,5.0663,5.0663,5.0575,5.0171,5.0336,5.048,4.9634,4.9179,4.8727,4.788,4.7365,4.6838,4.5962,4.5457,4.4948,4.4138,4.3763,4.3809,4.4562,4.4746,4.4783,4.4783,4.5406,4.5645,4.4911,4.5424,4.592,4.5975,4.6636,4.7113,4.7186,4.7846,4.8012,4.7241,4.6452,4.5957,4.5902,4.5957,4.5993,4.5993,4.6746,4.7186,4.7186,4.7921,4.8306,4.8306,4.8306,4.8306,4.8306,4.8361,4.8398,4.1426,0.0,4.1797,4.1797,4.1621,4.1484,0.0,4.1953,0.0,0.0,0.0,0.0,0.0,0.0,0.0,0.0,0.0,0.0,0.0,0.0,0.0,0.0,0.0,0.0,0.0,0.0,0.0,0.0,0.0,0.0,0.0,4.7743,4.7833,4.7817,4.7659,4.764,4.7817,4.8663,4.9202,4.9413,5.0289,5.0712,5.0712,5.0712,0.0,0.0,0.0,0.0,5.0712,5.0712,5.0712,5.0712,5.0712,5.0712,5.0712,5.0712,5.0712,5.0712,5.0712,5.0712,5.0653,5.0336,5.0249,5.0171,4.976,4.9924,5.0133,4.9625,4.9416,4.9172,4.8334,4.7391,4.642,4.5597,4.4639,4.3869,4.3667,4.4026,4.447,4.4672,4.5204,4.5626,4.5626,4.5773,4.5847,4.5645,4.5773,4.6122,4.6727,4.6984,4.7333,4.7957,4.8196,4.8233,4.8031,4.7278,4.6562,4.5938,4.6489,4.6819,4.6819,4.759,4.8012,4.8012,4.8214,4.8306,4.8306,4.8306,4.8306,4.8324,4.8967,4.9279,4.1191,4.1191,4.1289,4.166,4.1465,4.1308,4.168,0.0,0.0,0.0,0.0,0.0,0.0,0.0,0.0,0.0,0.0,0.0,0.0,0.0,0.0,0.0,0.0,0.0,0.0,0.0,0.0,0.0,0.0,0.0,0.0,4.849,4.8702,4.8702,4.9086,4.9106,4.8702,4.9163,4.9606,4.999,5.0481,5.0712,5.0712,5.0712,5.0712,0.0,0.0,0.0,5.0712,5.0712,5.0712,5.0712,5.0712,5.0712,5.0712,5.0712,5.0712,5.0712,5.0712,5.0594,5.0358,4.9949,4.9813,4.9746,4.9356,4.9122,4.898,4.8919,4.8524,4.7935,4.7091,4.6016,4.5008,4.4582,4.4273,4.3956,4.3588,4.4415,4.5259,4.5259,4.5902,4.6452,4.6452,4.6764,4.6874,4.6526,4.6764,4.7168,4.759,4.7645,4.781,4.8251,4.8306,4.8306,4.8306,4.7901,4.7461,4.704,4.7425,4.7645,4.7645,4.8086,4.8306,4.8306,4.8306,4.8306,4.8306,4.8691,4.8893,4.8912,4.9756,5.0141,4.1348,4.1387,4.1523,4.207,4.1797,4.1523,0.0,0.0,0.0,0.0,0.0,0.0,0.0,0.0,0.0,0.0,0.0,0.0,0.0,0.0,0.0,0.0,0.0,0.0,0.0,0.0,0.0,0.0,0.0,0.0,0.0,4.9202,4.9606,4.9606,5.0308,5.0346,4.9606,4.9606,4.9971,5.0712,5.0712,5.0712,5.0712,5.0712,5.0712,0.0,0.0,0.0,5.0712,5.0712,5.0712,5.0712,5.0712,5.0712,5.0712,5.0712,5.0712,5.0683,5.0624,5.0347,4.9936,4.9532,4.9401,4.9326,4.893,4.8255,4.7669,4.7946,4.7243,4.6206,4.5356,4.4412,4.3681,4.3681,4.4195,4.4562,4.3975,4.5021,4.6085,4.6085,4.6727,4.7278,4.7278,4.7846,4.8086,4.7388,4.7846,4.8306,4.8306,4.8306,4.8306,4.8306,4.8306,4.8306,4.8306,4.8306,4.8306,4.8306,4.8306,4.8306,4.8306,4.8306,4.8306,4.8306,4.8434,4.8508,4.8508,4.9352,4.9794,4.9812,5.06,5.0986,4.2031,4.2226,4.207,4.1523,4.1797,4.207,0.0,0.0,0.0,0.0,0.0,0.0,0.0,0.0,0.0,0.0,0.0,0.0,0.0,0.0,0.0,0.0,0.0,0.0,0.0,0.0,0.0,0.0,0.0,0.0,0.0,5.0442,5.05,5.05,5.0635,5.0635,5.05,5.05,5.0577,5.0712,5.0712,5.0712,5.0712,5.0712,5.0712,0.0,0.0,5.0712,5.0712,5.0712,5.0712,5.0712,5.0712,5.0712,5.0712,5.0712,5.0712,5.0653,5.0313,4.9924,4.9518,4.9123,4.8978,4.8913,4.8513,4.7831,4.7187,4.7242,4.6653,4.5789,4.4998,4.4651,4.4525,4.4525,4.4617,4.4856,4.5406,4.6269,4.6911,4.6911,4.7571,4.8122,4.8122,4.8233,4.8269,4.8141,4.8233,4.8306,4.8306,4.8306,4.8306,4.8306,4.8306,4.8306,4.8306,4.8306,4.8306,4.8306,4.8306,4.8306,4.8306,4.8306,4.8306,4.8306,4.9022,4.9408,4.9408,5.0215,5.0618,5.0637,5.1444,5.1811,4.1641,4.207,4.2304,4.1904,4.2457,4.3105,0.0,0.0,0.0,0.0,0.0,0.0,0.0,0.0,0.0,0.0,0.0,0.0,0.0,0.0,0.0,0.0,0.0,0.0,0.0,0.0,0.0,0.0,0.0,0.0,0.0,0.0,5.0712,5.0712,5.0712,5.0712,5.0712,5.0712,5.0712,5.0712,5.0712,5.0712,5.0712,5.0712,5.0712,5.0712,0.0,5.0712,5.0712,5.0712,5.0712,5.0712,5.0712,5.0712,5.0673,5.0462,5.0388,5.0283,4.9659,4.9341,4.9108,4.871,4.8568,4.8458,4.783,4.7076,4.6452,4.6452,4.5883,4.5278,4.5333,4.5039,4.4801,4.5259,4.5681,4.5975,4.5902,4.6874,4.7608,4.7186,4.7736,4.8306,4.8306,4.8306,4.8306,4.8306,4.8306,4.8306,4.8306,4.8306,4.8489,4.8948,4.9003,4.9169,4.9609,4.9664,4.926,4.8361,4.8306,4.8489,4.893,4.8985,4.9205,4.9646,5.0031,5.0251,5.0251,5.1059,5.1444,5.1463,5.227,5.2656,4.1426,4.1933,4.2441,0.0,0.0,0.0,0.0,0.0,0.0,0.0,0.0,0.0,0.0,0.0,0.0,0.0,0.0,0.0,0.0,0.0,0.0,0.0,0.0,0.0,0.0,0.0,0.0,0.0,0.0,0.0,0.0,0.0,5.0712,5.0712,5.0712,5.0712,5.0712,5.0712,5.0712,5.0712,5.0712,5.0712,5.0712,5.0712,5.0712,5.0712,5.0712,5.0712,5.0712,5.0712,5.0712,5.0712,5.0712,5.0634,5.0514,5.0206,4.9974,4.9728,4.9123,4.8847,4.871,4.8383,4.8306,4.8159,4.7333,4.6654,4.614,4.5957,4.5461,4.5131,4.5736,4.5443,4.5186,4.5993,4.6636,4.6984,4.6544,4.7425,4.8122,4.7498,4.7865,4.8306,4.8306,4.8306,4.8306,4.8306,4.8471,4.86,4.86,4.8765,4.915,4.9793,4.9886,5.0123,5.0747,5.0802,5.0251,4.8967,4.8893,4.9169,4.9774,4.9848,5.016,5.0784,5.0986,5.1077,5.1077,5.1885,5.227,5.2289,5.2913,5.3185,4.2109,4.2363,4.2598,4.3398,0.0,0.0,0.0,0.0,0.0,0.0,0.0,0.0,0.0,0.0,0.0,0.0,0.0,0.0,0.0,0.0,0.0,0.0,0.0,0.0,0.0,0.0,0.0,0.0,0.0,0.0,0.0,0.0,0.0,5.0712,5.0712,5.0712,5.0712,5.0712,5.0712,5.0712,5.0712,5.0712,5.0712,5.0712,5.0712,5.0712,5.0712,5.0712,5.0712,5.0712,5.0712,5.0712,5.0712,5.0472,5.0147,5.0104,4.9631,4.8996,4.893,4.8657,4.8344,4.8306,4.8306,4.8159,4.7333,4.7058,4.6856,4.6104,4.5865,4.5828,4.5883,4.5865,4.6012,4.6819,4.7058,4.7278,4.7994,4.8233,4.8288,4.8233,4.8269,4.8306,4.8306,4.8306,4.8306,4.8306,4.8985,4.9519,4.9519,5.016,5.0637,5.071,5.071,5.0747,5.0802,5.0802,5.0747,5.0637,5.0618,5.0655,5.071,5.071,5.0747,5.0802,5.1518,5.1903,5.1903,5.2729,5.3115,5.3133,5.3167,5.3185,4.1562,4.1988,4.2398,0.0,0.0,0.0,0.0,0.0,0.0,0.0,0.0,0.0,0.0,0.0,0.0,0.0,0.0,0.0,0.0,0.0,0.0,0.0,0.0,0.0,0.0,0.0,0.0,0.0,0.0,0.0,0.0,0.0,0.0,5.0712,5.0712,5.0712,5.0712,5.0712,5.0712,5.0712,5.0712,5.0712,5.0712,5.0712,5.0712,5.0712,5.0712,5.0712,5.0712,5.0712,5.0712,5.0673,5.0421,5.0237,5.0043,4.9547,4.9171,4.8863,4.8604,4.8421,4.8306,4.8306,4.8306,4.8159,4.7333,4.7094,4.7039,4.6727,4.6636,4.6636,4.6636,4.6636,4.6856,4.7645,4.7846,4.792,4.8233,4.8306,4.8306,4.8306,4.8306,4.8306,4.8306,4.8306,4.8471,4.8967,4.9352,4.9794,5.027,5.0618,5.0986,5.1481,5.1995,5.2307,5.2307,5.2307,5.2307,5.2307,5.1353,5.1022,5.1518,5.1555,5.1775,5.2289,5.2601,5.2747,5.2747,5.3059,5.3185,5.3185,5.3185,5.3185,4.0797,4.1261,4.1808,0.0,0.0,0.0,0.0,0.0,0.0,0.0,0.0,0.0,0.0,0.0,0.0,0.0,0.0,0.0,0.0,0.0,0.0,0.0,0.0,0.0,0.0,0.0,0.0,0.0,0.0,0.0,0.0,0.0,0.0,0.0,5.0712,5.0712,5.0712,5.0712,5.0712,5.0712,5.0712,5.0712,5.0712,5.0712,5.0712,5.0712,5.0712,5.0712,5.0712,5.0712,5.0624,5.0472,5.0068,4.9827,4.9645,4.9108,4.883,4.8675,4.8402,4.8141,4.7921,4.7921,4.7921,4.7755,4.6966,4.7076,4.7424,4.7168,4.7278,4.748,4.748,4.748,4.7608,4.8177,4.8306,4.8306,4.8306,4.8306,4.8379,4.8655,4.8691,4.8765,4.904,4.9095,4.9279,4.9829,5.016,5.0565,5.1114,5.1408,5.1775,5.2325,5.2876,5.3185,5.3185,5.3185,5.3185,5.3185,5.2179,5.1811,5.2362,5.238,5.2637,5.3185,5.3185,5.3185,5.3185,5.3185,5.3185,5.3185,5.3185,5.3185,3.9938,4.0243,0.0,0.0,0.0,0.0,0.0,0.0,0.0,0.0,0.0,0.0,0.0,0.0,0.0,0.0,0.0,0.0,0.0,0.0,0.0,0.0,0.0,0.0,0.0,0.0,0.0,0.0,0.0,0.0,0.0,0.0,0.0,0.0,5.0693,5.0693,5.0712,5.0693,5.0693,5.0712,5.0712,5.0712,5.0712,5.0712,5.0712,5.0712,5.0712,5.0712,5.0683,5.0683,5.0442,5.0056,4.9645,4.9249,4.8897,4.8897,4.8639,4.8306,4.8306,4.7755,4.7094,4.7094,4.7094,4.6947,4.6159,4.704,4.8141,4.7333,4.7681,4.8306,4.8306,4.8306,4.8306,4.8306,4.8306,4.8306,4.8306,4.8306,4.8563,4.9445,4.9555,4.9774,5.0655,5.0802,5.0802,5.082,5.1481,5.1995,5.1995,5.2711,5.3185,5.3185,5.3185,5.3185,5.3185,5.3185,5.3185,5.3185,5.3185,5.3185,5.3185,5.3185,5.3185,5.3185,5.3185,5.3185,5.3185,5.3185,5.3185,5.3185,5.3185,5.3185,3.9872,0.0,0.0,0.0,0.0,0.0,0.0,0.0,0.0,0.0,0.0,0.0,0.0,0.0,0.0,0.0,0.0,0.0,0.0,0.0,0.0,0.0,0.0,0.0,0.0,0.0,0.0,0.0,0.0,0.0,0.0,0.0,0.0,0.0,5.0106,5.0067,5.0693,5.0087,5.0087,5.0712,5.0712,5.0712,5.0712,5.0712,5.0712,5.0712,5.0712,5.0544,5.026,4.9962,4.9787,4.965,4.9234,4.9013,4.8863,4.8586,4.8052,4.7535,4.8104,4.7407,4.6361,4.6911,4.7094,4.7058,4.6819,4.7461,4.8251,4.8012,4.8122,4.8306,4.8306,4.8306,4.8306,4.8306,4.8306,4.8306,4.8306,4.8306,4.8563,4.9445,4.9592,4.9829,5.0655,5.0802,5.0986,5.1555,5.1848,5.2197,5.2766,5.3059,5.3185,5.3185,5.3185,5.3185,5.3185,5.3185,5.3185,5.3185,5.3185,5.3185,5.3185,5.3185,5.3185,5.3185,5.3185,5.3185,5.3185,5.3185,5.3185,5.3185,5.3185,5.3185,3.9764,0.0,0.0,0.0,0.0,0.0,0.0,0.0,0.0,0.0,0.0,0.0,0.0,0.0,0.0,0.0,0.0,0.0,0.0,0.0,0.0,0.0,0.0,0.0,0.0,0.0,0.0,0.0,0.0,0.0,0.0,0.0,0.0,0.0,4.9336,4.9298,5.0192,4.9663,4.9837,5.0712,5.0712,5.0712,5.0712,5.0712,5.0712,5.0683,5.0534,5.0237,4.9827,4.9431,4.9265,4.9218,4.883,4.8657,4.8584,4.8034,4.7516,4.7168,4.7663,4.6783,4.5608,4.6727,4.6874,4.6672,4.7003,4.7663,4.8306,4.8306,4.8306,4.8306,4.8306,4.8306,4.8306,4.8306,4.8306,4.8306,4.8306,4.8306,4.8655,4.9848,5.0068,5.0417,5.1573,5.1756,5.1922,5.2399,5.2472,5.2656,5.3151,5.3185,5.3185,5.3185,5.3185,5.3185,5.3185,5.3185,5.3185,5.3185,5.3185,5.3185,5.3185,5.3185,5.3185,5.3185,5.3185,5.3185,5.3185,5.3185,5.3185,5.3185,5.3185,5.3185,0.0,0.0,0.0,0.0,0.0,0.0,0.0,0.0,0.0,0.0,0.0,0.0,0.0,0.0,0.0,0.0,0.0,0.0,0.0,0.0,0.0,0.0,0.0,0.0,0.0,0.0,0.0,0.0,0.0,0.0,0.0,0.0,0.0,0.0,4.8509,4.8529,4.9394,4.9394,4.9837,0.0,5.0712,5.0712,5.0712,5.0712,5.0712,5.0673,5.0272,4.9898,4.9518,4.9123,4.8947,4.8863,4.8495,4.8289,4.8104,4.7369,4.7003,4.6892,4.6966,4.5993,4.4948,4.6489,4.6562,4.6159,4.6874,4.7663,4.8306,4.8306,4.8306,4.8306,4.8306,4.8306,4.8306,4.8306,4.8306,4.8306,4.8306,4.8361,4.8893,5.049,5.0857,5.1408,5.2949,5.3185,5.3185,5.3185,5.3185,5.3185,5.3185,5.3185,5.3185,5.3185,5.3185,5.3185,5.3185,5.3185,5.3185,5.3185,5.3185,5.3185,5.3185,5.3185,5.3185,5.3185,5.3185,5.3185,5.3185,5.3185,5.3185,5.3185,5.3185,5.3185,0.0,0.0,0.0,0.0,0.0,0.0,0.0,0.0,0.0,0.0,0.0,0.0,0.0,0.0,0.0,0.0,0.0,0.0,0.0,0.0,0.0,0.0,0.0,0.0,0.0,0.0,0.0,0.0,0.0,0.0,0.0,0.0,0.0,4.8394,4.8202,4.8529,4.9394,4.9394,4.9837,0.0,5.0712,5.0712,5.0712,5.0712,5.0712,5.0673,5.0272,5.0056,4.9936,4.9532,4.9187,4.8897,4.8795,4.818,4.7333,4.7168,4.6305,4.5296,4.5938,4.5516,4.4856,4.5847,4.6471,4.6874,4.7058,4.7663,4.8306,4.8306,4.8306,4.8306,4.8306,4.8306,4.8306,4.8306,4.8306,4.8306,4.8306,4.8838,4.9609,5.0618,5.1316,5.205,5.3041,5.3185,5.3185,5.3185,5.3185,5.3185,5.3185,5.3185,5.3185,5.3185,5.3185,5.3185,5.3185,5.3185,5.3185,5.3185,5.3185,5.3185,5.3185,5.3185,5.3185,5.3185,5.3185,5.3185,5.3185,5.3185,5.3185,5.3185,5.3185,5.3185,0.0,0.0,0.0,0.0,0.0,0.0,0.0,0.0,0.0,0.0,0.0,0.0,0.0,0.0,0.0,0.0,0.0,0.0,0.0,0.0,0.0,0.0,0.0,0.0,0.0,0.0,0.0,0.0,0.0,0.0,0.0,4.9221,4.8567,4.8105,4.7317,4.7509,4.8779,4.8779,4.9413,5.0712,5.0712,5.0712,5.0712,5.0712,5.0585,5.041,5.0183,4.9879,4.9518,4.9311,4.898,4.8567,4.8196,4.7647,4.7003,4.6232,4.5645,4.5333,4.5755,4.5626,4.548,4.6654,4.7076,4.7168,4.7553,4.7957,4.8306,4.8306,4.8306,4.8306,4.8306,4.8306,4.8306,4.8306,4.8306,4.8306,4.8306,4.8967,4.9849,5.0637,5.1444,5.2252,5.3078,5.3185,5.3185,5.3185,5.3185,5.3185,5.3185,5.3185,5.3185,5.3185,5.3185,5.3185,5.3185,5.3185,5.3185,5.3185,5.3185,5.3185,5.3185,5.3185,5.3185,5.3185,5.3185,5.3185,5.3185,5.3185,5.3185,5.3185,5.3185,5.3427,0.0,0.0,0.0,0.0,0.0,0.0,0.0,0.0,0.0,0.0,0.0,0.0,0.0,0.0,0.0,0.0,0.0,0.0,0.0,0.0,0.0,0.0,0.0,0.0,0.0,0.0,0.0,0.0,0.0,0.0,5.0269,4.8875,4.7971,4.7682,4.6605,4.6701,4.8086,4.8394,4.926,5.0712,5.0712,5.0712,5.0712,5.0624,5.0442,5.0195,5.0135,4.9714,4.9108,4.9027,4.8761,4.8328,4.7519,4.7077,4.6709,4.5241,4.5131,4.5681,4.5681,4.5865,4.6324,4.7664,4.7736,4.7424,4.8104,4.8306,4.8306,4.8306,4.8306,4.8306,4.8306,4.8306,4.8306,4.8306,4.8416,4.8526,4.8526,4.9297,5.0216,5.0875,5.1665,5.2417,5.3096,5.3185,5.3185,5.3185,5.3185,5.3185,5.3185,5.3185,5.3185,5.3185,5.3185,5.3185,5.3185,5.3185,5.3185,5.3185,5.3185,5.3185,5.3185,5.3185,5.3185,5.3185,5.3185,5.3185,5.3185,5.3332,5.3427,5.3427,5.3555,5.3977,0.0,0.0,0.0,0.0,0.0,0.0,0.0,0.0,0.0,0.0,0.0,0.0,0.0,0.0,0.0,0.0,0.0,0.0,0.0,0.0,0.0,0.0,0.0,0.0,0.0,0.0,0.0,0.0,0.0,0.0,4.8529,4.824,4.7432,4.5979,4.7124,4.7875,4.8105,4.9606,5.0481,5.0712,5.0712,5.0712,5.0683,5.0336,5.0336,5.0604,5.0249,5.0043,4.9905,4.9561,4.9187,4.8737,4.7938,4.6975,4.5957,4.5057,4.4782,4.4874,4.4874,4.5773,4.6984,4.7186,4.7663,4.8159,4.8269,4.8306,4.8306,4.8306,4.8306,4.8306,4.8306,4.8306,4.8306,4.8306,4.8875,4.9445,4.9445,5.06,5.1701,5.1811,5.2491,5.3057,5.3167,5.3185,5.3185,5.3185,5.3185,5.3185,5.3185,5.3185,5.3185,5.3185,5.3185,5.3185,5.3185,5.3185,5.3185,5.3185,5.3185,5.3185,5.3185,5.3185,5.3185,5.3185,5.3185,5.3185,5.3185,5.3904,5.4234,5.4252,5.495,5.5335,0.0,0.0,0.0,0.0,0.0,0.0,0.0,0.0,0.0,0.0,0.0,0.0,0.0,0.0,0.0,0.0,0.0,0.0,0.0,0.0,0.0,0.0,0.0,0.0,0.0,0.0,0.0,0.0,0.0,4.9933,4.8202,4.8105,4.7567,4.6374,4.7048,4.7644,4.8105,4.9336,5.0231,5.0712,5.0712,5.0712,5.0683,5.0272,5.0214,5.0347,4.9936,4.9631,4.9397,4.9234,4.8669,4.7811,4.7016,4.6099,4.5186,4.4837,4.5002,4.5443,4.5883,4.6801,4.7755,4.7755,4.8012,4.8306,4.8306,4.8306,4.8306,4.8306,4.8306,4.8306,4.8306,4.8655,4.9022,4.9022,5.0014,5.0951,5.0951,5.1501,5.2123,5.2582,5.2968,5.3185,5.3185,5.3185,5.3185,5.3185,5.3185,5.3185,5.3185,5.3185,5.3185,5.3185,5.3185,5.3185,5.3185,5.361,5.3867,5.3867,5.4308,5.4546,5.4546,5.4546,5.4546,5.4546,5.3665,5.3427,5.3867,5.4234,5.4638,5.5078,5.5427,5.5615,0.0,0.0,0.0,0.0,0.0,0.0,0.0,0.0,0.0,0.0,0.0,0.0,0.0,0.0,0.0,0.0,0.0,0.0,0.0,0.0,0.0,0.0,0.0,0.0,0.0,0.0,0.0,0.0,0.0,4.9837,4.7894,4.799,4.774,4.6923,4.7096,4.7605,4.8413,4.9298,5.0048,5.0712,5.0604,5.0544,5.0514,4.9815,4.9478,4.9464,4.9168,4.8868,4.858,4.8257,4.7607,4.6709,4.592,4.5241,4.4691,4.4691,4.5223,4.6012,4.6819,4.7626,4.8306,4.8306,4.8306,4.8306,4.8306,4.8306,4.8306,4.8306,4.8306,4.8361,4.8563,4.9095,4.9647,4.9867,5.0987,5.205,5.2252,5.2307,5.2472,5.3096,5.3185,5.3185,5.3185,5.3185,5.3185,5.3185,5.3185,5.3185,5.3185,5.3185,5.3185,5.3185,5.3185,5.3277,5.35,5.4069,5.4491,5.4693,5.5262,5.5614,5.5614,5.5614,5.5614,5.5614,5.4418,5.4106,5.4711,5.4913,5.521,5.5624,5.5843,5.5855,0.0,0.0,0.0,0.0,0.0,0.0,0.0,0.0,0.0,0.0,0.0,0.0,0.0,0.0,0.0,0.0,0.0,0.0,0.0,0.0,0.0,0.0,0.0,0.0,0.0,0.0,0.0,0.0,0.0,4.9606,4.7096,4.7702,4.774,4.6923,4.7644,4.8452,4.9317,5.0212,5.0654,5.0702,5.0325,5.0135,5.0085,4.8532,4.7823,4.7823,4.7791,4.7774,4.7669,4.6521,4.6012,4.5883,4.5094,4.4745,4.4691,4.4691,4.5223,4.6012,4.6819,4.7626,4.8306,4.8306,4.8306,4.8306,4.8306,4.8306,4.8306,4.8306,4.8306,4.8489,4.9335,4.9574,4.9794,5.0563,5.1371,5.2197,5.2986,5.3151,5.3148,5.3185,5.3185,5.3185,5.3185,5.3185,5.3185,5.3185,5.3185,5.3185,5.3185,5.3185,5.3185,5.3185,5.3185,5.3518,5.4271,5.4381,5.473,5.5504,5.5596,5.5614,5.5614,5.5614,5.5614,5.5614,5.5522,5.5482,5.5559,5.6308,5.634,5.5717,5.6494,5.6429,0.0,0.0,0.0,0.0,0.0,0.0,0.0,0.0,0.0,0.0,0.0,0.0,0.0,0.0,0.0,0.0,0.0,0.0,0.0,0.0,0.0,0.0,0.0,0.0,0.0,0.0,0.0,0.0,0.0,0.0,4.7,4.7173,4.7192,4.6904,4.7682,4.8798,5.0231,4.999,5.0027,5.0325,4.9606,4.9417,4.9668,4.8312,4.7702,4.763,4.6326,4.6077,4.6502,4.6084,4.5608,4.5112,4.4801,4.4691,4.4746,4.5278,4.5993,4.6782,4.759,4.8067,4.8306,4.8306,4.8306,4.8306,4.8306,4.8306,4.8306,4.8306,4.8673,4.915,4.9519,5.0381,5.1334,5.216,5.2564,5.2858,5.3151,5.3185,5.3185,5.3185,5.3185,5.3185,5.3185,5.3185,5.3185,5.3185,5.3185,5.3185,5.3185,5.3665,5.3977,5.3977,5.4436,5.4858,5.5133,5.5647,5.6069,5.6345,5.684,5.7134,5.7134,5.7134,5.7134,5.7134,5.6684,5.6176,5.565,5.5958,5.5956,5.5722,5.6007,5.5724,0.0,0.0,0.0,0.0,0.0,0.0,0.0,0.0,0.0,0.0,0.0,0.0,0.0,0.0,0.0,0.0,0.0,0.0,0.0,0.0,0.0,0.0,0.0,0.0,0.0,0.0,0.0,0.0,0.0,0.0,4.6981,4.6904,4.7019,4.7288,4.8394,4.9529,5.0693,4.972,4.9516,5.0092,4.8959,4.8584,4.8863,4.7648,4.6949,4.6598,4.4996,4.4745,4.548,4.5204,4.4782,4.4323,4.4581,4.4691,4.4819,4.592,4.6636,4.7223,4.8012,4.8306,4.8306,4.8306,4.8306,4.8306,4.8306,4.8306,4.8361,4.8655,4.9114,4.9664,5.0253,5.1389,5.2546,5.3057,5.3185,5.3185,5.3185,5.3185,5.3185,5.3185,5.3185,5.3185,5.3185,5.3185,5.3185,5.3185,5.3185,5.3316,5.3573,5.4069,5.4491,5.4766,5.5262,5.5702,5.5978,5.6492,5.6932,5.7189,5.7703,5.7997,5.7997,5.7997,5.7997,5.7997,5.7516,5.6887,5.6118,5.5826,5.556,5.532,5.532,5.4939,0.0,0.0,0.0,0.0,0.0,0.0,0.0,0.0,0.0,0.0,0.0,0.0,0.0,0.0,0.0,0.0,0.0,0.0,0.0,0.0,0.0,0.0,0.0,0.0,0.0,0.0,0.0,0.0,0.0,4.8635,4.6982,4.6914,4.726,4.8019,4.976,5.0644,5.0596,4.9425,4.9227,4.996,4.8375,4.763,4.7613,4.6411,4.5443,4.4672,4.3846,4.3938,4.4617,4.3809,4.3515,4.3588,4.4397,4.4727,4.4947,4.6526,4.7113,4.7241,4.8031,4.8306,4.8306,4.8306,4.8306,4.8306,4.8306,4.8324,4.8508,4.9372,4.9629,5.0051,5.161,5.2619,5.3185,5.3185,5.3185,5.3185,5.3185,5.3185,5.3185,5.3185,5.3185,5.3185,5.3185,5.3185,5.3203,5.3222,5.3243,5.3537,5.4326,5.4454,5.4766,5.5537,5.5669,5.5978,5.6767,5.684,5.7171,5.7941,5.7997,5.7997,5.7997,5.7997,5.7997,5.7997,5.7973,5.7613,5.6843,5.6077,5.532,5.4589,5.4589,5.4186,4.0112,0.0,0.0,0.0,0.0,0.0,0.0,0.0,0.0,0.0,0.0,0.0,0.0,0.0,0.0,0.0,0.0,0.0,0.0,0.0,0.0,0.0,0.0,0.0,0.0,0.0,0.0,0.0,4.878,4.7774,4.7011,4.7243,4.7223,4.6811,4.873,4.9224,4.8124,4.7376,4.7188,4.7481,4.6399,4.6071,4.6357,4.5442,4.4911,4.4672,4.3846,4.3643,4.3809,4.3589,4.3515,4.3588,4.4397,4.5057,4.57,4.6709,4.7461,4.8012,4.8233,4.8306,4.8306,4.8306,4.8306,4.8306,4.8306,4.8746,4.9298,4.9537,5.0437,5.1555,5.2601,5.3041,5.3185,5.3185,5.3185,5.3185,5.3185,5.3185,5.3185,5.3185,5.3185,5.3185,5.3185,5.3185,5.3387,5.3977,5.4069,5.4363,5.5152,5.5776,5.6235,5.6436,5.6987,5.7428,5.7648,5.7666,5.7758,5.7997,5.7997,5.7997,5.7997,5.7997,5.7997,5.7997,5.7492,5.6825,5.6031,5.5808,5.532,5.4589,5.4042,5.3701,0.0,0.0,0.0,0.0,0.0,0.0,0.0,4.5485,0.0,0.0,0.0,0.0,0.0,0.0,0.0,0.0,0.0,0.0,0.0,0.0,0.0,0.0,0.0,0.0,0.0,0.0,0.0,4.9872,4.8296,4.7017,4.6241,4.6751,4.6816,4.6309,4.7681,4.8012,4.7106,4.6295,4.6087,4.6488,4.5479,4.5118,4.5388,4.4911,4.4525,4.4176,4.3699,4.3515,4.3515,4.3515,4.3699,4.4085,4.4892,4.57,4.6507,4.7296,4.7901,4.8306,4.8306,4.8306,4.8306,4.8306,4.8306,4.8306,4.8306,4.8912,4.9665,5.0014,5.1261,5.2619,5.3096,5.3185,5.3185,5.3185,5.3185,5.3185,5.3185,5.3185,5.3185,5.3185,5.3185,5.3185,5.3185,5.3482,5.3867,5.4326,5.4693,5.5188,5.5996,5.651,5.6932,5.7262,5.7721,5.7997,5.7997,5.7997,5.7997,5.7997,5.7997,5.7997,5.7997,5.7997,5.7862,5.754,5.7134,5.6358,5.5232,5.5232,5.4848,5.4139,5.3684,5.3501,0.0,0.0,0.0,0.0,0.0,0.0,4.4515,4.4929,0.0,0.0,0.0,0.0,0.0,0.0,0.0,0.0,0.0,0.0,0.0,0.0,0.0,0.0,0.0,0.0,0.0,4.9372,4.9395,4.9431,4.7886,4.6363,4.5061,4.5784,4.6184,4.6054,4.6651,4.6876,4.6699,4.5664,4.5485,4.6145,4.5084,4.458,4.458,4.458,4.4176,4.3515,4.3515,4.3515,4.3515,4.3515,4.3975,4.4764,4.559,4.6397,4.7204,4.8012,4.8306,4.8306,4.8306,4.8306,4.8306,4.8306,4.8306,4.8324,4.8416,4.904,4.9922,5.082,5.2105,5.3185,5.3185,5.3185,5.3185,5.3185,5.3185,5.3185,5.3185,5.3185,5.3185,5.3185,5.3185,5.3222,5.3314,5.394,5.4454,5.4638,5.528,5.6014,5.684,5.6932,5.7207,5.7923,5.7997,5.7997,5.7997,5.7997,5.7997,5.7997,5.7997,5.7997,5.7997,5.7909,5.7565,5.6912,5.6739,5.5984,5.4589,5.4589,5.4218,5.3501,5.3501,5.3501,3.9073,3.99,4.0535,0.0,0.0,0.0,0.0,4.2414,0.0,0.0,0.0,0.0,0.0,0.0,0.0,0.0,0.0,0.0,0.0,0.0,0.0,0.0,0.0,0.0,0.0,4.8532,4.8671,4.8987,4.7447,4.5835,4.4294,4.5275,4.5453,4.4476,4.5485,4.5448,4.4206,4.4243,4.4196,4.4074,4.3843,4.3718,4.3718,4.3718,4.3662,4.3515,4.3515,4.3515,4.3515,4.3515,4.3975,4.4764,4.559,4.6397,4.7204,4.8012,4.8306,4.8306,4.8306,4.8306,4.8306,4.8306,4.8306,4.8434,4.9132,4.9921,5.0875,5.2325,5.2947,5.3185,5.3185,5.3185,5.3185,5.3185,5.3185,5.3185,5.3185,5.3185,5.3185,5.3185,5.3185,5.3427,5.4051,5.4308,5.484,5.6143,5.6473,5.6859,5.7666,5.7776,5.7831,5.7978,5.7997,5.7997,5.7997,5.7997,5.7997,5.7997,5.7997,5.7997,5.7997,5.7425,5.7058,5.6912,5.5685,5.4909,5.4589,5.4589,5.4218,5.3501,5.3501,5.3501,3.8642,3.9554,4.0473,4.0339,0.0,0.0,0.0,0.0,0.0,0.0,0.0,0.0,0.0,0.0,0.0,0.0,0.0,0.0,0.0,0.0,0.0,0.0,0.0,0.0,0.0,4.8298,4.8049,4.7455,4.6793,4.5698,4.4075,4.4564,4.4635,4.4016,4.4423,4.4461,4.4103,4.4271,4.4474,4.469,4.4287,4.4103,4.4085,4.3681,4.3515,4.3515,4.3515,4.3515,4.3533,4.392,4.458,4.5351,4.5736,4.6636,4.7736,4.8159,4.8306,4.8306,4.8306,4.8306,4.8306,4.8306,4.8306,4.8471,4.9353,5.0435,5.1646,5.2876,5.3185,5.3185,5.3185,5.3185,5.3185,5.3185,5.3185,5.3185,5.3185,5.3185,5.3185,5.3185,5.3537,5.394,5.4326,5.5078,5.5868,5.6693,5.7152,5.7538,5.7941,5.7997,5.7997,5.7997,5.7997,5.7997,5.7997,5.7997,5.7997,5.7997,5.7997,5.7839,5.7474,5.7109,5.6536,5.5787,5.4637,5.4042,5.4042,5.4042,5.3865,5.3501,5.3501,5.3501,0.0,0.0,0.0,0.0,0.0,3.9776,0.0,0.0,0.0,0.0,0.0,0.0,0.0,0.0,0.0,0.0,0.0,0.0,0.0,0.0,0.0,0.0,0.0,0.0,0.0,4.8214,4.77,4.625,4.6306,4.5725,4.4228,4.4064,4.3971,4.3912,4.3646,4.3883,4.4691,4.4691,4.5039,4.5663,4.5021,4.4618,4.4452,4.3791,4.3515,4.3515,4.3515,4.3589,4.3773,4.4433,4.5278,4.614,4.614,4.7021,4.8306,4.8306,4.8306,4.8306,4.8306,4.8306,4.8306,4.8306,4.8526,4.8948,4.9812,5.1098,5.2362,5.3023,5.3185,5.3185,5.3185,5.3185,5.3185,5.3185,5.3185,5.3185,5.3185,5.3185,5.3185,5.3185,5.3977,5.4638,5.4638,5.5849,5.6859,5.7024,5.7574,5.7997,5.7997,5.7997,5.7997,5.7997,5.7997,5.7997,5.7997,5.7997,5.795,5.7815,5.7774,5.7449,5.6695,5.6536,5.5816,5.4437,5.3799,5.3501,5.3501,5.3501,5.3501,5.3501,5.3501,5.3501,0.0,0.0,0.0,0.0,3.9859,0.0,0.0,0.0,0.0,0.0,0.0,0.0,0.0,0.0,0.0,0.0,0.0,0.0,0.0,0.0,0.0,0.0,0.0,0.0,0.0,0.0,4.7939,4.7021,4.6604,4.5873,4.4686,4.4225,4.3865,4.3582,4.3513,4.3883,4.4691,4.4691,4.4746,4.4838,4.4745,4.4323,4.3626,4.3551,4.3515,4.3515,4.3515,4.3901,4.4563,4.4672,4.559,4.6947,4.6947,4.7498,4.8306,4.8306,4.8306,4.8306,4.8306,4.8306,4.8306,4.8306,4.9315,5.0674,5.1481,5.2344,5.3096,5.3167,5.3185,5.3185,5.3185,5.3185,5.3185,5.3185,5.3185,5.3185,5.3185,5.3185,5.3185,5.3185,5.4436,5.5467,5.5467,5.6216,5.7042,5.7758,5.7941,5.7997,5.7997,5.7997,5.7997,5.7997,5.7997,5.7997,5.7997,5.7997,5.7726,5.7083,5.7015,5.6668,5.5865,5.522,5.4468,5.3634,5.3517,5.3501,5.3501,5.3501,5.3501,5.3501,5.3501,5.3501,0.0,0.0,0.0,0.0,0.0,0.0,0.0,0.0,3.9203,0.0,0.0,0.0,0.0,0.0,0.0,0.0,0.0,0.0,0.0,0.0,0.0,0.0,0.0,0.0,0.0,0.0,0.0,0.0,0.0,4.6376,4.5443,4.5215,4.503,4.491,4.4892,4.5278,4.6085,4.6085,4.6085,4.6085,4.5626,4.4966,4.4176,4.3699,4.3515,4.3515,4.3515,4.3956,4.4745,4.5204,4.6067,4.7149,4.7608,4.8012,4.8306,4.8306,4.8306,4.8306,4.8306,4.8306,4.8379,4.8893,5.016,5.1555,5.1885,5.2564,5.3185,5.3185,5.3185,5.3185,5.3185,5.3185,5.3185,5.3185,5.3185,5.3185,5.3185,5.3573,5.3904,5.3904,5.5207,5.6308,5.6308,5.6969,5.7611,5.7941,5.7997,5.7997,5.7997,5.7997,5.7997,5.7997,5.7997,5.7997,5.7997,5.7613,5.7234,5.6912,5.6067,5.5396,5.5072,5.4359,5.3799,5.3501,5.3501,5.3501,5.3501,5.3501,5.3501,5.3501,5.3501,5.3501,3.9785,0.0,0.0,0.0,0.0,0.0,0.0,0.0,0.0,0.0,0.0,0.0,0.0,0.0,0.0,0.0,0.0,0.0,0.0,0.0,0.0,0.0,0.0,0.0,0.0,0.0,0.0,0.0,0.0,0.0,4.625,4.6012,4.5902,4.5902,4.5902,4.6287,4.7094,4.6874,4.6764,4.6746,4.5957,4.5149,4.436,4.3754,4.3515,4.3497,4.3718,4.4287,4.5094,4.5902,4.6709,4.748,4.8086,4.8306,4.8306,4.8306,4.8306,4.8306,4.8306,4.8471,4.882,4.9922,5.1061,5.2032,5.2252,5.2747,5.3185,5.3185,5.3185,5.3185,5.3185,5.3185,5.3185,5.3185,5.3369,5.3537,5.3537,5.4161,5.473,5.473,5.5849,5.6804,5.6804,5.7464,5.7997,5.7997,5.7997,5.7997,5.7997,5.7997,5.7997,5.7997,5.7839,5.7703,5.7703,5.6997,5.6465,5.6277,5.5047,5.4296,5.4296,5.3766,5.3501,5.3501,5.3501,5.3501,5.3501,5.3501,5.3501,5.3501,5.3501,5.3501,0.0,0.0,0.0,3.9965,0.0,0.0,0.0,0.0,3.9845,0.0,0.0,0.0,0.0,0.0,0.0,0.0,0.0,0.0,0.0,0.0,0.0,0.0,0.0,0.0,0.0,0.0,0.0,0.0,0.0,0.0,4.7021,4.6324,4.5902,4.5902,4.5902,4.6287,4.7094,4.6342,4.5938,4.592,4.5131,4.4323,4.3551,4.3515,4.3515,4.3551,4.4323,4.5131,4.592,4.6727,4.7535,4.8269,4.8306,4.8306,4.8306,4.8306,4.8306,4.8306,4.8306,4.8838,4.9831,5.1408,5.1958,5.2142,5.2931,5.3167,5.3185,5.3185,5.3185,5.3185,5.3185,5.3185,5.3185,5.3185,5.3794,5.4363,5.4363,5.4987,5.5556,5.5556,5.6235,5.6804,5.6804,5.7464,5.7997,5.7997,5.7997,5.7997,5.7997,5.7997,5.7997,5.7997,5.7376,5.6938,5.6938,5.6186,5.5437,5.4713,5.3979,5.3534,5.3534,5.3501,5.3501,5.3501,5.3501,5.3501,5.3501,5.3501,5.3501,5.3501,5.3501,5.3501,0.0,0.0,4.0844,4.0481,0.0,0.0,0.0,0.0,0.0,0.0,0.0,0.0,0.0,0.0,0.0,0.0,0.0,0.0,0.0,0.0,0.0,0.0,0.0,0.0,0.0,0.0,0.0,0.0,4.5755,0.0,0.0,4.6837,4.6948,4.748,4.7498,4.7627,4.7902,4.7094,4.6434,4.5883,4.5094,4.4287,4.3515,4.3515,4.3791,4.4305,4.458,4.5461,4.6709,4.6984,4.7571,4.8306,4.8306,4.8306,4.8306,4.8306,4.8306,4.8379,4.8948,4.9701,5.0563,5.1646,5.2362,5.2839,5.3112,5.3185,5.3185,5.3185,5.3185,5.3185,5.3185,5.3185,5.3335,5.3867,5.4197,5.4546,5.5078,5.5831,5.64,5.64,5.7042,5.7593,5.7593,5.7813,5.7997,5.7997,5.7997,5.7821,5.7333,5.7259,5.7073,5.6536,5.6268,5.6104,5.6104,5.5408,5.4651,5.3913,5.3651,5.3501,5.3501,5.3501,5.3501,5.3501,5.3501,5.3501,5.3501,5.3501,5.3501,5.3501,5.3501,5.3501,4.0496,4.0727,0.0,4.0612,4.037,0.0,4.0073,0.0,0.0,0.0,0.0,0.0,0.0,0.0,0.0,0.0,0.0,0.0,0.0,0.0,0.0,0.0,0.0,0.0,0.0,0.0,4.4947,4.4727,4.5461,0.0,0.0,0.0,4.7626,4.7865,4.8159,4.8306,4.8306,4.7204,4.6416,4.5883,4.48,4.3993,4.3515,4.3791,4.4213,4.4728,4.5296,4.614,4.7113,4.7406,4.7828,4.8306,4.8306,4.8306,4.8306,4.8306,4.8489,4.8893,5.005,5.0784,5.1353,5.216,5.2784,5.3185,5.3185,5.3185,5.3185,5.3185,5.3185,5.3185,5.3185,5.3427,5.3775,5.4289,5.484,5.5409,5.5904,5.6657,5.7226,5.7226,5.7648,5.7997,5.7997,5.7997,5.7997,5.7997,5.7997,5.7839,5.7351,5.7065,5.6695,5.6186,5.5638,5.5203,5.4939,5.4499,5.3994,5.3534,5.3501,5.3501,5.3501,5.3501,5.3501,5.3501,5.3501,5.3501,5.3501,5.3501,5.3501,5.3501,5.3501,5.3501]}]]